[[{"header":{"parameterUnit":"m.s-1","parameterCategory":1,"la1":30.6,"la2":28.766,"lo1":-90.7593,"lo2":-88.6598,"dx":0.0162,"dy":0.0183,"nx":116,"ny":114,"refTime":"2022-12-02T06:00:00:Z","depth":0,"parameterNumber":2,"parameterNumberName":"U-component_of_WINDS"},"data":[0.0,0.0,0.0,0.0,0.0,0.0,0.0,0.0,0.0,0.0,0.0,0.0,0.0,0.0,0.0,0.0,0.0,0.0,0.0,0.0,0.0,0.0,0.0,0.0,0.0,0.0,0.0,0.0,0.0,0.0,0.0,0.0,0.0,0.0,0.0,0.0,0.0,0.0,0.0,0.0,0.0,0.0,0.0,0.0,0.0,0.0,0.0,0.0,0.0,0.0,0.0,0.0,0.0,0.0,0.0,0.0,0.0,0.0,0.0,0.0,0.0,0.0,0.0,0.0,0.0,0.0,0.0,0.0,0.0,0.0,0.0,0.0,0.0,0.0,0.0,0.0,0.0,0.0,0.0,0.0,0.0,0.0,0.0,0.0,0.0,0.0,0.0,0.0,0.0,0.0,0.0,0.0,0.0,0.0,0.0,0.0,0.0,0.0,0.0,0.0,0.0,0.0,0.0,0.0,0.0,0.0,0.0,0.0,0.0,0.0,0.0,0.0,0.0,0.0,0.0,0.0,0.0,0.0,0.0,0.0,0.0,0.0,0.0,0.0,0.0,0.0,0.0,0.0,0.0,0.0,0.0,0.0,0.0,0.0,0.0,0.0,0.0,0.0,0.0,0.0,0.0,0.0,0.0,0.0,0.0,0.0,0.0,0.0,0.0,0.0,0.0,0.0,0.0,0.0,0.0,0.0,0.0,0.0,0.0,0.0,0.0,0.0,0.0,0.0,0.0,0.0,0.0,0.0,0.0,0.0,0.0,0.0,0.0,0.0,0.0,0.0,0.0,0.0,0.0,0.0,0.0,0.0,0.0,0.0,0.0,0.0,0.0,0.0,0.0,0.0,0.0,0.0,0.0,0.0,0.0,0.0,0.0,0.0,0.0,0.0,0.0,0.0,0.0,0.0,0.0,0.0,0.0,0.0,0.0,0.0,0.0,0.0,0.0,0.0,0.0,0.0,0.0,0.0,0.0,0.0,0.0,0.0,0.0,0.0,0.0,0.0,0.0,0.0,0.0,0.0,0.0,0.0,0.0,0.0,0.0,0.0,0.0,0.0,0.0,0.0,0.0,0.0,0.0,0.0,0.0,0.0,0.0,0.0,0.0,0.0,0.0,0.0,0.0,0.0,0.0,0.0,0.0,0.0,0.0,0.0,0.0,0.0,0.0,0.0,0.0,0.0,0.0,0.0,0.0,0.0,0.0,0.0,0.0,0.0,0.0,0.0,0.0,0.0,0.0,0.0,0.0,0.0,0.0,0.0,0.0,0.0,0.0,0.0,0.0,0.0,0.0,0.0,0.0,0.0,0.0,0.0,0.0,0.0,0.0,0.0,0.0,0.0,0.0,0.0,0.0,0.0,0.0,0.0,0.0,0.0,0.0,0.0,0.0,0.0,0.0,0.0,0.0,0.0,0.0,0.0,0.0,0.0,0.0,0.0,0.0,0.0,0.0,0.0,0.0,0.0,0.0,0.0,0.0,0.0,0.0,0.0,0.0,0.0,0.0,0.0,0.0,0.0,0.0,0.0,0.0,0.0,0.0,0.0,0.0,0.0,0.0,0.0,0.0,0.0,0.0,0.0,0.0,0.0,0.0,0.0,0.0,0.0,0.0,0.0,0.0,0.0,0.0,0.0,0.0,0.0,0.0,0.0,0.0,0.0,0.0,0.0,0.0,0.0,0.0,0.0,0.0,0.0,0.0,0.0,0.0,0.0,0.0,0.0,0.0,0.0,0.0,0.0,0.0,0.0,0.0,0.0,0.0,0.0,0.0,0.0,0.0,0.0,0.0,0.0,0.0,0.0,0.0,0.0,0.0,0.0,0.0,0.0,0.0,0.0,0.0,0.0,0.0,0.0,0.0,0.0,0.0,0.0,0.0,0.0,0.0,0.0,0.0,0.0,0.0,0.0,0.0,0.0,0.0,0.0,0.0,0.0,0.0,0.0,0.0,0.0,0.0,0.0,0.0,0.0,0.0,0.0,0.0,0.0,0.0,0.0,0.0,0.0,0.0,0.0,0.0,0.0,0.0,0.0,0.0,0.0,0.0,0.0,0.0,0.0,0.0,0.0,0.0,0.0,0.0,0.0,0.0,0.0,0.0,0.0,0.0,0.0,0.0,0.0,0.0,0.0,0.0,0.0,0.0,0.0,0.0,0.0,0.0,0.0,0.0,0.0,0.0,0.0,0.0,0.0,0.0,0.0,0.0,0.0,0.0,0.0,0.0,0.0,0.0,0.0,0.0,0.0,0.0,0.0,0.0,0.0,0.0,0.0,0.0,0.0,0.0,0.0,0.0,0.0,0.0,0.0,0.0,0.0,0.0,0.0,0.0,0.0,0.0,0.0,0.0,0.0,0.0,0.0,0.0,0.0,0.0,0.0,0.0,0.0,0.0,0.0,0.0,0.0,0.0,0.0,0.0,0.0,0.0,0.0,0.0,0.0,0.0,0.0,0.0,0.0,0.0,0.0,0.0,0.0,0.0,0.0,0.0,0.0,0.0,0.0,0.0,0.0,0.0,0.0,0.0,0.0,0.0,0.0,0.0,0.0,0.0,0.0,0.0,0.0,0.0,0.0,0.0,0.0,0.0,0.0,0.0,0.0,0.0,0.0,0.0,0.0,0.0,0.0,0.0,0.0,0.0,0.0,0.0,0.0,0.0,0.0,0.0,0.0,0.0,0.0,0.0,0.0,0.0,0.0,0.0,0.0,0.0,0.0,0.0,0.0,0.0,0.0,0.0,0.0,0.0,0.0,0.0,0.0,0.0,0.0,0.0,0.0,0.0,0.0,0.0,0.0,0.0,0.0,0.0,0.0,0.0,0.0,0.0,0.0,0.0,0.0,0.0,0.0,0.0,0.0,0.0,0.0,0.0,0.0,0.0,0.0,0.0,0.0,0.0,0.0,0.0,0.0,0.0,0.0,0.0,0.0,0.0,0.0,0.0,0.0,0.0,0.0,0.0,0.0,0.0,0.0,0.0,0.0,0.0,0.0,0.0,0.0,0.0,0.0,0.0,0.0,0.0,0.0,0.0,0.0,0.0,0.0,0.0,0.0,0.0,0.0,0.0,0.0,0.0,0.0,0.0,0.0,0.0,0.0,0.0,0.0,0.0,0.0,0.0,0.0,0.0,0.0,0.0,0.0,0.0,0.0,0.0,0.0,0.0,0.0,0.0,0.0,0.0,0.0,0.0,0.0,0.0,0.0,0.0,0.0,0.0,0.0,0.0,0.0,0.0,0.0,0.0,0.0,0.0,0.0,0.0,0.0,0.0,0.0,0.0,0.0,0.0,0.0,0.0,0.0,0.0,0.0,0.0,0.0,0.0,0.0,0.0,0.0,0.0,0.0,0.0,0.0,0.0,0.0,0.0,0.0,0.0,0.0,0.0,0.0,0.0,0.0,0.0,0.0,0.0,0.0,0.0,0.0,0.0,0.0,0.0,0.0,0.0,0.0,0.0,0.0,0.0,0.0,0.0,0.0,0.0,0.0,0.0,0.0,0.0,0.0,0.0,0.0,0.0,0.0,0.0,0.0,0.0,0.0,0.0,0.0,0.0,0.0,0.0,0.0,0.0,0.0,0.0,0.0,0.0,0.0,0.0,0.0,0.0,0.0,0.0,0.0,0.0,0.0,0.0,0.0,0.0,0.0,0.0,0.0,0.0,0.0,0.0,0.0,0.0,0.0,0.0,0.0,0.0,0.0,0.0,0.0,0.0,0.0,0.0,0.0,0.0,0.0,0.0,0.0,0.0,0.0,0.0,0.0,0.0,0.0,0.0,0.0,0.0,0.0,0.0,0.0,0.0,0.0,0.0,0.0,0.0,0.0,0.0,0.0,0.0,0.0,0.0,0.0,0.0,0.0,0.0,0.0,0.0,0.0,0.0,0.0,0.0,0.0,0.0,0.0,0.0,0.0,0.0,0.0,0.0,0.0,0.0,0.0,0.0,0.0,0.0,0.0,0.0,0.0,0.0,0.0,0.0,0.0,0.0,0.0,0.0,0.0,0.0,0.0,0.0,0.0,0.0,0.0,0.0,0.0,0.0,0.0,0.0,0.0,0.0,0.0,0.0,0.0,0.0,0.0,0.0,0.0,0.0,0.0,0.0,0.0,0.0,0.0,0.0,0.0,0.0,0.0,0.0,0.0,0.0,0.0,0.0,0.0,0.0,0.0,0.0,0.0,0.0,0.0,0.0,0.0,0.0,0.0,0.0,0.0,0.0,0.0,0.0,0.0,0.0,0.0,0.0,0.0,0.0,0.0,0.0,0.0,0.0,0.0,0.0,0.0,0.0,0.0,0.0,0.0,0.0,0.0,0.0,0.0,0.0,0.0,0.0,0.0,0.0,0.0,0.0,0.0,0.0,0.0,0.0,0.0,0.0,0.0,0.0,0.0,0.0,0.0,0.0,0.0,0.0,0.0,0.0,0.0,0.0,0.0,0.0,0.0,0.0,0.0,0.0,0.0,0.0,0.0,0.0,0.0,0.0,0.0,0.0,0.0,0.0,0.0,0.0,0.0,0.0,0.0,0.0,0.0,0.0,0.0,0.0,0.0,0.0,0.0,0.0,0.0,0.0,0.0,0.0,0.0,0.0,0.0,0.0,0.0,0.0,0.0,0.0,0.0,0.0,0.0,0.0,0.0,0.0,0.0,0.0,0.0,0.0,0.0,0.0,0.0,0.0,0.0,0.0,0.0,0.0,0.0,0.0,0.0,0.0,0.0,0.0,0.0,0.0,0.0,0.0,0.0,0.0,0.0,0.0,0.0,0.0,0.0,0.0,0.0,0.0,0.0,0.0,0.0,0.0,0.0,0.0,0.0,0.0,0.0,0.0,0.0,0.0,0.0,0.0,0.0,0.0,0.0,0.0,0.0,0.0,0.0,0.0,0.0,0.0,0.0,0.0,0.0,0.0,0.0,0.0,0.0,0.0,0.0,0.0,0.0,0.0,0.0,0.0,0.0,0.0,0.0,0.0,0.0,0.0,0.0,0.0,0.0,0.0,0.0,0.0,0.0,0.0,0.0,0.0,0.0,0.0,0.0,0.0,0.0,0.0,0.0,0.0,0.0,0.0,0.0,0.0,0.0,0.0,0.0,0.0,0.0,0.0,0.0,0.0,0.0,0.0,0.0,0.0,0.0,0.0,0.0,0.0,0.0,0.0,0.0,0.0,0.0,0.0,0.0,0.0,0.0,0.0,0.0,0.0,0.0,0.0,0.0,0.0,0.0,0.0,0.0,0.0,0.0,0.0,0.0,0.0,0.0,0.0,0.0,0.0,0.0,0.0,0.0,0.0,0.0,0.0,0.0,0.0,0.0,0.0,0.0,0.0,0.0,0.0,0.0,0.0,0.0,0.0,0.0,0.0,0.0,0.0,0.0,0.0,0.0,0.0,0.0,0.0,0.0,0.0,0.0,0.0,0.0,0.0,0.0,0.0,0.0,0.0,0.0,0.0,0.0,0.0,0.0,0.0,0.0,0.0,0.0,0.0,0.0,0.0,0.0,0.0,0.0,0.0,0.0,0.0,0.0,0.0,0.0,0.0,0.0,0.0,0.0,0.0,0.0,0.0,0.0,0.0,0.0,0.0,0.0,0.0,0.0,0.0,0.0,0.0,0.0,0.0,0.0,0.0,0.0,0.0,0.0,0.0,0.0,0.0,0.0,0.0,0.0,0.0,0.0,0.0,0.0,0.0,0.0,0.0,0.0,0.0,0.0,0.0,0.0,0.0,0.0,0.0,0.0,0.0,0.0,0.0,0.0,0.0,0.0,0.0,0.0,0.0,0.0,0.0,0.0,0.0,0.0,0.0,0.0,0.0,0.0,0.0,0.0,0.0,0.0,0.0,0.0,0.0,0.0,0.0,0.0,0.0,0.0,0.0,0.0,0.0,0.0,0.0,0.0,0.0,0.0,0.0,0.0,0.0,0.0,0.0,0.0,0.0,0.0,0.0,0.0,0.0,0.0,0.0,0.0,0.0,0.0,0.0,0.0,0.0,0.0,0.0,0.0,0.0,0.0,0.0,0.0,0.0,0.0,0.0,0.0,0.0,0.0,0.0,0.0,0.0,0.0,0.0,0.0,0.0,0.0,0.0,0.0,0.0,0.0,0.0,0.0,0.0,0.0,-1.8911,0.0,0.0,0.0,0.0,0.0,0.0,0.0,0.0,0.0,0.0,0.0,0.0,0.0,0.0,0.0,0.0,0.0,0.0,0.0,0.0,0.0,0.0,0.0,0.0,-0.752,-0.655,-0.4937,-0.259,0.0,0.0,0.0,0.0,0.0,0.0,0.0,0.0,0.0,-1.2289,-1.7204,-1.4688,-1.4246,-1.5697,-1.2852,-0.9933,-0.6948,0.0,0.0,0.0,0.0,0.0,0.0,0.0,0.0,0.0,0.0,0.0,0.0,0.0,0.0,0.0,0.0,0.0,0.0,0.0,0.0,0.0,0.0,0.0,0.0,0.0,0.0,0.0,0.0,0.0,0.0,0.0,0.0,0.0,0.0,0.0,0.0,0.0,0.0,0.0,0.0,0.0,0.0,0.0,0.0,0.0,0.0,0.0,0.0,0.0,0.0,0.0,0.0,0.0,0.0,0.0,0.0,0.0,0.0,0.0,0.0,0.0,0.0,0.0,0.0,0.0,0.0,0.0,0.0,0.0,0.0,0.0,-2.0199,0.0,0.0,0.0,0.0,0.0,0.0,0.0,0.0,0.0,0.0,0.0,0.0,0.0,0.0,0.0,0.0,0.0,0.0,0.0,0.0,0.0,-0.8796,-0.752,-0.8709,-0.9228,-0.8312,-0.5359,-0.2902,-0.1424,-0.0771,0.0,0.0,0.0,0.0,-0.9086,-0.9518,-1.4329,-2.3844,-2.0269,-1.9073,-2.0045,-1.671,-1.4745,-1.3846,-1.0065,0.0,0.0,0.0,0.0,0.0,0.0,0.0,0.0,0.0,0.0,0.0,0.0,0.0,0.0,0.0,0.0,0.0,0.0,0.0,0.0,0.0,0.0,0.0,0.0,0.0,0.0,0.0,0.0,0.0,0.0,0.0,0.0,0.0,0.0,0.0,0.0,0.0,0.0,0.0,0.0,0.0,0.0,0.0,0.0,0.0,0.0,0.0,0.0,0.0,0.0,0.0,0.0,0.0,0.0,0.0,0.0,0.0,0.0,0.0,0.0,0.0,0.0,0.0,-2.4471,-2.5062,-2.5818,-2.5218,-2.5711,-2.693,-2.4385,-2.3996,-2.4913,-2.1664,0.0,0.0,0.0,0.0,0.0,0.0,0.0,0.0,0.0,0.0,0.0,0.0,0.0,0.0,0.0,0.0,0.0,0.0,0.0,-0.9063,-1.0676,-0.9651,-0.9459,-1.1005,-0.8984,-0.7334,-0.664,-0.3814,0.0,0.0,0.0,-0.026,-0.5638,-0.7175,-1.1242,-1.8016,-2.1111,-2.2319,-2.1784,-2.1756,-2.1686,-2.1338,-1.6525,-1.3082,-1.0764,0.0,0.0,0.0,0.0,0.0,0.0,0.0,0.0,0.0,0.0,0.0,0.0,0.0,0.0,0.0,0.0,0.0,0.0,0.0,0.0,0.0,0.0,0.0,0.0,0.0,0.0,0.0,0.0,0.0,0.0,0.0,0.0,0.0,0.0,0.0,0.0,0.0,0.0,0.0,0.0,0.0,-1.6934,-1.8051,0.0,0.0,0.0,0.0,0.0,0.0,0.0,0.0,0.0,0.0,0.0,0.0,0.0,-2.2262,-2.2754,-2.4872,-2.6086,-2.6404,-2.8539,-2.9116,-2.835,-2.8807,-2.8872,-2.8605,-2.8165,0.0,-2.5643,-2.3945,0.0,0.0,0.0,0.0,0.0,0.0,0.0,0.0,0.0,0.0,0.0,0.0,0.0,0.0,0.0,0.0,0.0,0.0,0.0,0.0,0.0,-1.2189,-1.2865,-1.4269,-1.3517,-1.1832,-0.9175,-0.6962,0.0,0.0,-0.1246,-0.1328,-0.3583,-0.9702,-1.5549,-2.0994,-2.4349,-2.5707,-2.5186,-2.5311,-2.5306,-2.506,-2.2342,-1.9283,-1.6106,-1.4402,0.0,0.0,0.0,0.0,0.0,0.0,0.0,0.0,0.0,0.0,0.0,0.0,0.0,0.0,0.0,0.0,0.0,0.0,0.0,0.0,0.0,0.0,0.0,0.0,0.0,0.0,0.0,0.0,0.0,0.0,0.0,0.0,0.0,0.0,0.0,0.0,0.0,0.0,0.0,-1.6145,-1.8061,-1.9103,-1.8646,-1.789,0.0,0.0,0.0,0.0,0.0,0.0,0.0,0.0,0.0,-2.3592,-2.4051,-2.5037,-2.6648,-2.7674,-2.841,-2.8882,-2.9896,-3.0189,-2.9813,-2.9956,-2.9964,-2.9853,-3.0181,-2.9643,-2.8368,-2.6202,-2.5053,-2.4461,0.0,0.0,0.0,0.0,-2.4279,-2.4434,0.0,0.0,0.0,0.0,0.0,0.0,0.0,0.0,0.0,0.0,0.0,0.0,-1.3298,-1.5011,-1.6458,-1.7395,-1.7282,-1.5881,-1.2837,-1.0627,-0.9102,-0.8355,-0.499,-0.3439,-0.4101,-1.3595,-2.0614,-2.4877,-2.7372,-2.8333,-2.7841,-2.7562,-2.7268,-2.6935,-2.6158,-2.403,-2.093,-1.9344,-1.5614,-1.0463,0.0,0.0,0.0,0.0,0.0,0.0,0.0,0.0,0.0,0.0,0.0,0.0,0.0,0.0,0.0,0.0,0.0,0.0,0.0,0.0,0.0,0.0,0.0,0.0,0.0,0.0,0.0,0.0,0.0,0.0,0.0,0.0,0.0,0.0,0.0,0.0,0.0,-1.7808,-1.9341,-2.0149,-2.0358,-1.9701,0.0,0.0,0.0,0.0,0.0,0.0,-2.3295,-2.396,-2.5024,-2.6557,-2.6575,-2.7604,-2.9804,-2.9896,-3.0293,-3.1002,-3.1278,-3.1265,-3.1089,-3.1057,-3.1004,-3.1047,-3.1737,-3.1884,-3.1423,-2.8697,-2.7729,-2.7855,-2.5959,-2.569,-2.6498,-2.7104,-2.7174,-2.7247,0.0,0.0,0.0,0.0,0.0,0.0,0.0,0.0,0.0,0.0,0.0,-1.4167,-1.6005,-1.7705,-1.9095,-2.0025,-1.9409,-1.9126,-1.9471,-1.5095,-1.1979,-1.0874,-0.6997,-0.6002,-0.8437,-1.7814,-2.3993,-2.668,-2.9027,-2.9625,-2.8547,-2.8206,-2.7746,-2.7181,-2.6792,-2.6105,-2.5014,-2.222,-1.9775,-1.7216,-1.0647,0.0,0.0,0.0,0.0,0.0,0.0,0.0,0.0,0.0,0.0,0.0,0.0,0.0,0.0,0.0,0.0,0.0,0.0,0.0,0.0,0.0,0.0,0.0,0.0,0.0,0.0,0.0,0.0,0.0,0.0,0.0,0.0,0.0,0.0,0.0,0.0,0.0,0.0,-2.1411,-2.2244,0.0,0.0,0.0,0.0,-2.1348,-2.3047,-2.4752,-2.6291,-2.701,-2.8,-2.9367,-2.9388,-2.9732,-3.0447,-3.1078,-3.1735,-3.2392,-3.3678,-3.362,-3.2437,-3.2964,-3.2849,-3.2168,-3.3242,-3.399,-3.4277,-3.1527,-3.0381,-3.0379,-3.0943,-3.1124,-3.1108,-3.1602,-3.1171,-3.0337,0.0,0.0,0.0,-0.6689,-0.6975,-0.728,-0.7501,-0.8704,-0.9761,-1.0262,-1.3677,-1.6333,-1.7099,-2.0215,-2.2376,-2.272,-2.2838,-2.2072,-2.0127,-1.7284,-1.5497,-1.5124,-1.2837,-1.4103,-1.9557,-2.2992,-2.6231,-2.9315,-3.01,-3.0261,-2.9808,-2.9349,-2.8885,-2.8401,-2.7753,-2.7173,-2.6531,-2.4769,-2.2543,-1.9906,-1.6929,-1.23,0.0,0.0,0.0,0.0,0.0,0.0,0.0,0.0,0.0,0.0,0.0,0.0,0.0,0.0,0.0,0.0,0.0,0.0,0.0,0.0,0.0,0.0,0.0,0.0,0.0,0.0,0.0,0.0,0.0,0.0,0.0,0.0,0.0,0.0,0.0,0.0,0.0,-2.2481,-2.2841,0.0,-2.0977,-2.159,-2.263,-2.3985,-2.5466,-2.6973,-2.8442,-2.9116,-2.9684,-3.0163,-3.1016,-3.1569,-3.1794,-3.2467,-3.3125,-3.3784,-3.4279,-3.4365,-3.4122,-3.471,-3.4742,-3.4312,-3.502,-3.5464,-3.5573,-3.4592,-3.3983,-3.3643,-3.3542,-3.3252,-3.284,-3.2982,-3.2821,-3.253,0.0,0.0,0.0,-0.6462,-0.6818,-0.7187,-0.7464,-0.8915,-1.0418,-1.1564,-1.5238,-1.8146,-1.9237,-2.2388,-2.4423,-2.4505,-2.4804,-2.4184,-2.2247,-1.967,-1.8348,-1.8672,-1.7575,-1.9693,-2.5563,-2.6245,-2.7922,-3.0769,-3.065,-3.0542,-3.0412,-2.9934,-2.9373,-2.878,-2.8174,-2.7589,-2.7049,-2.6298,-2.4628,-2.2377,-2.1116,-1.7247,-1.204,0.0,0.0,0.0,0.0,0.0,0.0,0.0,0.0,0.0,0.0,0.0,0.0,0.0,0.0,0.0,0.0,0.0,0.0,0.0,0.0,0.0,0.0,0.0,0.0,0.0,0.0,0.0,0.0,0.0,0.0,0.0,0.0,0.0,0.0,-2.1204,-2.2799,-2.345,-2.3616,-2.3382,-2.2644,-2.3165,-2.4297,-2.6043,-2.7212,-2.8678,-3.0558,-3.104,-3.1437,-3.1908,-3.2773,-3.323,-3.317,-3.3844,-3.4502,-3.5192,-3.5627,-3.5739,-3.5625,-3.6251,-3.6349,-3.6055,-3.6758,-3.7083,-3.7136,-3.77,-3.7599,-3.6988,-3.6062,-3.5642,-3.5516,-3.521,-3.4936,-3.4652,0.0,0.0,-0.6198,-0.6198,-0.6583,-0.7029,-0.7456,-0.8953,-1.1077,-1.3935,-1.6743,-1.9598,-2.2478,-2.4159,-2.5126,-2.5298,-2.5091,-2.5316,-2.6168,-2.2298,-2.0347,-2.1222,-2.0913,-2.2325,-2.5797,-2.7451,-2.9135,-3.0898,-3.0708,-3.0503,-3.0296,-2.9896,-2.9177,-2.8222,-2.7994,-2.7454,-2.6725,-2.6708,-2.6067,-2.4878,-2.2926,-2.1416,-1.9823,0.0,0.0,0.0,0.0,0.0,0.0,0.0,0.0,0.0,0.0,0.0,0.0,0.0,0.0,0.0,0.0,0.0,0.0,0.0,0.0,0.0,0.0,0.0,0.0,0.0,0.0,0.0,0.0,0.0,0.0,0.0,0.0,0.0,-2.1776,-2.2556,-2.3578,-2.4405,-2.4751,-2.4843,-2.476,-2.5148,-2.6022,-2.7446,-2.8267,-2.9879,-3.2633,-3.2812,-3.3407,-3.4747,-3.4767,-3.4725,-3.4595,-3.5252,-3.5893,-3.6552,-3.7793,-3.7851,-3.6893,-3.7555,-3.7674,-3.7353,-3.8428,-3.8885,-3.9006,-4.0692,-4.101,-4.0241,-3.8577,-3.8553,-3.9331,-3.8397,-3.7626,-3.6806,-0.6394,-0.6251,-0.6198,-0.6198,-0.6583,-0.7085,-0.7636,-0.9514,-1.1754,-1.4197,-1.7977,-2.1037,-2.2621,-2.4803,-2.5926,-2.5341,-2.4588,-2.4223,-2.4463,-2.1083,-2.0086,-2.2391,-2.595,-2.8378,-2.9453,-2.9921,-3.041,-3.0898,-3.0708,-3.0503,-3.0296,-2.9896,-2.9314,-2.8608,-2.8116,-2.7622,-2.7115,-2.6824,-2.6522,-2.6185,-2.5629,-2.3711,-2.1066,0.0,0.0,0.0,0.0,0.0,0.0,0.0,0.0,0.0,0.0,0.0,0.0,0.0,0.0,0.0,0.0,0.0,0.0,0.0,0.0,0.0,0.0,0.0,0.0,0.0,0.0,0.0,0.0,0.0,0.0,0.0,-2.2762,-2.4509,-2.3713,-2.5464,-2.6833,-2.6985,-2.6722,-2.6332,-2.5825,-2.5978,-2.6876,-2.8728,-3.0047,-3.1777,-3.4038,-3.5117,-3.5864,-3.6274,-3.6635,-3.6801,-3.6814,-3.6854,-3.721,-3.7868,-3.8227,-3.8489,-3.8728,-3.938,-3.9615,-3.9566,-4.037,-4.0692,-4.0707,-4.1219,-4.1265,-4.1085,-4.059,-4.0293,-4.0031,-3.9283,-3.8587,-3.8017,-0.6251,-0.613,-0.6079,-0.6079,-0.6442,-0.6983,-0.7686,-0.9739,-1.2238,-1.514,-1.8366,-2.1224,-2.3402,-2.4885,-2.5571,-2.5215,-2.4891,-2.4499,-2.3964,-2.2099,-2.2243,-2.5069,-2.8043,-3.0024,-3.0796,-3.0816,-3.0816,-3.0816,-3.0633,-3.0505,-3.042,-2.9932,-2.942,-2.8868,-2.7877,-2.7221,-2.682,-2.6397,-2.6234,-2.6268,-2.6573,-2.5496,-2.3614,-2.3003,-2.163,-1.9899,-1.9031,-1.8432,-1.8129,-1.8632,0.0,0.0,0.0,0.0,0.0,0.0,0.0,0.0,0.0,0.0,0.0,0.0,0.0,0.0,0.0,0.0,0.0,0.0,0.0,0.0,0.0,0.0,0.0,0.0,-2.5783,-2.7786,-2.7357,-2.8528,-2.9412,-2.9381,-2.8862,-2.8462,-2.8426,-2.8268,-2.8997,-3.1035,-3.229,-3.3846,-3.5983,-3.7148,-3.7898,-3.8219,-3.8432,-3.856,-3.8554,-3.8076,-3.8153,-3.8826,-3.8826,-3.917,-3.9843,-4.0232,-4.0711,-4.125,-4.1662,-4.1826,-4.1856,-4.2087,-4.2043,0.0,0.0,0.0,0.0,0.0,-3.9993,-3.9664,-0.613,-0.5979,-0.5874,-0.5918,-0.6265,-0.6827,-0.7701,-0.9839,-1.2674,-1.6329,-1.8356,-2.0838,-2.441,-2.4639,-2.4629,-2.4847,-2.5593,-2.557,-2.4466,-2.4557,-2.571,-2.8109,-2.8383,-2.918,-3.0675,-3.069,-3.0687,-3.0687,-3.0558,-3.0525,-3.0549,-2.9961,-2.9448,-2.8925,-2.7439,-2.656,-2.6115,-2.5811,-2.5641,-2.5676,-2.6436,-2.6741,-2.6488,-2.4509,-2.3765,-2.3511,-2.1485,-2.0258,-1.963,-1.9837,0.0,0.0,0.0,0.0,0.0,0.0,0.0,0.0,0.0,0.0,0.0,0.0,0.0,0.0,0.0,0.0,0.0,0.0,0.0,0.0,0.0,0.0,0.0,0.0,-2.9025,-3.1712,-3.1678,-3.1633,-3.159,-3.1456,-3.1054,-3.1041,-3.159,-3.1286,-3.1873,-3.3802,-3.4696,-3.6062,-3.8121,-3.8931,0.0,0.0,0.0,-4.0008,-3.9975,-3.899,-3.8811,-3.9388,-3.9499,-3.9828,-4.0412,-4.0561,-4.125,-4.2396,-4.247,-4.2515,-4.2545,-4.309,-4.2985,-4.2455,-4.1833,-4.1946,-4.2336,-4.1752,-4.1482,-4.1294,-0.5642,-0.5605,-0.5698,-0.6076,-0.6469,-0.704,-0.7907,-1.0531,-1.3466,-1.6409,-1.8975,-2.1613,-2.4499,-2.4768,-2.4549,-2.4066,-2.5393,-2.6232,-2.62,-2.696,-2.7665,-2.8188,-2.9491,-3.0364,-3.0695,-3.0655,-3.0625,-3.0625,-3.0545,-3.0424,-3.0281,-2.9874,-2.9194,-2.8257,-2.7241,-2.6379,-2.5658,-2.5959,-2.5908,-2.5675,-2.6759,-2.7004,-2.664,-2.6218,-2.6048,-2.5998,-2.5558,-2.5305,-2.5255,-2.588,-2.4377,-2.2386,-2.3004,-2.0936,0.0,0.0,0.0,0.0,0.0,0.0,0.0,0.0,0.0,0.0,0.0,0.0,0.0,0.0,0.0,0.0,0.0,0.0,0.0,-2.7018,-3.0113,-3.2766,-3.3817,-3.4455,-3.4208,-3.2542,-3.3272,-3.3535,-3.2552,-3.3407,-3.4383,-3.5325,-3.6625,-3.8074,-3.9605,-4.0378,-4.1391,-4.2739,-4.1417,-4.0976,-4.1565,-3.9986,-3.929,-3.9388,0.0,0.0,-4.0442,-4.1542,-4.2156,-4.2425,-4.291,-4.315,-4.315,-4.3245,-4.3215,-4.3095,-4.2961,-4.2716,-4.2381,-4.2246,-4.1871,-4.1369,-0.5502,-0.5605,-0.5808,-0.6147,-0.6558,-0.7138,-0.7971,-1.0208,-1.2795,-1.5541,-1.7795,-2.0101,-2.2617,-2.2656,-2.2412,-2.2161,-2.3593,-2.5324,-2.7275,-2.7901,-2.8575,-2.9413,-3.0249,-3.0675,-3.0609,-3.0565,-3.0559,-3.0559,-3.0486,-3.0423,-3.0341,-2.9909,-2.9398,-2.883,-2.7007,-2.5949,-2.5533,-2.5185,-2.4837,-2.4591,-2.5702,-2.5935,-2.5692,-2.642,-2.6691,-2.6691,-2.6691,-2.6691,-2.6759,-2.7131,-2.6268,-2.5118,-2.5489,-2.3945,-2.1571,0.0,0.0,0.0,0.0,0.0,0.0,0.0,0.0,0.0,0.0,0.0,0.0,0.0,0.0,-1.9606,-2.1719,0.0,-2.7922,-2.8941,-3.163,-3.3828,-3.4502,-3.5566,-3.5608,-3.3803,-3.4903,-3.5377,-3.4304,-3.5535,-3.6672,-3.7302,-3.8758,-3.991,-4.0602,-4.1694,-4.2632,-4.3375,-4.2565,-4.2071,-4.1997,-4.0706,-3.9995,-3.9903,-4.0247,-4.0741,-4.1399,-4.2096,-4.2575,-4.2865,-4.3155,-4.329,-4.329,-4.329,-4.329,-4.329,-4.329,-4.294,-4.2396,-4.2396,-4.2186,-4.1916,-0.5633,-0.5854,-0.6097,-0.6303,-0.673,-0.7313,-0.8048,-0.979,-1.1928,-1.4488,-1.6399,-1.8306,-2.0404,-2.0226,-2.0206,-2.0826,-2.1698,-2.3961,-2.8089,-2.8265,-2.8946,-3.0636,-3.0687,-3.0614,-3.0503,-3.0495,-3.0482,-3.0482,-3.0428,-3.0398,-3.0399,-2.9916,-2.9584,-2.9287,-2.6733,-2.5552,-2.5399,-2.4401,-2.3798,-2.359,-2.4683,-2.4861,-2.4626,-2.5828,-2.6353,-2.6488,-2.6488,-2.6573,-2.6691,-2.6691,-2.6641,-2.659,-2.6674,-2.6038,-2.4871,-2.2867,-2.163,0.0,0.0,0.0,0.0,0.0,0.0,0.0,0.0,-1.3191,-1.4122,-1.7153,-1.9336,-2.1486,-2.4024,-2.7055,-2.9586,-3.0789,-3.3129,-3.483,-3.4931,-3.6024,-3.6386,-3.5285,-3.6372,-3.699,-3.6405,-3.7577,-3.8612,-3.9106,-4.0419,-4.1271,-4.1407,-4.2692,-4.346,-4.3639,-4.344,-4.2939,-4.2252,-4.1213,-4.0681,-4.0639,-4.0591,-4.1205,-4.2396,-4.253,-4.2836,-4.329,-4.329,-4.329,-4.329,-4.329,-4.3364,-4.3469,-4.3349,-4.309,-4.277,-4.2635,-4.259,-4.259,-0.6085,-0.6341,-0.6592,-0.6789,-0.7262,-0.7786,-0.8286,-1.0111,-1.2103,-1.3966,-1.6181,-1.8027,-1.9197,-1.9207,-1.9963,-2.2017,-2.1146,-2.2972,-2.8877,-2.8588,-2.8942,-3.0636,-3.0631,-3.0575,-3.0503,-3.0441,-3.0408,-3.0408,-3.039,-3.0279,-3.0044,-2.9813,-2.9184,-2.8193,-2.641,-2.5379,-2.4953,-2.4508,-2.4151,-2.394,-2.5015,-2.5052,-2.4508,-2.4677,-2.5151,-2.5711,-2.5711,-2.615,-2.6691,-2.6691,-2.6419,-2.6156,-2.6573,-2.6336,-2.5927,-2.6034,-2.458,-2.2274,-1.94,-1.5281,-1.2092,-1.332,-1.302,-1.3248,0.0,-1.6528,-1.7043,-2.0822,-2.2302,-2.3972,-2.7406,-2.981,-3.1518,-3.2253,-3.4129,-3.5655,-3.6126,-3.6541,-3.6888,-3.7145,-3.8101,-3.8713,-3.8639,-3.9387,-3.9893,-3.9952,-4.0713,-4.1491,-4.2134,-4.2963,-4.3741,-4.4445,-4.3706,-4.3246,-4.3155,-4.1528,-4.0978,-4.1549,-4.136,-4.1692,-4.2425,-4.2955,-4.323,-4.329,-4.329,-4.329,-4.329,-4.329,-4.3633,-4.4152,-4.3529,-4.3604,-4.4032,-4.3434,-4.3185,-4.3185,-0.657,-0.6912,-0.7199,-0.7286,-0.7487,-0.7817,-0.8322,-0.9563,-1.094,-1.2293,-1.3768,-1.5011,-1.5859,-1.5657,-1.635,-1.8603,-1.9615,-2.2143,-2.6887,-2.8251,-2.9212,-2.9914,-2.9842,-2.9745,-2.9679,-2.9655,-2.964,-2.964,-2.9998,-2.9874,-2.9294,-2.9462,-2.9288,-2.8778,-2.6779,-2.5775,-2.5526,-2.4453,-2.369,-2.3258,-2.3902,-2.3789,-2.3274,-2.3712,-2.4118,-2.4646,-2.5815,-2.6437,0.0,-2.6886,-2.6786,-2.6539,-2.6003,-2.5318,-2.4777,-2.4995,-2.4064,-2.2488,-2.0233,-1.6905,-1.4191,-1.4678,-1.4573,-1.4735,-1.6427,-1.7246,-1.8492,-2.1312,-2.3311,-2.5355,-2.804,-3.0223,-3.1967,-3.2997,-3.4545,-3.5941,-3.6963,-3.6925,-3.7433,-3.9151,-3.9413,-3.933,-3.9037,-3.9673,-4.0282,-4.0696,-4.1424,-4.2151,-4.2912,-4.3673,-4.4248,-4.4598,-4.4253,-4.3814,-4.3306,-4.302,-4.266,-4.2277,-4.2631,-4.2849,-4.294,-4.317,-4.329,-4.329,-4.329,-4.329,-4.3319,-4.3708,-4.4062,-4.4287,-4.4003,-4.4062,-4.4242,-4.3544,-4.329,-4.321,-0.7048,-0.737,-0.762,-0.7672,-0.7687,-0.7841,-0.8322,-0.8987,-0.9811,-1.0875,-1.1705,-1.2422,-1.3025,-1.2592,-1.3137,-1.531,-1.7669,-2.0676,-2.4598,-2.702,-2.841,-2.864,-2.8787,-2.8728,-2.8415,-2.8646,-2.878,-2.878,-2.8925,-2.8772,-2.8365,-2.8369,-2.86,-2.887,-2.6968,-2.6156,-2.6134,-2.4657,-2.3565,-2.286,-2.3105,-2.2849,-2.2333,-2.2752,-2.288,-2.3093,-2.4994,-2.5681,-2.5714,-2.5517,-2.5388,-2.5127,-2.434,-2.3526,-2.3045,-2.3819,-2.3058,-2.1466,-1.9257,-1.7167,-1.5542,-1.5264,-1.5679,-1.6272,-1.6856,-1.7929,-1.9463,-2.1868,-2.3774,-2.5868,-2.8591,-3.0456,-3.2086,-3.363,-3.4856,-3.6043,-3.7378,-3.7302,-3.7917,-4.0169,-4.0219,-3.9963,-3.9559,-4.0012,-4.0643,-4.1426,-4.1995,-4.2688,-4.3632,-4.4241,-4.4615,-4.4615,-4.4615,-4.4298,-4.3651,-4.4167,-4.3929,-4.3071,-4.3562,-4.3608,-4.329,-4.329,-4.329,-4.329,-4.329,-4.3394,-4.3604,-4.4122,-4.4421,-4.4571,-4.4392,-4.4317,-4.4186,-4.3178,-4.282,-4.2725,-0.7484,-0.7583,-0.7665,-0.7863,-0.7892,-0.7998,-0.8357,-0.8583,-0.9119,-1.0192,-1.0811,-1.1254,-1.1544,-1.1031,-1.1516,-1.3584,-1.5323,-1.8206,-2.269,-2.4571,-2.5903,-2.6752,-2.7594,-2.7611,-2.6697,-2.7505,-2.7934,-2.7934,-2.6985,-2.675,-2.7223,-2.6264,-2.6534,-2.7798,-2.6611,-2.6277,-2.6507,-2.535,-2.421,-2.3177,-2.3189,-2.2849,-2.2254,-2.1811,-2.1248,-2.091,-2.2457,-2.3145,-2.3116,-2.1811,-2.1086,-2.0773,-2.1183,-2.099,-2.1111,-2.3716,-2.2253,-1.9123,-1.6083,-1.5051,-1.481,-1.4745,-1.6327,-1.8166,-1.9015,-1.9236,-2.019,-2.3372,-2.4094,-2.5452,-2.976,-3.1105,-3.2264,-3.424,-3.5144,-3.606,-3.7314,-3.7718,-3.8323,-3.9571,-4.0412,-4.0845,-4.0845,-4.0862,-4.1226,-4.2087,-4.2262,-4.2909,-4.4291,-4.4524,-4.4615,-4.4615,-4.4615,-4.4587,-4.4542,-4.4454,-4.425,-4.3958,-4.3834,-4.3608,-4.329,-4.329,-4.329,-4.329,-4.329,-4.3663,-4.4287,-4.4302,-4.4691,-4.52,-4.4556,-4.4317,-4.409,-4.2303,-4.1629,-4.1629,-0.9057,-0.8622,-0.8218,-0.8283,-0.7965,-0.7768,-0.7975,-0.8361,-0.8798,-0.9242,-0.9656,0.0,0.0,0.0,0.0,0.0,-1.4822,-1.7627,-2.0952,-2.3783,-2.5255,-2.5046,-2.58,-2.5803,-2.4952,-2.5221,-2.5375,-2.5375,-2.5355,-2.5409,-2.5544,-2.5512,-2.6035,-2.695,-2.6051,-2.5696,-2.5713,-2.4257,-2.3476,-2.3112,-2.2085,-2.1932,-2.2391,-2.3259,-2.1905,-1.9684,0.0,-2.1295,-2.1229,-2.091,-2.0699,-2.0483,-1.9969,-1.9086,-1.8263,-1.8411,-1.8284,-1.7861,-1.6781,-1.6097,-1.5988,-1.7406,-1.8695,-1.9814,-2.0681,-2.1711,-2.2916,-2.4494,-2.6004,-2.7879,-3.0744,-3.2167,-3.3449,-3.5017,-3.5891,-3.6831,-3.8122,-3.8493,-3.9245,-4.0902,-4.1332,-4.149,-4.149,-4.149,-4.2057,-4.3358,-4.311,-4.3545,-4.5061,-4.4797,-4.4615,-4.4615,-4.4615,-4.4615,-4.4615,-4.5021,-4.4615,-4.3339,-4.2998,-4.302,-4.329,-4.329,-4.329,-4.329,-4.329,-4.3663,-4.4347,-4.4781,-4.5095,-4.5274,-4.505,-4.446,-4.357,-4.2536,-4.1374,-4.0287,-0.9677,-0.913,-0.8583,-0.8393,-0.8091,0.0,0.0,0.0,0.0,0.0,0.0,0.0,0.0,0.0,0.0,0.0,0.0,-1.6067,-1.9133,-2.1626,-2.3159,-2.3577,-2.4072,-2.4076,-2.3534,-2.3602,-2.4086,-2.499,-2.4258,-2.4507,-2.5605,-2.4884,-2.5136,-2.6153,-2.5631,-2.5393,-2.5319,-2.43,-2.4177,-2.4474,-2.2223,-2.1971,-2.2928,-2.2667,-2.0453,0.0,-1.7969,-1.7531,-1.6886,-1.7448,-1.77,-1.7743,-1.7321,-1.6849,-1.6261,-1.5086,-1.5611,-1.6503,-1.6359,-1.6427,-1.6982,-1.8761,-2.004,-2.1159,-2.2298,-2.3356,-2.4451,-2.5721,-2.6898,-2.8513,-3.1051,-3.2236,-3.3433,-3.5313,-3.6452,-3.7495,-3.8631,-3.9076,-3.9753,-4.104,-4.1358,-4.1556,-4.1789,-4.181,-4.2448,-4.3965,-4.3545,-4.3875,-4.5425,-4.4934,-4.4615,-4.4615,-4.4615,-4.4615,-4.4615,-4.5331,-4.5042,-4.3738,-4.2821,-4.2701,-4.329,-4.329,-4.329,-4.329,-4.329,-4.3838,-4.4691,-4.5125,-4.5439,-4.5663,-4.5663,-4.4724,-4.3285,-4.2449,-4.1168,-3.9688,-0.9441,-0.9184,-0.8761,0.0,0.0,0.0,0.0,0.0,0.0,0.0,0.0,0.0,0.0,0.0,0.0,0.0,0.0,0.0,-1.7079,-1.8195,-1.9764,-2.2114,-2.2356,-2.2413,-2.2342,-2.2537,-2.3837,-2.6259,-2.3505,-2.3809,-2.6915,-2.4159,-2.3712,-2.5209,-2.5209,-2.5209,-2.5209,-2.5172,-2.587,-2.67,-2.326,-2.2664,-2.3484,-2.0162,-1.7184,-1.4673,-1.4114,-1.2411,-1.0614,-1.1834,-1.2512,-1.2955,-1.3574,-1.4484,-1.5125,-1.3991,-1.4406,-1.518,-1.4874,-1.6105,-1.7779,-1.8903,-2.0545,-2.2298,-2.3948,-2.4336,-2.497,-2.7018,-2.6915,-2.7425,-3.0593,-3.1313,-3.2325,-3.4986,-3.6668,-3.7961,-3.8846,-3.9478,-3.991,-4.0086,-4.0577,-4.1133,-4.1686,-4.1789,-4.2408,-4.3907,-4.3504,-4.3875,-4.5373,-4.4917,-4.4615,-4.4615,-4.4615,-4.4615,-4.4615,-4.5194,-4.5348,-4.5032,-4.3225,-4.2671,-4.329,-4.329,-4.329,-4.329,-4.329,-4.4077,-4.5289,-4.5289,-4.5708,-4.6279,-4.6279,-4.5093,-4.3196,-4.2144,-4.0902,-3.9777,0.0,0.0,0.0,0.0,0.0,0.0,0.0,0.0,0.0,0.0,0.0,0.0,0.0,0.0,0.0,0.0,0.0,0.0,-1.3299,-1.592,-1.7699,-1.8222,-1.9618,-2.0314,-2.0189,-2.0446,-2.0885,-2.1523,-2.0703,-2.1033,-2.2443,-2.1551,-2.1712,-2.2712,-2.2712,-2.2712,-2.2675,-2.2024,-2.2163,-2.2589,-1.9787,-1.9421,-2.0413,-1.9378,-1.6926,-1.417,-1.5162,-1.2906,-0.9681,-1.1145,-1.2439,-1.3617,-1.4434,-1.4643,-1.4585,-1.457,-1.5205,-1.5971,-1.6156,-1.7471,-1.9287,-2.1241,-2.2972,-2.4706,-2.6829,-2.7705,-2.8067,-2.8074,-2.8283,-2.8375,-2.8112,-3.0242,-3.2239,-3.2756,-3.5976,-3.849,-3.8687,-3.9801,-4.0479,-4.0137,-4.0577,-4.0972,-4.111,-4.1534,-4.2022,-4.2567,-4.2978,-4.3633,-4.4618,-4.4626,-4.4615,-4.4615,-4.4615,-4.4615,-4.4615,-4.3501,-4.3396,-4.4263,-4.2484,-4.2222,-4.329,-4.329,-4.329,-4.329,-4.329,-4.4077,-4.5289,-4.5289,-4.5708,-4.6279,-4.6279,-4.4821,-4.2679,-4.2417,-4.1208,-3.9753,0.0,0.0,0.0,0.0,0.0,0.0,0.0,0.0,0.0,0.0,0.0,0.0,0.0,0.0,0.0,0.0,0.0,0.0,0.0,-1.304,-1.4684,-1.5786,-1.7013,-1.7875,-1.8347,-1.852,-1.931,-2.0766,-1.9213,-1.9339,-2.0979,-1.9455,-1.8978,-1.9408,-1.9815,-2.0029,-2.0087,-1.9935,-2.0723,0.0,0.0,-1.8355,-1.944,-1.7878,-1.5505,-1.3134,-1.4066,-1.2542,-1.0205,-1.0877,-1.1974,-1.3173,-1.3706,-1.3808,-1.3891,-1.4619,-1.5552,-1.6425,-1.6876,-1.8699,-2.0894,-2.2727,-2.4599,-2.6203,-2.7175,-2.776,-2.7757,-2.6491,-2.6596,-2.6702,-2.5976,-2.8839,-3.1453,-3.1842,-3.5952,-3.9186,-3.945,-4.0539,-4.1105,-4.0521,-4.0726,-4.0903,-4.0903,-4.1201,-4.1595,-4.2064,-4.2777,-4.3421,-4.3941,-4.4378,-4.4615,-4.4615,-4.4615,-4.4615,-4.4615,-4.3259,-4.3057,-4.3992,-4.2608,-4.2448,-4.329,-4.329,-4.329,-4.329,-4.329,-4.3873,-4.4885,-4.517,-4.5708,-4.6309,-4.6636,-4.5197,-4.2946,-4.2946,-4.1559,-3.9788,0.0,0.0,0.0,0.0,0.0,0.0,0.0,0.0,0.0,-0.9564,-0.8739,-0.8161,-0.8158,-0.8093,0.0,0.0,0.0,0.0,0.0,0.0,-1.1448,-1.3905,-1.4648,-1.5555,-1.6718,-1.6952,-1.8465,-2.1318,-1.8383,-1.8187,-2.0464,-1.7651,-1.6271,-1.6193,-1.699,-1.7505,-1.7772,-1.8475,-2.0085,-2.1888,-1.8537,-1.8048,-1.901,0.0,-1.3719,-1.2132,-1.2095,-1.183,-1.1439,-1.0985,-1.1594,-1.2559,-1.263,-1.2953,-1.3566,-1.4753,-1.5833,-1.6742,-1.7431,-1.9658,-2.2144,-2.3606,-2.5621,-2.706,-2.6531,-2.6589,-2.6152,-2.4097,-2.3764,-2.3916,-2.4216,-2.725,-3.0185,-3.1498,-3.6107,-3.9775,-4.0456,-4.1283,-4.1578,-4.0972,-4.085,-4.0803,-4.0803,-4.0803,-4.1108,-4.1937,-4.2654,-4.3177,-4.3369,-4.4147,-4.4615,-4.4615,-4.4615,-4.4615,-4.4615,-4.3756,-4.3596,-4.4161,-4.3161,-4.298,-4.3472,-4.3369,-4.329,-4.329,-4.329,-4.3663,-4.4362,-4.502,-4.5708,-4.6396,-4.7055,-4.5824,-4.374,-4.374,-4.2266,-4.0351,0.0,0.0,0.0,0.0,0.0,0.0,0.0,0.0,0.0,0.0,-1.0762,-0.8244,0.0,0.0,0.0,0.0,0.0,0.0,0.0,0.0,0.0,-1.0913,-1.2949,-1.4488,-1.5404,-1.6413,-1.7202,-1.7775,-1.7034,-1.6609,-1.6485,-1.5764,-1.541,-1.5403,-1.5553,-1.6083,-1.6827,-1.6971,-1.7387,-1.7815,-1.6186,-1.5701,-1.5786,-1.4264,0.0,0.0,-1.1797,-1.1746,-1.2062,-1.1587,-1.2487,-1.3811,-1.3875,-1.4382,-1.5213,-1.6437,-1.6917,-1.7311,-1.8367,-1.9856,-2.1783,-2.4324,-2.6129,-2.7416,-2.789,-2.7993,-2.724,-2.4571,-2.3422,-2.2945,-2.3003,-2.5673,-2.8502,-3.0422,-3.5499,-3.9445,-4.0163,-4.1154,-4.1578,-4.0972,-4.0521,-4.0254,-4.0254,-4.0254,-4.0535,-4.1316,-4.2047,-4.2741,-4.3386,-4.4147,-4.4615,-4.4615,-4.4615,-4.4615,-4.4615,-4.3756,-4.3922,-4.5145,-4.3494,-4.3349,-4.451,-4.3669,-4.329,-4.329,-4.329,0.0,-4.4362,-4.502,-4.5708,-4.6396,-4.7055,-4.6403,-4.507,-4.507,-4.4116,-4.2814,0.0,0.0,0.0,0.0,0.0,0.0,0.0,-1.448,-1.5749,-1.7888,-1.4437,-1.1111,-0.9316,-0.6891,-0.5069,0.0,0.0,0.0,0.0,0.0,0.0,-0.9262,-1.1226,-1.2811,-1.3877,-1.4954,-1.5678,-1.6075,0.0,-1.4344,-1.4185,-1.3163,-1.2711,-1.2774,-1.3265,-1.3848,-1.4506,-1.4984,-1.531,-1.5435,-1.4857,-1.457,-1.4402,-1.3749,0.0,0.0,-1.1631,-1.1826,-1.2346,-1.16,-1.3006,-1.5038,-1.484,-1.5051,-1.5623,-1.6991,-1.7682,-1.812,-1.881,-2.031,-2.2233,-2.4573,-2.6468,-2.7445,-2.6233,-2.6399,-2.5695,-2.1836,-2.1201,-2.1192,-2.0654,-2.4082,-2.7398,-2.8672,-3.4287,-3.8828,-3.9904,-4.1053,-4.1686,-4.1402,-4.085,-4.0417,-4.0121,-4.0343,-4.087,-4.1704,-4.21,-4.2625,-4.3341,-4.4147,-4.4615,-4.4615,-4.4615,-4.4615,-4.4615,-4.4196,-4.4441,-4.5368,-4.4026,-4.3897,-4.4774,-4.3771,-4.329,-4.329,-4.329,-4.3469,-4.3843,-4.4885,-4.5484,-4.5888,-4.6905,-4.6535,-4.5403,-4.5403,-4.4383,-4.3039,0.0,0.0,0.0,0.0,0.0,0.0,0.0,-1.8233,-1.9579,-2.1906,-1.8235,-1.4451,-1.199,-0.7576,-0.434,0.0,0.0,0.0,0.0,0.0,0.0,0.0,0.0,0.0,-1.2782,0.0,0.0,-1.5128,-1.3514,0.0,0.0,0.0,0.0,0.0,-1.1622,-1.2243,-1.2717,-1.3506,-1.3955,0.0,0.0,-1.3976,-1.3827,0.0,0.0,0.0,0.0,-1.1917,-1.2183,-1.1582,-1.3124,-1.5329,-1.5322,-1.5627,-1.6254,-1.749,-1.8355,-1.8985,-1.9344,-2.0887,-2.2808,-2.4704,-2.6844,-2.7637,-2.4493,-2.4694,-2.4183,-1.9359,-1.9111,-1.9702,-1.9471,-2.2876,-2.6271,-2.7887,-3.3136,-3.764,-3.9449,-4.0771,-4.1552,-4.1603,-4.1201,-4.0703,-4.0146,-4.0577,-4.1274,-4.2221,-4.2591,-4.3047,-4.3639,-4.4248,-4.4615,-4.4615,-4.4615,-4.4615,-4.4615,-4.4615,-4.4963,-4.5684,-4.4527,-4.4395,-4.5042,-4.3834,-4.329,-4.329,-4.329,-4.329,-4.3394,-4.4751,-4.5289,-4.5424,-4.6785,-4.6682,-4.5809,-4.5634,-4.4645,-4.3406,0.0,0.0,0.0,0.0,0.0,0.0,0.0,-2.0262,-2.3024,-2.55,-2.1021,-1.6868,-1.4923,-0.8193,-0.3378,0.0,0.0,0.0,0.0,0.0,0.0,0.0,0.0,0.0,0.0,0.0,0.0,-1.4574,-1.4029,0.0,0.0,0.0,0.0,0.0,0.0,-1.2627,-1.3243,-1.3512,0.0,0.0,0.0,0.0,0.0,0.0,0.0,0.0,0.0,-1.1951,-1.1348,-1.1974,-1.2627,-1.3429,-1.4846,-1.6683,-1.8357,-1.8546,-1.9087,-1.9758,-2.0378,-2.154,-2.303,-2.4984,-2.7443,-2.8444,-2.4879,-2.5089,-2.4673,-1.9901,-1.8824,-1.9425,-2.1637,-2.2548,-2.4642,-2.9741,-3.2593,-3.5327,-3.8612,-4.0019,-4.0781,-4.0954,-4.0926,-4.0703,-4.0146,-4.0577,-4.1274,-4.2221,-4.3616,-4.4429,-4.4496,-4.4564,-4.4615,-4.4615,-4.4615,-4.4615,-4.4615,-4.4615,-4.5285,-4.665,-4.487,-4.4726,-4.6012,-4.4151,-4.329,-4.329,-4.329,-4.329,0.0,-4.4751,-4.5289,-4.5424,-4.6785,-4.7207,-4.7046,-4.645,-4.6096,-4.5773,0.0,0.0,0.0,0.0,0.0,0.0,-2.0239,-2.1506,-2.3307,-2.7338,-2.2444,-1.8119,-1.6955,-1.0474,-0.5137,-0.2579,0.0,0.0,0.0,0.0,0.0,0.0,0.0,0.0,0.0,0.0,-1.4493,-1.4493,-1.393,0.0,0.0,0.0,0.0,0.0,0.0,-1.262,-1.2893,-1.3099,0.0,0.0,0.0,0.0,0.0,0.0,0.0,0.0,0.0,0.0,-1.2347,-1.2668,-1.3689,-1.4936,-1.5581,-1.7377,-1.9205,-1.8848,-1.9532,-2.0564,-2.1562,-2.2219,-2.3165,-2.5514,-2.7129,-2.7248,-2.4006,-2.4144,-2.3776,-1.9616,-1.8904,-1.9484,-2.0971,-2.1726,-2.3633,-2.8281,-3.0906,-3.3336,-3.6197,-3.8364,-3.9548,-3.9298,-4.0135,-4.0572,-4.0145,-4.0577,-4.1274,-4.2221,-4.3735,-4.4615,-4.4615,-4.4615,-4.4615,-4.4615,-4.4615,-4.4615,-4.4615,-4.4615,-4.5359,-4.6786,-4.5479,-4.5303,-4.6138,-4.4818,-4.3888,-4.329,-4.329,-4.329,0.0,-4.4751,-4.5289,-4.5424,-4.6785,-4.7055,-4.6681,-4.6384,-4.5771,-4.5035,0.0,0.0,0.0,0.0,0.0,-1.5823,-2.1514,-2.239,-2.3743,-2.7402,-2.3237,-1.9322,-1.7848,-1.1877,-0.7017,-0.4583,-0.4446,0.0,0.0,0.0,0.0,0.0,0.0,0.0,0.0,0.0,-1.4622,-1.4842,-1.4324,-1.4019,0.0,0.0,-1.2959,-1.2601,0.0,0.0,0.0,0.0,0.0,0.0,0.0,0.0,0.0,0.0,0.0,0.0,0.0,0.0,0.0,0.0,0.0,-1.5606,-1.5606,-1.7205,-1.9151,-1.9346,-2.005,-2.1106,-2.2495,-2.3041,-2.3715,-2.5928,-2.7285,-2.7218,-2.3755,-2.372,-2.3308,-1.9401,-1.893,-1.9476,-2.0329,-2.0996,-2.2822,-2.709,-2.923,-3.1536,-3.4984,-3.7089,-3.8348,-3.853,-3.9711,-4.0419,-4.0253,-4.1067,-4.1773,-4.2255,-4.3735,-4.4615,-4.4615,-4.4615,-4.4615,-4.4615,-4.4615,-4.4615,-4.4615,-4.4615,-4.5359,-4.6786,-4.5839,-4.5685,-4.6173,-4.5227,-4.4259,-4.329,-4.329,-4.329,0.0,-4.4751,-4.5289,-4.5409,-4.6561,-4.6741,-4.6234,-4.5831,-4.5125,-4.4287,0.0,0.0,0.0,0.0,0.0,0.0,-2.004,-2.3013,-2.4951,-2.5479,-2.344,-2.0685,-1.7279,-1.1858,-0.8507,-0.8538,-0.6905,0.0,0.0,0.0,0.0,0.0,0.0,0.0,0.0,0.0,-1.4879,-1.5698,-1.5483,-1.5275,-1.5066,-1.4666,-1.3801,-1.2601,0.0,0.0,0.0,0.0,0.0,0.0,0.0,0.0,0.0,0.0,0.0,0.0,0.0,0.0,0.0,0.0,0.0,0.0,0.0,-1.5938,-1.8118,-2.0173,-2.0786,-2.1208,-2.308,-2.406,-2.4878,-2.6093,-2.8343,-2.9116,-2.4602,-2.4268,-2.3694,-1.9477,-1.8807,-1.9304,-2.0305,-2.0511,-2.2107,-2.6998,-2.7824,-2.9886,-3.577,-3.6603,-3.7309,-3.9168,-3.9866,-4.0321,-4.0568,-4.2155,-4.2943,-4.2339,-4.3735,-4.4615,-4.4615,-4.4615,-4.4615,-4.4615,-4.4615,-4.4615,-4.4615,-4.4615,-4.5359,-4.6786,-4.5839,-4.5685,-4.6173,-4.5227,-4.4259,-4.329,-4.329,-4.329,0.0,-4.4751,-4.5289,-4.5364,-4.6067,-4.6337,-4.6115,-4.4825,-4.4332,-4.4227,0.0,0.0,0.0,0.0,0.0,0.0,0.0,-1.8533,-1.9676,-2.1746,-1.9375,-1.7295,-1.6753,-1.2491,-0.9789,-1.0076,-0.7829,0.0,0.0,0.0,0.0,0.0,0.0,0.0,0.0,-1.4739,-1.5986,-1.7344,-1.7748,-1.8057,-1.8278,-1.701,-1.5598,-1.4052,-1.3053,-1.223,0.0,0.0,0.0,0.0,0.0,0.0,0.0,0.0,0.0,0.0,0.0,0.0,0.0,0.0,0.0,0.0,0.0,0.0,0.0,-1.8987,-2.0349,-2.1543,-2.2152,-2.2956,-2.3755,-2.4158,-2.5382,-2.5702,-2.2785,-2.2769,-2.2487,-1.9258,-1.8807,-1.9314,-2.0305,-2.0052,-2.1639,-2.7658,-2.8154,-2.9612,-3.4787,-3.696,-3.8092,-3.8277,-4.0055,-4.1339,-4.1421,-4.2044,-4.241,-4.2306,-4.3217,-4.4012,-4.4581,-4.4615,-4.4615,-4.4615,-4.4615,-4.4615,-4.4615,-4.4615,-4.5359,-4.6802,-4.6484,-4.6301,-4.6173,-4.5905,-4.4878,-4.329,-4.329,-4.3544,-4.4062,-4.4945,-4.5289,-4.5364,-4.6052,-4.5753,-4.49,-4.4466,-4.3992,-4.3574,0.0,0.0,0.0,0.0,0.0,0.0,0.0,-1.5967,-1.6592,-1.8192,-1.6379,-1.5089,-1.5437,-1.2031,-0.9998,-1.0747,-0.8618,0.0,0.0,0.0,0.0,0.0,0.0,0.0,-1.3825,-1.4995,-1.6826,-1.9354,-1.9865,-2.0545,-2.1317,-2.0017,-1.7983,-1.5386,-1.4245,-1.2827,0.0,0.0,0.0,0.0,0.0,0.0,-1.2279,0.0,0.0,0.0,0.0,0.0,0.0,0.0,0.0,0.0,0.0,0.0,0.0,0.0,-1.9482,-2.0926,-2.1704,-2.2355,-2.2915,-2.3462,-2.3907,-2.3718,-2.1866,-2.1643,-2.1193,-1.8926,-1.8743,-1.9198,-1.9814,-1.9839,-2.129,-2.5978,-2.709,-2.8925,-3.3463,-3.6215,-3.8104,-3.8946,-4.0593,-4.1558,-4.1368,-4.1799,-4.2169,-4.2289,-4.298,-4.3758,-4.4564,-4.4615,-4.4615,-4.4615,-4.4615,-4.4615,-4.4615,-4.4615,-4.5359,-4.6786,-4.6786,-4.6776,-4.6747,-4.6747,-4.569,-4.3849,-4.3849,-4.4046,0.0,-4.502,-4.5289,-4.5334,-4.5768,-4.5274,-4.4287,-4.4032,-4.3648,-4.329,0.0,0.0,0.0,0.0,0.0,0.0,0.0,-1.4903,-1.5308,-1.4877,-1.4346,-1.3842,-1.3412,-1.0684,-0.9375,-1.0547,0.0,0.0,0.0,0.0,0.0,0.0,0.0,0.0,-1.435,-1.5129,-1.7475,-2.1494,-2.1899,-2.2831,-2.4213,-2.3501,-2.0889,-1.6718,-1.6014,-1.4064,0.0,0.0,0.0,0.0,-1.1498,-1.1711,0.0,0.0,0.0,0.0,0.0,0.0,0.0,0.0,0.0,0.0,0.0,0.0,0.0,0.0,0.0,0.0,0.0,-2.1988,-2.225,-2.342,-2.3439,-2.2852,-2.1627,-2.0832,0.0,-1.852,-1.8614,-1.9029,-1.9244,-1.9949,-2.1171,-2.3189,-2.5391,-2.8253,-3.2289,-3.5009,-3.7708,-4.0753,-4.1288,-4.1215,-4.0668,-4.1509,-4.2169,-4.2289,-4.298,-4.3758,-4.4564,-4.4615,-4.4615,-4.4615,-4.4615,-4.4615,-4.4615,-4.4649,-4.541,-4.6786,-4.6836,-4.7139,-4.7589,-4.7589,-4.6609,0.0,-4.4849,-4.4734,-4.4609,-4.5184,-4.5398,-4.5398,-4.5398,-4.4937,-4.4167,-4.3514,-4.329,-4.329,0.0,0.0,0.0,0.0,0.0,0.0,0.0,0.0,0.0,0.0,-1.2074,-1.18,-1.1081,-0.9701,-0.8944,0.0,0.0,0.0,0.0,0.0,0.0,0.0,0.0,0.0,-1.4081,-1.5753,-1.8491,-2.2327,-2.4168,-2.5901,-2.7387,-2.6374,-2.345,-1.9043,-1.7445,-1.4714,0.0,0.0,0.0,0.0,-1.1623,-1.1775,0.0,0.0,0.0,0.0,-1.3133,-1.4339,0.0,0.0,0.0,0.0,0.0,0.0,0.0,0.0,-1.716,-1.7971,-1.9029,0.0,-2.0597,-2.0147,-2.0428,-2.0633,0.0,-1.9961,-1.9793,-1.8726,-1.8622,-1.9379,-2.1644,-2.1211,-2.2254,-2.764,-2.898,-3.0779,-3.4853,-3.7662,-3.9786,-4.1162,-4.1556,-4.1467,-4.0894,-4.1591,-4.2169,-4.2289,-4.298,-4.3758,-4.4564,-4.4615,-4.4615,-4.4615,-4.4615,-4.4615,-4.4615,-4.5162,-4.5889,-4.6802,-4.7378,-4.7642,-4.7589,-4.7589,-4.6952,-4.5834,-4.5116,-4.5765,-4.7316,-4.6733,-4.6511,-4.6511,-4.6511,-4.5291,-4.3499,-4.3349,-4.329,-4.329,0.0,0.0,0.0,0.0,0.0,0.0,0.0,0.0,0.0,0.0,0.0,-1.0385,-1.0087,-0.9306,0.0,0.0,0.0,0.0,0.0,0.0,0.0,0.0,0.0,-1.2836,-1.3834,-1.5974,-1.9035,-2.3019,-2.5608,-2.7967,-3.003,-2.8929,-2.5887,-2.1188,-1.6827,-1.3624,0.0,0.0,0.0,0.0,-1.1626,0.0,0.0,0.0,0.0,0.0,-1.4277,-1.5299,0.0,-1.8074,-1.9115,-1.9659,0.0,0.0,0.0,0.0,-1.6659,-1.7187,-1.7751,-1.9353,-2.0879,-2.0874,-2.0698,-2.056,-2.062,-1.9786,-1.8846,-1.8339,-1.833,-1.9061,-2.1148,-2.1589,-2.303,-2.7303,-2.9468,-3.2256,-3.6934,-3.9339,-4.105,-4.2214,-4.2038,-4.1664,-4.1358,-4.1242,-4.1485,-4.2228,-4.2675,-4.3386,-4.4547,-4.4615,-4.4615,-4.4615,-4.4615,-4.4615,-4.4615,-4.5331,-4.6075,-4.6802,-4.7564,-4.8029,-4.8257,-4.8257,-4.7721,-4.6815,-4.6311,-4.6933,-4.8248,-4.7741,-4.7741,-4.8024,-4.7497,-4.6625,-4.5511,-4.4212,-4.4328,-4.4971,0.0,0.0,0.0,0.0,0.0,0.0,0.0,0.0,0.0,0.0,0.0,0.0,0.0,0.0,0.0,0.0,0.0,0.0,0.0,0.0,0.0,0.0,-1.1753,-1.2832,-1.4176,-1.6123,-1.919,-2.3448,-2.6565,-2.9331,-3.1682,-3.1212,-2.8111,-2.2628,-1.58,-1.2378,-1.1741,0.0,0.0,0.0,-1.1954,0.0,0.0,0.0,0.0,0.0,0.0,0.0,0.0,-1.988,-2.0623,-2.0418,-2.0228,0.0,0.0,0.0,0.0,0.0,-1.7827,-2.0011,-2.2132,-2.2446,-2.1853,-2.1268,-2.1524,-1.961,-1.7828,-1.8003,-1.8304,-1.9056,-2.0707,-2.2458,-2.4325,-2.6421,-2.9586,-3.3431,-3.8238,-3.9963,-4.1246,-4.2702,-4.2065,-4.1552,-4.1552,-4.0769,-4.0807,-4.2033,-4.2337,-4.3031,-4.4361,-4.4547,-4.4615,-4.4615,-4.4615,-4.4615,-4.4615,-4.5432,-4.6177,-4.6802,-4.7665,-4.8409,-4.9001,-4.9001,-4.8576,-4.7803,-4.7655,0.0,-4.8723,-4.8578,-4.8944,-4.9534,-4.8637,-4.8326,-4.8078,-4.5629,-4.5727,-4.6697,0.0,0.0,0.0,0.0,0.0,0.0,0.0,0.0,0.0,0.0,0.0,0.0,0.0,0.0,0.0,0.0,0.0,0.0,0.0,0.0,0.0,-1.1216,-1.1861,-1.3546,-1.6435,-1.6689,-1.8892,-2.3253,-2.7379,-2.9886,-3.084,-3.314,-2.9866,-2.1874,-1.7,-1.3837,-1.2124,-1.2097,0.0,-1.3045,-1.3667,0.0,0.0,0.0,0.0,0.0,0.0,0.0,0.0,-1.8495,-1.9582,-2.0398,-1.8375,0.0,0.0,0.0,0.0,0.0,-2.0679,-2.2779,-2.3236,-1.982,-2.0105,-2.0786,-1.9178,-1.8286,-1.8048,-1.8891,-1.9613,-2.1404,-2.5777,-2.6555,-2.7965,-3.2245,-3.4009,-3.5596,-3.7768,-3.8612,-3.9238,-3.9951,-4.0226,-4.036,-4.036,-4.0773,-4.1136,-4.1356,-4.254,-4.3325,-4.3589,-4.4215,-4.4615,-4.4615,-4.4615,-4.4615,-4.4615,-4.594,-4.6684,-4.6802,-4.8189,-4.89,-4.9001,-4.9001,-4.8923,-4.875,0.0,-4.8796,-5.0693,-4.9901,-5.0002,-5.0643,-5.05,-4.9576,-4.8253,-4.6982,-4.6323,-4.5848,0.0,0.0,0.0,0.0,0.0,0.0,0.0,0.0,0.0,0.0,0.0,0.0,0.0,0.0,0.0,0.0,0.0,0.0,0.0,0.0,-1.2013,-1.4133,-1.422,-1.489,-1.6366,-1.8622,-2.1617,-2.5428,-2.9969,-3.2483,-3.2985,-3.0674,-2.6636,-2.1093,-1.6293,-1.3422,-1.2238,-1.2665,-1.3098,-1.36,0.0,0.0,0.0,0.0,0.0,0.0,0.0,0.0,0.0,0.0,-2.0339,-2.1062,-1.9116,0.0,0.0,0.0,0.0,0.0,-1.9362,-2.1549,-2.2846,-2.0892,-2.2935,-2.5329,-2.5031,-2.3733,-2.264,-2.2681,-2.2982,-2.4087,-2.6956,-2.8186,-3.014,-3.4321,-3.6007,-3.702,-3.7653,-3.8526,-3.9346,-4.0017,-4.0358,-4.0528,-4.0528,-4.0585,-4.0764,-4.117,-4.2202,-4.298,-4.3375,-4.4147,-4.4615,-4.4615,-4.4615,-4.4615,-4.4615,-4.6041,-4.6786,-4.6802,-4.8291,-4.9001,-4.9001,-4.9001,-4.9001,-4.897,0.0,-4.9448,-5.1185,-5.0742,-5.1229,-5.2265,-5.1676,-5.1319,-5.0956,-4.9123,-4.6784,-4.4478,0.0,0.0,0.0,0.0,0.0,0.0,0.0,0.0,0.0,0.0,0.0,0.0,0.0,0.0,0.0,0.0,0.0,0.0,0.0,0.0,-1.3011,-1.5779,-1.6641,-1.7444,-1.8317,-2.1383,-2.4729,-2.8313,-3.237,-3.4482,-3.4593,-2.871,-2.4053,-2.043,-1.5994,-1.3386,-1.2347,-1.3176,-1.3694,-1.4052,0.0,0.0,0.0,0.0,0.0,0.0,0.0,0.0,0.0,0.0,0.0,0.0,0.0,0.0,0.0,-1.821,-1.7635,-1.7827,-1.9045,-2.0792,-2.2465,-2.3158,-2.5524,-2.8048,-2.9438,-2.7776,-2.5964,-2.6099,-2.6268,-2.6809,-2.815,-3.0133,-3.2548,-3.5506,-3.6867,-3.7553,-3.7568,-3.8461,-3.9463,-4.0348,-4.0595,-4.0709,-4.0709,-4.0343,-4.0333,-4.0899,-4.1627,-4.2354,-4.3115,-4.3893,-4.4429,-4.4598,-4.4615,-4.4615,-4.4615,-4.6041,-4.6786,-4.6802,-4.8291,-4.9001,-4.9001,-4.9001,-4.9001,-4.9001,-4.9001,-4.9847,-5.1185,-5.1185,-5.2114,-5.3382,-5.2312,-5.2018,-5.1914,-4.9892,-4.6748,-4.3603,0.0,0.0,0.0,0.0,0.0,0.0,0.0,0.0,0.0,0.0,0.0,0.0,0.0,0.0,0.0,0.0,0.0,0.0,0.0,0.0,-1.3272,-1.3526,-1.798,-2.2052,-2.548,-2.5018,-2.6875,-3.1291,-3.3509,-3.4257,-3.3547,-3.0073,-2.5435,-1.9945,-1.754,-1.5,-1.2645,-1.3763,-1.4381,-1.4785,-1.6502,0.0,0.0,0.0,0.0,0.0,0.0,0.0,0.0,0.0,0.0,0.0,0.0,0.0,-1.9673,-2.019,-1.9369,-1.9147,-2.2982,-2.3173,-2.297,-2.5693,-2.5067,-2.4355,-2.6504,-2.5251,-2.4408,-2.7097,-2.823,-2.9399,-3.1537,-3.4134,-3.6206,-3.6965,-3.6764,-3.6738,-3.7399,-3.7803,-3.8457,-3.964,-4.0004,-4.0171,-4.0171,-4.0121,-4.013,-4.018,-4.0849,-4.1593,-4.2337,-4.3081,-4.3826,-4.4581,-4.4615,-4.4615,-4.4615,-4.6041,-4.6786,-4.6802,-4.8291,-4.9001,-4.9001,-4.9001,-4.9001,-4.9001,-4.9001,-4.9847,-5.1185,-5.1185,-5.2114,-5.3382,-5.2312,-5.0397,-4.8105,-4.7372,-4.5907,-4.4152,0.0,0.0,0.0,0.0,0.0,0.0,0.0,0.0,0.0,0.0,0.0,0.0,0.0,0.0,0.0,0.0,0.0,0.0,0.0,-1.2567,-1.3865,-1.6115,-1.8397,-2.1472,-2.5479,-2.8145,-3.1266,-3.4831,-3.5225,-3.4342,-3.2216,-2.7444,-2.3058,-1.9065,-1.6319,-1.4583,-1.3786,-1.4802,-1.5689,-1.6471,-1.7468,-1.7749,0.0,0.0,0.0,0.0,0.0,0.0,0.0,0.0,-1.8311,-1.9119,-1.8059,-1.8836,-2.0011,-1.9415,-1.898,-1.9051,-2.0593,-2.1972,-2.3359,-2.4948,-2.5744,-2.6742,-2.8975,-2.955,-3.0074,-3.1647,-3.2205,-3.2768,-3.3951,-3.5393,-3.6457,-3.6664,-3.6922,-3.7081,-3.7057,-3.7929,-3.8739,-3.9218,-3.9763,-4.0096,-4.0096,-4.0096,-4.0096,-4.0096,-4.0781,-4.1525,-4.2252,-4.3014,-4.3775,-4.4581,-4.4615,-4.4615,-4.4615,-4.6041,-4.6786,-4.6802,-4.8291,-4.9001,-4.9001,-4.9001,-4.9001,-4.9001,-4.9001,-4.9847,-5.1185,-5.1185,-5.1479,-5.1772,-5.0745,-4.9066,-4.7191,-4.6982,-4.552,-4.3678,0.0,0.0,0.0,0.0,0.0,0.0,0.0,0.0,0.0,0.0,0.0,0.0,0.0,0.0,0.0,0.0,0.0,0.0,-1.2195,-1.2591,-1.3962,-1.6536,-1.8379,-2.0868,-2.4182,-2.9434,-3.3423,-3.6084,-3.6161,-3.4052,-2.9939,-2.5576,-2.1915,-1.8894,-1.6154,-1.5158,-1.5591,-1.5852,-1.6422,-1.7215,-1.7721,-1.7822,0.0,0.0,0.0,0.0,0.0,0.0,0.0,0.0,-1.7653,-1.844,-1.7969,-1.8743,-1.9814,-1.9668,-1.9801,-2.0114,-2.0546,-2.1849,-2.3421,-2.485,-2.6167,-2.7824,-3.0565,-3.1985,-3.3119,-3.4556,-3.4844,-3.5001,-3.5555,-3.5925,-3.6203,-3.6354,-3.6887,-3.7244,-3.7163,-3.821,-3.9089,-3.9334,-3.9791,-4.0096,-4.0096,-4.0096,-4.0096,-4.0096,-4.0561,-4.1271,-4.2236,-4.2777,-4.3521,-4.4581,-4.4615,-4.4615,-4.4615,-4.5821,-4.6447,-4.6464,-4.7716,-4.8545,-4.9001,-4.9001,-4.9001,-4.897,-4.8688,-4.9426,-5.0798,-5.0209,-4.9961,-4.9835,-4.8956,-4.7691,-4.6361,-4.6162,-4.5044,-4.3663,0.0,0.0,0.0,0.0,0.0,0.0,0.0,0.0,0.0,0.0,0.0,0.0,0.0,0.0,0.0,0.0,0.0,0.0,-1.2159,-1.2894,-1.342,-1.3694,-1.7922,-2.0916,-2.2313,-2.8503,-3.2617,-3.4472,-3.5989,-3.324,-2.6539,-2.5147,-2.2774,-1.9603,-1.7639,-1.7256,-1.8022,-1.6818,-1.6477,-1.6763,-1.715,-1.7308,-1.7344,0.0,0.0,0.0,0.0,0.0,0.0,0.0,-1.7082,-1.7186,-1.9292,-1.9262,-1.8936,-2.1521,-2.2325,-2.2687,-2.4068,-2.3468,-2.3112,-2.5967,-2.6184,-2.6657,-3.0362,-3.1227,-3.2053,-3.5013,-3.56,-3.5761,-3.6308,-3.5963,-3.5783,-3.6312,-3.663,-3.7083,-3.7804,-3.8531,-3.9276,-4.0011,-4.0096,-4.0096,-4.0096,-4.0096,-4.0096,-4.0096,-4.0096,-4.0756,-4.2202,-4.2286,-4.3024,-4.4564,-4.4615,-4.4615,-4.4615,-4.5331,-4.5703,-4.572,-4.6447,-4.7564,-4.8984,-4.8984,-4.9001,-4.894,-4.8015,-4.856,-4.994,-4.806,-4.7466,-4.7741,-4.7114,-4.6232,-4.5229,-4.4571,-4.4332,-4.4332,0.0,0.0,0.0,0.0,0.0,0.0,0.0,0.0,0.0,0.0,0.0,0.0,0.0,0.0,0.0,0.0,0.0,0.0,-1.2455,-1.2867,-1.345,-1.4301,-1.6451,-1.7781,-1.8096,-2.2981,-2.7736,-3.2243,-3.2227,-2.9384,-2.3922,-2.3686,-2.187,-1.8836,-1.9788,-1.9258,-1.7631,-1.7943,-1.7999,-1.7927,-1.8276,-1.7976,-1.737,0.0,0.0,0.0,0.0,0.0,0.0,0.0,0.0,0.0,-1.7613,-1.9084,-2.0548,-2.006,-2.0494,-2.1048,-2.0666,-2.2774,-2.5077,-2.514,-2.8536,-3.2019,-3.2611,-3.3054,-3.3864,-3.5786,-3.5854,-3.5761,-3.6308,-3.5963,-3.5783,-3.6312,-3.7074,-3.7652,-3.7872,-3.8971,-3.9859,-4.0079,-4.0096,-4.0096,-4.0096,-4.0096,-4.0096,-4.0096,-4.0096,-4.0756,-4.2202,-4.2286,-4.3024,-4.4564,-4.4615,-4.4615,-4.4615,-4.5331,-4.5703,-4.572,-4.6447,-4.7293,-4.824,-4.824,-4.8528,-4.894,-4.8015,-4.8183,-4.8961,-4.71,-4.6889,-4.763,-4.5788,-4.5443,-4.5933,-4.5259,-4.5005,-4.5065,0.0,0.0,0.0,0.0,0.0,0.0,0.0,0.0,0.0,0.0,-0.7656,-0.8255,0.0,0.0,0.0,0.0,0.0,0.0,-1.2572,-1.2543,-1.3099,-1.4352,-1.5189,-1.6462,-1.8201,-2.0988,-2.3946,-2.7045,-2.8279,-2.6805,-2.2859,-2.3891,-2.323,-2.1244,-2.2911,-2.2251,-1.9875,-2.0105,-2.0012,-1.9781,-1.9963,-1.9588,-1.8934,0.0,0.0,0.0,0.0,0.0,0.0,0.0,0.0,0.0,-1.7316,-1.8558,-2.0001,-2.0531,-2.1611,-2.2812,-2.356,-2.5748,-2.7964,-2.8713,-3.1055,-3.3435,-3.4375,-3.4675,-3.4998,-3.5887,-3.5827,-3.5694,-3.6011,-3.581,-3.5694,-3.6032,-3.7104,-3.7905,-3.7905,-3.9157,-4.0096,-4.0096,-4.0096,-4.0096,-4.0096,-4.0096,-4.0096,-4.0096,-4.0096,-4.0756,-4.2202,-4.2286,-4.3024,-4.4564,-4.4615,-4.4615,-4.4615,-4.5026,-4.5263,-4.5263,-4.5703,-4.6464,-4.7479,-4.7784,-4.8107,-4.8401,-4.744,-4.6851,-4.6489,-4.5747,-4.5973,-4.6656,-4.495,-4.514,-4.6204,-4.5544,-4.5469,-4.5768,0.0,0.0,0.0,0.0,0.0,0.0,0.0,0.0,0.0,-0.7094,-0.7443,-0.7988,0.0,0.0,0.0,-1.0837,-1.115,-1.1659,-1.2514,-1.2164,-1.2587,-1.4054,-1.4381,-1.6523,-2.0781,-2.1114,-2.0895,-2.0245,-2.4221,-2.4958,-2.2686,-2.506,-2.5885,-2.5402,-2.6308,-2.5441,-2.3272,-2.2374,-2.1739,-2.1375,-2.1653,-2.1398,-2.0883,-2.0636,0.0,0.0,0.0,0.0,0.0,0.0,0.0,0.0,-1.7918,-1.7972,-1.8257,-2.188,-2.4164,-2.6252,-2.9517,-3.0319,-3.1037,-3.4369,-3.3389,-3.2431,-3.5587,-3.5963,-3.5622,-3.565,-3.5627,-3.56,-3.56,-3.56,-3.56,-3.56,-3.6834,-3.7821,-3.7889,-3.9106,-4.0028,-4.0096,-4.0096,-4.0096,-4.0096,-4.0096,-4.0096,-4.0096,-4.0096,-4.0756,-4.2202,-4.2286,-4.3024,-4.4564,-4.4615,-4.4615,-4.4615,-4.4615,-4.4615,-4.4615,-4.4615,-4.5376,-4.6802,-4.7496,-4.7697,-4.7406,-4.647,-4.5011,-4.3369,-4.4297,-4.4898,-4.5229,-4.4571,-4.5185,-4.6337,-4.5648,-4.5828,-4.6369,0.0,0.0,0.0,0.0,0.0,0.0,0.0,0.0,-0.7094,-0.7094,-0.7447,-0.798,-0.872,-0.9163,0.0,-1.0813,-1.115,-1.1575,-1.2241,-1.2679,-1.3277,-1.4143,-1.5472,-1.691,-1.8416,-1.7805,-1.7487,-1.7537,-2.0579,-2.1563,-2.0703,-2.476,-2.6121,-2.5243,-2.6816,-2.5228,-2.1255,-2.0054,-1.8902,-1.8078,-2.0404,-1.99,-1.7948,-1.9585,-1.8407,0.0,0.0,0.0,0.0,0.0,0.0,0.0,-1.7607,-1.8567,-1.9403,-1.9344,-2.1703,-2.4348,-2.4232,-2.734,-3.0849,-3.1888,-3.3423,-3.4849,-3.5586,-3.5672,-3.5717,-3.6139,-3.5898,-3.56,-3.56,-3.56,-3.56,-3.56,-3.6417,-3.7229,-3.7821,-3.8667,-3.9445,-4.0028,-4.0096,-4.0096,-4.0096,-4.0096,-4.0096,-4.0096,-4.0096,-4.0756,-4.2202,-4.2286,-4.3024,-4.4564,-4.4615,-4.4615,-4.4615,-4.4615,-4.4615,-4.4615,-4.4615,-4.5376,-4.6802,-4.6955,-4.6817,-4.647,-4.5488,-4.4434,-4.3329,-4.3512,-4.4293,-4.5229,-4.4571,-4.5454,-4.701,-4.6352,-4.6531,-4.71,0.0,0.0,0.0,0.0,0.0,0.0,0.0,0.0,-0.7384,-0.7384,-0.7564,-0.7984,-0.872,-0.9243,0.0,0.0,-1.115,-1.1568,-1.2159,-1.2413,-1.3042,-1.4205,-1.6018,-1.7,-1.703,-1.607,-1.5792,-1.6228,-1.7378,-1.8847,-2.0657,-2.4094,-2.5957,-2.6493,-2.7442,-2.5485,-2.1472,-2.0811,-2.0027,-1.9388,-2.1059,-2.0726,-1.9288,-1.9881,-1.8305,-1.5827,-1.5983,0.0,0.0,0.0,0.0,0.0,0.0,0.0,-1.9491,-2.0268,-2.1918,-2.4032,-2.645,-2.9075,-3.1495,-3.2949,-3.445,-3.56,-3.56,-3.56,-3.5672,-3.5963,-3.5788,-3.56,-3.56,-3.5295,-3.5081,-3.5081,-3.5419,-3.5943,-3.6705,-3.777,-3.8751,-3.9503,-3.9893,-4.0096,-4.0096,-3.9791,-3.9723,-4.0079,-3.9774,-4.0358,-4.2185,-4.2286,-4.3024,-4.4564,-4.4615,-4.4615,-4.4615,-4.4615,-4.4615,-4.4615,-4.4615,-4.5159,-4.6135,-4.6396,-4.6152,-4.5488,-4.4495,-4.3771,-4.329,-4.329,-4.4107,-4.5259,-4.4915,-4.5813,-4.7264,-4.692,-4.701,-4.7309,0.0,0.0,0.0,0.0,0.0,0.0,0.0,0.0,0.0,-0.7892,-0.795,-0.821,-0.8844,-0.9442,-1.0071,0.0,0.0,0.0,-1.2013,-1.1992,-1.2686,-1.4324,-1.5986,-1.6652,-1.622,-1.517,-1.4951,-1.561,-1.5,-1.6917,-2.1206,-2.3585,-2.5814,-2.7769,-2.7532,-2.5586,-2.2467,-2.181,-2.1366,-2.1149,-2.1697,-2.1582,-2.1027,-2.0283,-1.8327,-1.6011,-1.6287,-1.6396,-1.6512,-1.7407,0.0,0.0,0.0,0.0,-1.9098,-2.1571,-2.2652,-2.4098,-2.9119,-3.0925,-3.2087,-3.5001,-3.5672,-3.56,-3.56,-3.56,-3.5566,-3.543,-3.5397,-3.5397,-3.5397,-3.481,-3.4303,-3.4303,-3.4303,-3.4573,-3.5318,-3.6755,-3.7939,-3.8548,-3.9503,-4.0045,-3.9926,-3.9462,-3.9453,-4.0045,-3.9537,-4.0087,-4.2185,-4.2286,-4.3024,-4.4564,-4.4615,-4.4615,-4.4615,-4.4615,-4.4615,-4.4615,-4.4733,-4.4855,-4.4997,-4.5701,-4.5559,-4.4737,-4.3747,-4.329,-4.329,-4.329,-4.4107,-4.5289,-4.5289,-4.6127,-4.7309,-4.7309,-4.7309,-4.7309,0.0,0.0,0.0,0.0,0.0,0.0,0.0,0.0,0.0,0.0,-0.8908,-0.915,-0.9302,-0.961,-0.9983,-1.0433,-1.0494,-1.0784,-1.1375,0.0,0.0,-1.4668,-1.4983,-1.5358,-1.5855,-1.4599,-1.4366,-1.5263,-1.4659,-1.6617,-2.1006,-2.4029,-2.6104,-2.723,-2.6014,-2.4516,-2.2702,-1.939,-1.7955,-1.8054,-1.9664,-1.9345,-1.8046,-1.9154,-1.8367,-1.6672,-1.6712,-1.6738,-1.6825,-1.7477,-1.7704,0.0,0.0,0.0,-1.8721,-1.9344,-2.1182,-2.3032,-2.317,-2.6792,-3.1475,-3.5332,-3.5941,-3.56,-3.56,-3.56,-3.5414,-3.4776,-3.4641,-3.4641,-3.4641,-3.4049,-3.3558,-3.3558,-3.3558,-3.3795,-3.4539,-3.5983,-3.6981,-3.7083,-3.8877,-3.9859,-3.9191,-3.9656,-3.9994,-4.0096,-4.0011,-4.0654,-4.2202,-4.2286,-4.3024,-4.4564,-4.4615,-4.4615,-4.4615,-4.4615,-4.4615,-4.4615,-4.5246,-4.4757,-4.3361,-4.4653,-4.508,-4.4737,-4.3747,-4.329,-4.329,-4.329,-4.4107,-4.5289,-4.5289,-4.6127,-4.7309,-4.7309,-4.7309,-4.7309,0.0,0.0,0.0,0.0,0.0,0.0,0.0,0.0,0.0,0.0,0.0,-0.9664,-0.9881,-1.0209,-1.0494,-1.0667,-1.0679,-1.0786,-1.1059,-1.1842,-1.263,-1.3376,-1.3756,-1.419,-1.4663,-1.372,-1.3909,-1.5265,-1.4614,-1.6628,-2.1108,-2.2782,-2.4684,-2.6525,-2.3947,-2.2341,-2.1408,-1.8529,-1.7441,-1.7691,-1.8454,-1.9198,-1.9717,-1.8653,-1.8529,-1.8735,-1.7675,-1.7396,-1.762,-1.8213,-1.8426,-1.8513,-1.9006,0.0,0.0,0.0,-2.001,-2.158,-2.4563,-2.8588,-3.2633,-3.5647,-3.6224,-3.5985,-3.5672,-3.56,-3.538,-3.4641,-3.4167,-3.388,-3.388,-3.3271,-3.278,-3.278,-3.2442,-3.2408,-3.3173,-3.4561,-3.5656,-3.6079,-3.7753,-3.8903,-3.8988,-3.892,-3.9191,-4.0045,-3.9723,-4.0316,-4.2185,-4.2286,-4.3024,-4.4564,-4.4615,-4.4615,-4.4615,-4.4615,-4.4615,-4.4615,-4.4925,-4.4331,-4.3036,-4.4026,-4.4118,-4.3434,-4.3362,-4.329,-4.329,-4.329,-4.4107,-4.5289,-4.5289,-4.6127,-4.7309,-4.7309,-4.7309,-4.7309,0.0,0.0,0.0,0.0,0.0,0.0,0.0,0.0,0.0,0.0,0.0,-1.0245,-1.0431,0.0,0.0,0.0,-1.0763,-1.0763,-1.0763,-1.1311,-1.1772,-1.2036,-1.252,-1.2946,-1.3274,-1.2792,-1.3325,-1.4916,-1.4415,-1.664,-2.132,-2.157,-2.3428,-2.6408,-2.3177,-2.1511,-2.0977,-1.8651,-1.7993,-1.8515,-1.8514,-1.9772,-2.1449,-1.9757,-2.0201,-2.1426,-1.9382,-1.8879,-1.9132,-1.9022,-1.901,-1.9035,-1.9246,-1.9022,0.0,0.0,0.0,-1.9319,-2.5025,-2.8414,-3.1145,-3.452,-3.5414,-3.5518,-3.5581,-3.5447,-3.5115,-3.437,-3.3626,-3.3068,-3.2882,-3.2374,-3.2022,-3.2022,-3.1546,-3.1396,-3.1955,-3.3288,-3.4421,-3.4974,-3.6569,-3.7905,-3.865,-3.8396,-3.87,-4.0011,-3.9605,-4.007,-4.1914,-4.2185,-4.2895,-4.4231,-4.4496,-4.4615,-4.4615,-4.4615,-4.4615,-4.4615,-4.4615,-4.3962,-4.2765,-4.3626,-4.3321,-4.2201,-4.297,-4.329,-4.329,-4.329,-4.4003,-4.505,-4.505,-4.5768,-4.6815,-4.6995,-4.7055,-4.7085,0.0,0.0,0.0,0.0,0.0,0.0,0.0,0.0,0.0,0.0,0.0,-1.1124,-1.0897,-1.1115,-1.1043,-1.047,-1.0434,-1.0434,-1.0434,-1.0755,-1.1066,-1.1342,-1.1393,0.0,-1.191,-1.1865,-1.2519,-1.3867,-1.385,-1.6518,-2.1659,-2.1064,-2.3185,-2.7409,-2.489,-2.3433,-2.2688,-1.9891,-1.9272,-2.0197,-2.0379,-2.0758,-2.1448,-2.3393,-2.447,-2.4628,-2.2176,-2.1598,-2.1672,-1.9677,-1.901,-1.9035,-1.9246,-1.8262,-1.7018,0.0,0.0,0.0,-2.0796,-2.2443,-2.4349,-3.0872,-3.2751,-3.3433,-3.5198,-3.5064,-3.4336,-3.3609,-3.2865,-3.2141,-3.1427,-3.1275,-3.1258,-3.1258,-3.1224,-3.1207,-3.1241,-3.2527,-3.3474,-3.3508,-3.5487,-3.7168,-3.7889,-3.8548,-3.9242,-4.0045,-4.0062,-4.0417,-4.1221,-4.1914,-4.2658,-4.3426,-4.4198,-4.4615,-4.4615,-4.4615,-4.4615,-4.4615,-4.4615,-4.3726,-4.2093,-4.3403,-4.3071,-4.1542,-4.2737,-4.329,-4.329,-4.329,-4.3708,-4.4362,-4.4362,-4.4781,-4.5484,-4.6142,-4.6324,-4.6456,0.0,0.0,0.0,0.0,0.0,0.0,0.0,0.0,0.0,0.0,0.0,0.0,0.0,-1.1367,-1.1136,-1.0751,-1.0336,-1.0261,-1.0691,-1.0435,-1.0569,-1.1262,-1.1141,-1.129,-1.1794,-1.1805,-1.2239,-1.3163,-1.36,-1.5621,-1.9148,-1.9765,-2.1395,-2.3751,-2.2423,-2.2198,-2.2593,-1.9028,-1.7967,-1.8877,-2.0877,-2.2632,-2.4133,-2.5249,-2.6755,-2.7944,-2.5427,-2.3754,-2.2606,-2.1826,-2.0512,0.0,-1.9274,-1.8207,-1.6707,-1.5661,-1.568,-1.6658,-1.9444,-2.1808,-2.4205,-2.7203,-3.0216,-3.2521,-3.274,-3.366,-3.4286,-3.3558,-3.3045,-3.2434,-3.1404,-3.119,-3.119,-3.119,-3.119,-3.119,-3.119,-3.2053,-3.2865,-3.3339,-3.4539,-3.5994,-3.7736,-3.8142,-3.8802,-4.0011,-4.0096,-4.0434,-4.117,-4.1457,-4.2151,-4.3358,-4.369,-4.4079,-4.4598,-4.4615,-4.4615,-4.4615,-4.4615,-4.396,-4.2865,-4.3652,-4.3355,-4.2279,-4.298,-4.329,-4.329,-4.329,-4.3678,-4.4317,-4.4317,-4.4721,-4.5379,-4.6067,-4.6279,-4.6384,0.0,0.0,0.0,0.0,0.0,0.0,0.0,0.0,0.0,-1.204,0.0,0.0,0.0,0.0,-1.1344,-1.1059,-1.0532,-1.0422,-1.0861,-1.0385,-1.0433,-1.1262,-1.1036,-1.1175,-1.1794,-1.1805,-1.213,-1.2801,-1.3253,-1.4932,-1.7712,-1.8612,-2.0167,-2.2149,-2.0805,-2.1197,-2.2697,-1.9605,-1.8715,-1.9631,-2.2468,-2.4097,-2.5116,-2.743,-2.8888,-2.947,-2.7822,-2.6459,-2.5352,0.0,0.0,0.0,-2.1298,-1.872,-1.5661,-1.3521,-1.4218,-1.5869,-1.6671,-1.9253,-2.2309,-2.4622,-2.7059,-2.9478,-3.1663,-3.2474,-3.2863,-3.3196,-3.2911,-3.2355,-3.1553,-3.1391,-3.1351,-3.123,-3.119,-3.119,-3.119,-3.1633,-3.231,-3.3288,-3.3829,-3.5115,-3.7652,-3.7905,-3.8514,-3.9994,-4.0096,0.0,-4.0798,-4.1068,-4.1897,-4.3341,-4.3392,-4.3792,-4.4598,-4.4615,-4.4615,-4.4615,-4.4615,-4.4138,-4.3309,-4.3541,-4.3308,-4.2721,-4.2931,-4.3135,-4.329,-4.329,-4.3544,-4.3947,-4.3947,-4.4257,-4.4751,-4.5648,-4.5978,-4.6097,0.0,0.0,0.0,0.0,0.0,0.0,0.0,0.0,-1.2633,-1.2649,0.0,0.0,0.0,0.0,0.0,-1.1416,-1.1116,-1.0936,-1.0932,-1.0592,-1.0661,-1.1256,-1.1031,-1.1173,-1.1794,-1.1805,-1.2115,-1.2741,-1.2771,-1.4408,-1.7564,-1.7609,-1.9554,-2.2931,-2.036,-2.069,-2.3138,-2.1752,-2.1666,-2.2671,-2.5126,-2.5096,-2.4188,-3.0061,-3.1025,0.0,-2.9417,-2.9804,0.0,-2.8719,0.0,0.0,-2.5016,-1.9656,-1.3943,-1.0759,-1.1535,-1.3225,0.0,0.0,0.0,-2.3081,-2.3202,-2.4138,-3.1966,-3.135,-2.9868,-3.2377,-3.2294,-3.1756,-3.1808,-3.1825,-3.1696,-3.1291,-3.121,-3.119,-3.119,-3.119,-3.1732,-3.3203,-3.3389,-3.459,-3.7584,-3.7889,-3.8514,-3.9994,-4.0096,-4.0096,-4.0096,-4.0798,-4.1863,-4.3274,-4.3375,-4.3775,-4.4564,-4.4598,-4.4587,-4.4542,-4.4587,-4.4138,-4.3292,-4.3121,-4.2934,-4.2726,-4.2539,-4.277,-4.329,-4.329,-4.329,-4.329,-4.329,-4.329,-4.3454,-4.4811,-4.5289,-4.5484,0.0,0.0,0.0,0.0,0.0,-1.34,-1.34,-1.34,-1.3587,0.0,0.0,0.0,-1.4286,-1.3683,-1.3312,-1.3469,-1.2343,-1.1597,-1.1545,-1.0599,-1.0317,-1.0908,-1.067,-1.0919,-1.1779,-1.1805,-1.1655,-1.1346,-1.1835,-1.2789,-1.4182,-1.5156,-1.7031,-1.9563,-1.93,-1.9954,-2.1086,-1.9197,-1.9418,-2.1253,-2.3339,-2.5493,0.0,0.0,0.0,0.0,0.0,-3.2435,-3.1291,0.0,-2.8009,-2.4759,0.0,-1.7679,-1.5826,-1.3778,-1.4475,-1.5594,-1.4218,0.0,0.0,0.0,0.0,0.0,-2.4339,-2.5333,-2.6482,-3.0098,-3.0506,-3.064,-3.205,-3.2316,-3.2161,-3.1715,-3.1389,-3.119,-3.119,-3.119,-3.1546,-3.2496,-3.3068,-3.4387,-3.6857,-3.7584,-3.8514,0.0,-4.0096,-4.0096,-4.0096,-4.0798,-4.139,-4.1813,-4.2834,-4.3521,-4.3741,-4.4327,-4.4281,-4.3651,-4.4298,-4.4138,-4.3292,-4.3753,-4.3832,-4.363,-4.3443,-4.3343,-4.329,-4.329,-4.329,-4.329,-4.329,-4.329,-4.3454,-4.4811,-4.5289,-4.5484,0.0,0.0,-1.2952,-1.3388,-1.4539,-1.5407,-1.5407,-1.5407,-1.5451,0.0,0.0,0.0,-1.4567,-1.5226,-1.5216,-1.4182,-1.3115,-1.2293,-1.1824,-1.0732,-1.0199,-1.0415,-1.0641,-1.1093,-1.179,-1.2059,-1.188,-1.1226,-1.188,-1.2494,-1.3046,-1.4382,-1.5845,-1.7361,-1.7462,-1.8063,-1.8901,-1.7043,-1.7823,-2.058,-2.403,0.0,0.0,-3.1433,-3.3068,0.0,0.0,0.0,-3.2901,-3.2878,-2.9683,0.0,0.0,-1.8805,-1.6578,-1.4964,-1.5643,-1.656,-1.4934,-1.5661,-1.6991,-1.7369,0.0,0.0,-2.3863,-2.4633,-2.5619,0.0,-3.1198,-3.1456,-3.2574,-3.2632,-3.235,-3.1879,-3.1451,-3.119,-3.119,-3.119,-3.1461,-3.2209,-3.2949,-3.4303,-3.6592,-3.7466,-3.8514,-3.9994,-4.0096,-4.0096,-4.0096,-4.0493,-4.0882,-4.1187,-4.2337,-4.3098,-4.3392,-4.3838,-4.3814,-4.3306,-4.3456,-4.3456,-4.3292,-4.3319,-4.359,-4.3974,-4.3477,-4.3296,-4.329,-4.329,-4.329,-4.329,-4.329,-4.329,-4.3454,-4.4811,-4.5289,-4.5484,0.0,0.0,-1.4153,-1.5253,-1.6819,-1.7969,-1.8155,-1.8053,-1.785,0.0,-1.6742,-1.6014,-1.5458,-1.7192,-1.733,-1.4689,-1.3845,-1.3025,-1.1976,-1.0996,-1.0331,-1.012,-1.0844,-1.149,-1.2003,-1.2609,-1.2516,-1.1717,-1.2486,-1.297,-1.3255,-1.46,-1.5535,-1.6044,-1.5413,-1.5768,-1.6756,-1.5523,-1.7016,-2.0662,-2.5598,-2.6594,0.0,0.0,-3.304,-3.1542,-3.3894,-3.4667,-3.4722,-3.5331,-3.2211,0.0,0.0,0.0,0.0,-1.5612,-1.6303,-1.733,-1.5631,-1.6138,-1.7679,-1.9832,-1.8151,0.0,-2.6351,-2.6093,-2.5613,0.0,-3.2068,-3.2141,-3.2426,-3.2087,-3.1641,-3.1202,-3.0995,-3.0942,-3.1176,-3.119,-3.1427,-3.2107,-3.2899,-3.4235,-3.6338,-3.7364,-3.8481,-3.9876,-4.0045,-4.0096,-4.0096,-4.0096,-4.0417,-4.1068,-4.1863,-4.2581,-4.313,-4.3236,-4.3199,-4.3,-4.2316,-4.2426,-4.3139,-4.2458,-4.2896,-4.4127,-4.3231,-4.3079,-4.3488,-4.3488,-4.3409,-4.329,-4.329,-4.329,-4.3454,-4.4811,-4.5289,-4.5484,-1.3729,-1.4221,-1.503,-1.6683,-1.7915,-1.9096,-2.0344,-1.972,-1.9811,-2.1843,-2.2434,-2.2551,-2.2222,-2.0719,-1.9405,-1.8607,-1.6067,-1.3973,-1.2696,-1.1423,-1.0926,-1.1416,-1.11,-1.1684,-1.3364,-1.354,-1.2829,-1.1235,-1.256,-1.3041,-1.2766,-1.4212,-1.5053,-1.5304,-1.5282,-1.5264,-1.5297,-1.5912,-1.8332,-2.1883,-2.3162,0.0,-2.9325,-3.226,-3.4157,-3.5336,-3.5839,-3.6284,-3.6292,-3.4009,-3.1683,-2.8998,0.0,0.0,0.0,-1.9601,-2.0464,-2.2281,-1.996,-1.908,-1.8941,-1.9426,-1.8574,0.0,-1.9908,-2.0338,-2.1241,0.0,-2.4996,-2.5581,-2.7529,-2.7495,-2.7155,-2.7077,-2.8016,-2.9346,-3.0976,-3.119,-3.1241,-3.1393,-3.2594,-3.3812,-3.4844,-3.6738,-3.8278,-3.914,-3.9774,-4.0096,-4.0096,-4.0096,-4.018,-4.0316,-4.1619,-4.2024,-4.1468,-4.2706,-4.2599,-4.1213,-4.1739,-4.2093,-4.2252,-4.2816,-4.3817,-4.5064,-4.4161,-4.4051,-4.451,-4.451,-4.4043,-4.329,-4.329,-4.329,-4.3454,-4.4811,-4.5289,-4.5484,-1.4287,-1.4906,-1.5989,-1.8288,-2.0052,-2.1651,-2.3156,-2.2876,-2.2968,-2.4309,-2.4877,-2.4496,-2.279,-2.1664,-2.0272,-1.8382,-1.626,-1.4556,-1.3373,-1.2044,-1.1519,-1.2025,-1.205,-1.2744,-1.4268,-1.4642,-1.3836,-1.1848,-1.2926,-1.3057,-1.2314,-1.3365,-1.5167,-1.7432,-1.4992,-1.557,-1.8216,-1.6232,-1.7465,-2.104,-2.4139,0.0,-3.1634,-3.3887,-3.5431,-3.6395,-3.6395,-3.6656,-3.6646,-3.4499,-3.2179,0.0,-2.7336,-2.6319,-2.5364,0.0,-2.2593,-2.3657,-2.1171,-2.0217,-2.0097,-2.0941,-1.962,0.0,0.0,-2.1115,-2.1353,-2.4198,-2.4483,-2.4447,-2.5254,-2.535,-2.5165,-2.4771,-2.667,-2.8168,-2.8066,-2.9863,-3.1345,-3.1698,-3.2412,-3.3423,-3.4912,-3.6073,-3.7381,-3.8886,-3.969,-4.0096,-4.0096,-4.0096,-4.0096,-4.0096,-4.1104,-4.1438,-4.0996,-4.1668,-4.156,-4.0724,-4.1147,-4.1576,-4.2029,-4.2909,-4.405,-4.5368,-4.4903,-4.4737,-4.4812,-4.4812,-4.422,-4.3369,-4.3849,-4.4028,-4.4156,-4.5,-4.5289,-4.5484,-1.4447,-1.5282,-1.6645,-1.9324,-2.1566,-2.346,-2.4949,-2.5105,-2.5209,-2.5646,-2.6111,-2.5512,-2.3124,-2.2854,-2.1646,-1.8652,-1.7258,-1.5961,-1.4646,-1.3423,-1.292,-1.3312,-1.3392,-1.4066,-1.5518,-1.5499,-1.4503,-1.2543,-1.3167,-1.2901,-1.1839,-1.2628,-1.5074,-1.8625,-1.5122,-1.6212,-2.0442,-1.7032,0.0,-2.1374,0.0,-2.9398,-3.1309,-3.4434,-3.5573,-3.5639,-3.6487,-3.6794,-3.6637,-3.5601,-3.3408,-3.095,-3.0026,-2.8374,0.0,0.0,0.0,0.0,0.0,0.0,0.0,0.0,0.0,-2.0537,0.0,0.0,0.0,0.0,0.0,0.0,0.0,0.0,0.0,0.0,0.0,0.0,0.0,-2.7501,0.0,-3.0702,-3.1819,-3.2983,-3.4197,-3.445,-3.5791,-3.8768,-3.887,-3.9199,-4.0045,-4.0096,-4.0096,-4.0096,-4.0871,-4.1168,-4.0996,-4.096,-4.0946,-4.0946,-4.0792,-4.1247,-4.23,-4.3117,-4.4304,-4.5684,-4.5627,-4.5412,-4.5079,-4.5264,-4.4646,-4.3669,-4.4259,-4.451,-4.455,-4.4971,-4.5185,-4.5469,-1.4447,-1.5282,-1.6482,-1.8658,-2.0378,-2.1952,-2.341,-2.3292,-2.3752,-2.5774,-2.7558,-2.88,-2.9206,-2.7234,-2.5516,-2.459,-2.2341,-1.9921,-1.7414,-1.6562,-1.6428,-1.7058,-1.4941,-1.5164,-1.819,-1.564,-1.3644,-1.232,-1.2771,-1.2379,-1.1227,-1.2671,-1.3726,-1.4508,-1.649,-1.6946,-1.6396,0.0,-2.2795,0.0,-2.8354,-2.7255,0.0,-3.0737,-3.2634,-3.2907,-3.6788,-3.7741,-3.704,0.0,-3.5389,-3.372,0.0,-2.9787,-3.0766,-2.5585,0.0,0.0,0.0,0.0,0.0,0.0,-2.4327,-2.4649,0.0,0.0,-2.1482,-2.0362,0.0,0.0,0.0,0.0,0.0,0.0,0.0,0.0,-2.2427,-2.3789,-2.4829,-2.5335,-3.0057,-3.2341,-2.9991,-3.0345,-3.3034,-3.8582,-3.5994,-3.5893,-3.9893,-4.0096,-4.0096,-4.0096,-4.143,-4.1776,-4.0996,-4.1575,-4.1869,-4.1836,-4.108,-4.1576,-4.3171,-4.3918,-4.5136,-4.6625,-4.6442,-4.6236,-4.6119,-4.6918,-4.6224,-4.4548,-4.3771,-4.3472,-4.3563,-4.4193,-4.4796,-4.5409,-1.4101,-1.5026,-1.6191,-1.8294,-1.9883,-2.1577,-2.3716,-2.5714,-2.6855,-2.6503,-2.8326,-2.9498,-2.9185,-2.7045,-2.5486,-2.5075,0.0,-2.1103,0.0,0.0,-1.7164,-1.6907,-1.5455,-1.5593,-1.7554,-1.569,-1.4004,-1.2652,-1.2115,-1.1377,-1.048,-1.113,-1.34,-1.698,-1.7725,-1.9851,-2.2843,0.0,-2.3414,0.0,0.0,0.0,0.0,-3.1954,-3.514,-3.5382,-3.7222,-3.8134,-3.8399,0.0,-3.6242,0.0,0.0,0.0,0.0,-2.8491,0.0,0.0,0.0,0.0,0.0,0.0,0.0,0.0,-2.1335,0.0,-2.0142,0.0,0.0,0.0,0.0,0.0,0.0,0.0,-1.7632,0.0,0.0,0.0,-2.3144,0.0,0.0,0.0,-2.909,-2.9727,0.0,-3.7354,-3.5047,-3.5351,-3.9859,-4.0096,-4.0096,-4.0096,-4.1033,-4.1354,-4.0996,-4.1652,-4.1997,-4.1997,-4.2125,-4.2583,-4.3323,-4.461,-4.5765,-4.6836,-4.7167,-4.6897,-4.6279,-4.7189,-4.6138,-4.3989,-4.4728,-4.4668,-4.4258,-4.4876,-4.5203,-4.5394,-1.3516,-1.4491,-1.553,-1.7175,-1.8874,-2.0824,-2.3228,-2.6082,-2.7588,-2.6539,-2.8027,-2.9151,-2.9104,-2.7555,0.0,0.0,-2.5453,-2.3576,0.0,0.0,-1.8992,-1.8847,-1.6657,-1.6382,-1.8373,-1.5886,-1.4041,-1.2947,-1.1654,-1.0853,-1.0527,-1.0606,-1.3457,-1.8519,-1.9126,-2.2265,-2.7012,0.0,-2.541,-2.5812,-2.6466,-2.6474,-2.6809,-3.3369,-3.6473,-3.7374,-3.7923,-3.8732,-3.9429,-3.895,-3.7022,0.0,-3.6488,0.0,-3.1348,0.0,0.0,0.0,-2.788,0.0,0.0,0.0,0.0,0.0,0.0,0.0,0.0,0.0,0.0,0.0,0.0,0.0,0.0,0.0,0.0,-1.6307,0.0,-1.7376,0.0,0.0,0.0,0.0,0.0,0.0,0.0,0.0,0.0,-3.4028,-3.952,-3.9994,-4.0096,-4.0096,-4.0698,-4.1155,-4.1354,-4.1811,-4.2279,-4.2707,-4.3108,-4.3443,-4.3713,-4.5274,-4.6295,-4.6836,-4.78,-4.7437,-4.6279,-4.7489,-4.6279,-4.3912,-4.6103,-4.6224,-4.5231,-4.5563,-4.5675,-4.5721,-1.2638,-1.3651,-1.4437,-1.4749,-1.6853,-1.912,-2.1032,-2.2006,-2.3294,0.0,0.0,0.0,0.0,0.0,0.0,0.0,0.0,-2.8828,-2.5502,0.0,-2.3291,-2.5227,-1.9186,-1.7898,-2.2414,-1.6378,-1.3145,-1.3088,-1.156,-1.1154,-1.1844,-1.2094,-1.3749,-1.6671,-2.0823,-2.3258,-2.4561,-2.8163,-3.0898,-3.2733,-3.225,-3.4031,-3.6665,0.0,-3.4266,-3.7097,-3.902,0.0,0.0,-3.8573,-3.815,0.0,0.0,0.0,0.0,0.0,0.0,0.0,0.0,0.0,0.0,-2.5805,0.0,0.0,0.0,0.0,-2.2419,0.0,0.0,0.0,0.0,0.0,0.0,0.0,0.0,0.0,0.0,0.0,0.0,0.0,0.0,0.0,0.0,0.0,0.0,0.0,0.0,0.0,-3.8623,-3.9723,-4.0096,-4.0096,-4.0806,-4.155,-4.226,-4.2219,-4.2983,-4.4514,-4.368,-4.3739,-4.4592,-4.6092,-4.6769,-4.687,-4.8325,-4.7917,-4.6349,-4.8193,-4.7289,-4.502,-4.7819,-4.777,-4.6127,-4.5797,-4.6129,-4.6612,-1.2651,-1.3787,-1.4722,-1.5034,-1.6345,-1.8218,-2.0806,-2.224,0.0,0.0,0.0,0.0,0.0,-3.0594,-3.0486,0.0,0.0,-2.9356,-2.6981,-2.4961,0.0,0.0,0.0,-1.9109,0.0,-1.697,-1.4618,-1.3769,-1.2706,-1.2324,-1.2587,-1.3376,-1.4701,-1.6598,-2.0894,-2.4307,0.0,0.0,0.0,0.0,0.0,-3.4623,-3.7251,0.0,-3.7245,-3.836,-3.9034,-3.9583,0.0,-3.9995,-3.8767,-3.7455,-3.8434,-3.6852,-3.4907,-3.6515,-3.6416,-3.5661,0.0,0.0,-3.4959,-2.9512,0.0,0.0,0.0,0.0,0.0,0.0,0.0,0.0,0.0,0.0,0.0,0.0,0.0,0.0,0.0,0.0,0.0,0.0,0.0,0.0,0.0,0.0,0.0,0.0,0.0,0.0,-3.9152,-3.987,-4.0096,-4.0096,-4.0815,-4.1542,-4.2286,-4.2768,-4.3525,-4.4615,-4.4298,-4.4327,-4.4649,-4.6109,-4.6786,-4.6841,-4.7686,-4.7373,-4.6244,-4.6884,-4.6224,-4.4946,-4.6539,-4.7138,-4.7067,-4.6809,-4.6689,-4.6832,-1.3165,-1.4091,-1.4863,-1.5087,-1.6318,-1.8081,-2.0383,0.0,0.0,0.0,-2.7483,0.0,-3.0697,0.0,-3.0737,0.0,-3.1397,-3.0452,-2.8241,-2.6981,0.0,-2.6698,-2.3358,0.0,0.0,-1.9229,-1.6804,-1.5743,-1.4505,-1.3915,-1.3956,-1.4854,-1.5913,-1.7205,-2.0796,-2.4528,-2.8178,-2.9562,-3.1597,0.0,0.0,-3.6736,0.0,0.0,-3.923,-3.8523,0.0,-3.9706,-4.0146,-4.0497,-3.9436,-3.8289,-4.0059,-3.8563,-3.6565,-3.8562,-3.8461,-3.7578,-3.7097,-3.7653,0.0,-3.2125,-3.08,0.0,-2.4346,0.0,-2.5713,0.0,0.0,0.0,0.0,0.0,0.0,0.0,0.0,0.0,0.0,-1.2127,0.0,0.0,0.0,0.0,0.0,0.0,0.0,0.0,0.0,0.0,0.0,-3.9716,-3.999,-4.0096,-4.0544,-4.1288,-4.2286,-4.2777,-4.3538,-4.4615,-4.4615,-4.4615,-4.4637,-4.5782,-4.6317,-4.6324,-4.6865,-4.6574,-4.5742,-4.6083,-4.5834,-4.5358,-4.5961,-4.6986,-4.8017,-4.7297,-4.699,-4.7114,-1.4056,-1.4537,-1.4886,-1.4856,-1.6663,0.0,0.0,0.0,-2.4971,0.0,-2.7811,-2.9345,-3.0257,-3.0922,-3.1362,-3.1434,-3.2634,-3.2286,-2.9633,-2.9609,0.0,0.0,-2.6941,-2.6061,-2.8552,0.0,0.0,0.0,-1.6801,-1.5843,-1.5907,-1.6492,-1.726,-1.8301,-2.061,0.0,-2.802,-2.9846,-3.331,-3.7789,-3.9897,-4.0355,-3.9924,-4.1257,-3.9956,-3.7671,-3.9455,-4.0096,-4.0096,-4.0096,-4.0096,-4.0096,-4.0096,-4.0096,-4.0204,-4.0733,-4.1335,-4.1294,-3.9,-3.9211,-3.8853,-3.3721,-3.3212,0.0,0.0,0.0,-2.9971,0.0,0.0,0.0,0.0,0.0,0.0,0.0,0.0,0.0,0.0,0.0,0.0,0.0,0.0,0.0,0.0,0.0,0.0,0.0,0.0,0.0,0.0,0.0,-3.9668,-4.0187,-4.0179,-4.0909,-4.2359,-4.2366,-4.3119,-4.4654,-4.4598,-4.4615,-4.4621,-4.5205,-4.5431,-4.5418,-4.5961,-4.567,-4.4887,-4.569,-4.6103,-4.6224,-4.6138,-4.7238,-4.8718,-4.7294,-4.6966,-4.7424,-1.4651,-1.5474,-1.6069,0.0,-1.6234,-1.7844,0.0,0.0,0.0,0.0,-2.8429,-2.9528,-3.0886,-3.2123,-3.2668,-3.2171,-3.2914,0.0,0.0,0.0,0.0,-3.3441,-2.9718,-2.7906,-2.8583,-2.4228,0.0,-2.0198,0.0,-1.7274,-1.7282,-1.7451,-1.7761,-1.8284,-2.0026,-2.3536,-2.8224,-2.9834,-3.3876,-3.9328,-4.0671,-4.0533,-3.9624,0.0,-3.9914,-3.8377,-3.9642,-4.0096,-4.0096,-4.0096,-4.0096,-4.0096,-4.0096,-4.0096,-4.0204,-4.0733,-4.1335,-4.1669,-4.1025,-4.1699,-4.1711,-3.8132,-3.6898,-3.5687,0.0,0.0,0.0,0.0,0.0,0.0,0.0,0.0,0.0,0.0,0.0,0.0,0.0,0.0,0.0,-1.6356,0.0,0.0,0.0,0.0,0.0,0.0,0.0,0.0,0.0,0.0,0.0,-4.1253,-4.1375,-4.2088,-4.3611,-4.32,-4.3743,-4.5241,-4.4814,-4.4615,-4.4649,-4.5888,-4.6041,-4.5418,-4.5961,-4.567,-4.4774,-4.4228,-4.4899,-4.6138,-4.5431,-4.6045,-4.7331,-4.7642,-4.7543,-4.7352,-1.5404,-1.7035,-1.8072,-1.6847,0.0,0.0,-2.1231,-2.1463,0.0,-2.6802,-2.8142,0.0,-3.0272,-3.1921,-3.2818,-3.2467,-3.3316,0.0,-3.3563,0.0,0.0,-3.4045,-3.2227,-3.1094,-3.0795,-2.745,0.0,-2.2238,0.0,-1.8837,-1.7572,-1.7726,-1.7872,-1.8087,-1.9607,-2.2449,-2.6376,-3.0509,-3.4596,-3.8517,-4.0426,-4.0941,0.0,-4.1204,-4.0709,-3.9785,-4.0739,-4.0832,-4.0578,-4.0578,-4.0807,-4.1077,-4.1077,-4.1077,-4.1172,-4.175,-4.2137,-4.2482,-4.2732,-4.3468,-4.3704,-4.1758,-4.0944,-3.9834,-3.6762,-3.6358,-3.6123,0.0,-3.4284,-3.3941,0.0,0.0,0.0,0.0,0.0,0.0,0.0,0.0,0.0,0.0,0.0,0.0,0.0,0.0,0.0,0.0,0.0,0.0,0.0,0.0,0.0,-4.1651,-4.1117,-4.1821,-4.4071,-4.3073,-4.3548,-4.5511,-4.5169,-4.4869,-4.4621,-4.5283,-4.5304,-4.4805,-4.4894,-4.4615,-4.4105,-4.3512,-4.4441,-4.624,-4.6878,-4.7428,-4.8,-4.8939,-4.8451,-4.7309,-1.6179,-1.8549,0.0,0.0,0.0,0.0,0.0,-2.2321,0.0,-2.6333,0.0,-2.9205,-2.9599,-3.1539,-3.2793,-3.2776,0.0,-3.4273,-3.297,-3.4776,-3.529,-3.3903,-3.4426,-3.4413,-3.3724,-3.1187,-2.8085,0.0,0.0,-2.0381,-1.7296,-1.7647,-1.7749,-1.7715,-1.9203,0.0,0.0,-3.1678,-3.5531,-3.7213,-3.9846,-4.1335,-4.1964,-4.1964,-4.1705,-4.1424,-4.2066,-4.183,-4.1221,-4.1322,-4.1762,-4.2286,-4.2286,-4.2286,-4.2402,-4.2935,-4.3143,-4.3315,-4.3723,-4.4438,-4.4859,-4.4311,-4.4518,-4.3997,-4.0672,-3.9607,-3.9129,-3.8429,-3.6486,-3.5912,0.0,0.0,0.0,0.0,0.0,0.0,0.0,0.0,0.0,0.0,0.0,0.0,0.0,0.0,0.0,0.0,0.0,0.0,0.0,0.0,0.0,-4.1863,-4.0773,-4.1357,-4.4013,-4.2871,-4.3339,-4.5453,-4.5484,-4.5232,-4.4716,-4.4331,-4.4127,-4.4004,-4.3647,-4.3409,-4.329,-4.329,-4.4488,-4.6593,-4.9093,-4.9837,-4.9662,-5.0471,-4.9353,-4.7495,-1.6693,-1.8382,0.0,0.0,0.0,-2.2263,-2.2981,-2.5111,-2.7191,-2.8715,-3.1067,-3.2441,-3.1967,-3.3793,-3.4822,-3.4284,-3.5572,0.0,0.0,0.0,0.0,-3.6175,-3.5727,-3.5147,-3.4369,-3.2349,-2.9494,0.0,0.0,-2.1359,-1.7228,-1.7624,-1.7473,-1.6959,-1.842,0.0,-2.9214,-3.3449,0.0,-3.9555,-4.0502,-4.1071,-4.1367,-4.1367,-4.1663,-4.2117,-4.2236,-4.183,-4.1288,-4.1897,-4.2185,-4.2286,-4.2286,-4.2286,-4.2313,-4.2445,-4.2809,-4.3118,-4.2706,-4.3769,-4.4859,-4.4267,-4.4895,-4.5517,-4.4839,-4.3647,-4.2616,-4.2486,-4.157,-4.0031,-3.7479,0.0,0.0,0.0,0.0,0.0,0.0,0.0,0.0,0.0,0.0,0.0,0.0,0.0,0.0,0.0,0.0,0.0,0.0,0.0,0.0,0.0,-4.3561,0.0,0.0,0.0,-4.5297,-4.5083,-4.5369,-4.5433,-4.5345,-4.5213,-4.4724,-4.4038,-4.4376,-4.4082,-4.329,-4.329,-4.4803,-4.7261,-4.9063,-5.0076,-5.0563,-5.0488,-4.9663,-4.8527,-1.8842,0.0,-2.0938,0.0,0.0,0.0,0.0,-2.7896,-2.9378,-2.8889,-3.0369,-3.1742,-3.2368,-3.4367,-3.5833,-3.6257,-3.6963,-3.7364,-3.7364,-3.7299,-3.7103,-3.6715,-3.6018,-3.528,-3.4512,-3.3609,-3.0784,-2.5895,0.0,-2.2135,-1.6948,-1.7143,-1.7044,-1.6851,0.0,-2.4239,0.0,0.0,0.0,-3.8546,-4.0334,-4.1333,-4.1813,-4.2202,-4.2574,-4.2929,-4.3335,-4.2997,-4.2405,-4.276,-4.3149,-4.3498,-4.3498,-4.3498,-4.3498,-4.3498,-4.3698,-4.4009,-4.4352,-4.5058,-4.5827,-4.6188,-4.6401,-4.6526,-4.6526,-4.5608,-4.4507,-4.368,-4.3516,-4.2194,-3.7749,-3.3912,0.0,0.0,0.0,0.0,0.0,0.0,0.0,0.0,0.0,0.0,0.0,0.0,0.0,0.0,0.0,0.0,0.0,0.0,0.0,0.0,0.0,0.0,-4.5351,0.0,-4.5698,-4.6227,-4.6053,-4.5808,-4.5511,-4.544,-4.4903,-4.4038,-4.4559,-4.422,-4.3399,-4.4788,-4.6639,-4.8749,-5.0388,-5.1512,-5.2178,-5.2054,-5.132,-5.0249,-2.109,-2.2199,0.0,0.0,-2.5937,0.0,-2.8199,-3.0328,-3.1189,-2.9159,-2.9937,-3.1258,-3.2727,-3.4847,-3.6652,-3.7807,-3.8041,-3.8142,-3.8142,-3.7536,-3.7107,-3.695,-3.6197,-3.5454,-3.4739,-3.4857,-3.2357,0.0,0.0,0.0,-1.7873,-1.723,-1.7365,0.0,0.0,0.0,0.0,0.0,-3.6282,-3.7946,-4.0257,-4.1745,-4.2591,-4.32,-4.3521,-4.3741,-4.435,-4.4181,-4.3673,-4.3673,-4.4079,-4.4615,-4.4615,-4.4615,-4.4615,-4.4615,-4.4615,-4.4814,-4.5757,-4.6192,-4.6641,-4.7656,-4.7619,-4.7351,-4.7351,-4.6727,-4.5792,-4.4525,-4.4507,-4.3222,-3.8392,-3.5564,0.0,0.0,0.0,0.0,0.0,0.0,0.0,0.0,0.0,0.0,0.0,0.0,0.0,0.0,0.0,0.0,-3.4504,0.0,0.0,0.0,0.0,-4.2837,-4.504,0.0,-4.6009,-4.7083,-4.6618,-4.6143,-4.5683,-4.5483,-4.5,-4.4341,-4.4854,-4.4723,-4.4334,-4.6643,-4.8565,-5.0165,-5.1698,-5.279,-5.3501,-5.3501,-5.2818,-5.1651,0.0,0.0,0.0,0.0,0.0,0.0,-3.0133,-3.1988,-3.2796,-3.1374,-3.2963,-3.4286,-3.4455,-3.6406,-3.7749,-3.7905,-3.8514,-3.8886,-3.8886,-3.8766,-3.8412,-3.7728,-3.6925,-3.6153,-3.5424,-3.606,-3.4802,0.0,0.0,-2.5592,0.0,-1.8978,-1.9519,0.0,0.0,0.0,0.0,-3.437,-3.6992,-4.0815,-4.1085,-4.2049,-4.3291,-4.3358,-4.3859,-4.4513,-4.4581,-4.4564,-4.4496,-4.4496,-4.4547,-4.4615,-4.4615,-4.4615,-4.4615,-4.4615,-4.4615,-4.4626,-4.4748,-4.5571,-4.643,-4.6548,-4.7377,-4.8196,-4.8196,-4.7571,-4.6947,-4.6782,-4.5663,-4.3222,-3.8392,-4.0173,-3.9971,0.0,0.0,0.0,0.0,0.0,-3.3587,0.0,0.0,0.0,0.0,0.0,0.0,0.0,-2.5548,0.0,0.0,0.0,0.0,-3.8006,-3.9439,-3.957,-3.841,-4.4764,-4.7333,-4.6048,-4.6279,-4.6383,-4.6275,-4.5669,-4.5336,-4.5323,-4.5858,-4.6399,-4.7005,-4.8113,-4.9449,-5.0894,-5.19,-5.279,-5.3501,-5.3501,-5.2818,-5.1724,0.0,0.0,0.0,0.0,0.0,0.0,0.0,-3.2976,-3.3305,-3.2781,-3.421,-3.5465,-3.5909,-3.7509,-3.8734,-3.9174,-3.9503,-3.9673,-3.9673,-3.8776,-3.8121,-3.7806,-3.6615,-3.5814,-3.5504,-3.6212,-3.5159,0.0,0.0,0.0,0.0,-2.1735,-2.2919,0.0,0.0,-3.1698,-3.4675,-3.7381,-3.9563,-4.1288,-4.2168,-4.2868,-4.3443,-4.3944,-4.4316,-4.4615,-4.4615,-4.4615,-4.4615,-4.4615,-4.4615,-4.4615,-4.4615,-4.4615,-4.4615,-4.4615,-4.4615,-4.4665,-4.5052,-4.5757,-4.6501,-4.691,-4.7656,-4.8306,-4.8306,-4.8048,-4.7681,-4.7204,-4.581,-4.3975,-4.155,-4.0448,-3.9641,-3.8796,0.0,0.0,0.0,0.0,0.0,0.0,0.0,0.0,0.0,0.0,0.0,0.0,0.0,0.0,0.0,0.0,0.0,-3.4637,0.0,-4.2298,-3.981,-4.5442,-4.7803,-4.6791,-4.6538,-4.6216,-4.5868,-4.6118,-4.6414,-4.6684,-4.635,-4.6942,-4.8213,-4.9035,-5.0306,-5.1816,-5.269,-5.3213,-5.3501,-5.3501,-5.323,-5.2714,-2.8107,0.0,-2.8527,0.0,-3.1176,-3.1748,-3.3769,-3.4083,-3.4083,-3.4083,-3.516,-3.6077,-3.6403,-3.7768,-3.8929,-3.968,-3.9558,-3.9506,-3.9731,-3.8302,-3.7456,-3.7456,-3.6196,0.0,-3.5504,-3.6212,-3.5716,-3.3868,-3.1429,0.0,-2.664,-2.5296,-2.6504,0.0,-3.2858,-3.5037,-3.6671,-3.9851,-4.1457,-4.1948,-4.297,-4.3527,-4.3809,-4.4395,-4.4615,-4.4615,-4.4615,-4.4615,-4.4615,-4.4615,-4.4615,-4.4615,-4.4615,-4.4615,-4.4615,-4.4615,-4.4615,-4.4692,-4.5115,-4.5673,-4.6288,-4.6955,-4.7554,-4.8075,-4.8267,-4.8306,-4.801,-4.7032,-4.5752,-4.4565,-4.3743,-4.0956,-3.9358,-4.1187,0.0,0.0,0.0,-4.188,0.0,0.0,-3.9551,-3.79,-3.7529,-3.1494,0.0,0.0,0.0,0.0,0.0,0.0,0.0,0.0,0.0,0.0,-4.0914,-4.5827,-4.8015,-4.7385,-4.671,-4.6193,-4.5849,-4.6743,-4.7463,-4.7966,-4.7306,-4.7948,-4.9476,-5.0008,-5.1196,-5.2706,-5.3281,-5.3501,-5.3501,-5.3501,-5.3501,-5.3348,-2.9311,-3.0069,-3.1094,-3.3129,-3.4003,-3.4651,-3.537,-3.5489,-3.5489,-3.5489,-3.6118,-3.6321,-3.57,-3.6941,-3.8104,-3.8854,-3.8262,-3.8149,-3.8881,-3.7467,-3.66,0.0,0.0,-3.5504,-3.5504,-3.6212,-3.6978,-3.7713,0.0,0.0,-3.4269,-2.9815,-3.0125,-3.4382,-3.3707,-3.6281,-4.1119,-4.1187,-4.2049,-4.3358,-4.3375,-4.3876,-4.4598,-4.4615,-4.4615,-4.4615,-4.4615,-4.4615,-4.4615,-4.4615,-4.4615,-4.4615,-4.4615,-4.4615,-4.4615,-4.4615,-4.4615,-4.4615,-4.4598,-4.5052,-4.5673,-4.6264,-4.691,-4.7572,-4.8172,-4.8306,-4.7895,-4.6496,-4.5621,-4.4827,-4.3973,-4.2667,-4.0644,-3.7236,0.0,0.0,0.0,-3.8059,0.0,-3.7689,-3.1892,-3.0479,-3.6886,-2.9469,0.0,0.0,0.0,0.0,0.0,0.0,0.0,-3.7309,-3.909,0.0,-3.9934,-4.5498,-4.8015,-4.7385,-4.671,-4.6474,-4.6601,-4.7481,-4.8277,-4.897,-4.897,-4.9799,-5.1168,-5.1185,-5.2081,-5.3501,-5.3501,-5.3501,-5.3501,-5.3501,-5.3501,-5.3348,-3.1405,-3.2109,-3.2889,-3.3988,-3.4739,-3.525,-3.5474,-3.5504,-3.5504,-3.5504,-3.5686,-3.5787,-3.5575,-3.69,-3.7892,0.0,-3.7921,-3.7892,0.0,-3.7174,-3.6615,-3.6615,-3.5894,-3.5504,-3.5504,-3.6768,-3.7544,-3.7793,0.0,0.0,0.0,-3.4029,-3.4998,-3.8328,-3.8597,-3.9648,-4.1271,-4.2286,-4.2953,-4.3443,-4.3995,-4.435,-4.4615,-4.4615,-4.4615,-4.4615,-4.4615,-4.4615,-4.4615,-4.4615,-4.4615,-4.4615,-4.4615,-4.4615,-4.4615,-4.4615,-4.4615,-4.4615,-4.4615,-4.5052,-4.5648,-4.624,-4.691,-4.7551,-4.8172,-4.8306,-4.7895,-4.6496,-4.5601,-4.4725,-4.3426,-4.2431,-4.1445,-4.0326,-4.1079,0.0,-4.0867,0.0,-4.1542,-4.1576,-3.9442,-3.8769,0.0,-3.546,0.0,0.0,0.0,0.0,0.0,0.0,0.0,0.0,-4.0622,0.0,-4.0877,-4.5809,-4.7759,-4.671,-4.7068,-4.7299,-4.751,-4.8255,-4.8731,-4.9035,-4.9526,-5.0304,-5.1251,-5.1758,-5.257,-5.3501,-5.3501,-5.3501,-5.3501,-5.3501,-5.3501,-5.3467,-3.2374,-3.3044,-3.3719,-3.4382,-3.504,-3.5504,-3.5504,-3.5504,-3.5504,-3.5504,-3.5504,-3.5504,-3.5504,-3.6352,0.0,-3.7338,-3.7086,-3.7055,-3.7338,-3.6631,-3.6196,-3.6196,-3.5765,-3.5504,-3.5504,-3.7011,0.0,-3.8206,-3.8667,-3.8877,-3.8836,-3.7774,-3.8589,-4.0916,-4.0824,-4.1254,-4.21,-4.3003,-4.3561,-4.3893,-4.4412,-4.4615,-4.4615,-4.4615,-4.4615,-4.4615,-4.4615,-4.4615,-4.4615,-4.4615,-4.4615,-4.4615,-4.4615,-4.4615,-4.4615,-4.4615,-4.4615,-4.4615,-4.4615,-4.4896,-4.5372,-4.6192,-4.671,-4.7259,-4.8113,-4.8306,-4.7909,-4.6564,-4.5466,-4.4403,-4.3228,-4.2002,-4.1218,-4.1424,-4.1286,-4.1442,-4.2262,0.0,-4.2078,0.0,0.0,0.0,0.0,-3.747,-3.5861,0.0,0.0,0.0,0.0,0.0,0.0,-3.728,-4.3198,-4.5423,-4.35,-4.6673,-4.7677,-4.6407,-4.7276,-4.7873,-4.828,-4.8993,-4.9344,-4.9411,-4.987,-5.0524,-5.1268,-5.1995,-5.2773,-5.3501,-5.3501,-5.3501,-5.3467,-5.3162,-5.3061,-5.301,-3.2434,-3.3062,-3.3724,0.0,-3.5085,0.0,-3.5504,-3.5504,-3.5504,-3.5504,-3.5504,-3.5504,-3.5504,-3.5504,-3.5812,-3.6538,0.0,0.0,0.0,-3.597,-3.5609,-3.5579,-3.5609,-3.5639,-3.5639,-3.7091,-3.8272,-3.9138,-4.1266,-4.232,-4.2354,-4.0917,-4.0988,-4.2226,-4.0933,-4.1472,-4.3392,-4.3443,-4.3927,-4.4615,-4.4615,-4.4615,-4.4615,-4.4615,-4.4615,-4.4615,-4.4615,-4.4615,-4.4615,-4.4615,-4.4615,-4.4615,-4.4615,-4.4615,-4.4615,-4.4615,-4.4615,-4.4615,-4.4615,-4.4615,-4.4879,-4.6112,-4.6478,-4.6847,-4.8017,-4.8267,-4.7879,-4.6646,-4.5227,-4.3978,-4.3266,-4.1518,-4.033,-4.0774,-4.0441,-4.049,-4.1639,-4.181,-4.0828,-3.823,0.0,0.0,-3.6966,-3.6467,-3.7828,0.0,0.0,0.0,0.0,0.0,-3.6681,-4.4618,-4.6324,-4.7131,-4.7186,-4.792,-4.7731,-4.6655,-4.7525,-4.8342,-4.9087,-4.9799,-5.01,-5.0028,-5.0165,-5.0621,-5.1268,-5.2063,-5.2824,-5.3501,-5.3501,-5.3501,-5.3416,-5.2655,-5.235,-5.2198,0.0,0.0,-3.3858,-3.5055,-3.54,-3.5504,-3.5504,-3.5504,-3.5504,-3.5504,-3.5504,-3.5504,-3.5504,-3.5504,-3.5764,-3.6459,-3.637,-3.6127,-3.578,-3.6502,-3.6746,-3.6267,-3.6701,-3.6956,-3.6956,-3.7921,-3.939,-4.1413,-4.2004,-4.2591,-4.3105,-4.221,-4.1967,-4.2303,-4.253,-4.2901,-4.3426,-4.4062,-4.4445,-4.4615,-4.4615,-4.4615,-4.4615,-4.4615,-4.4615,-4.4615,-4.4615,-4.4615,-4.4615,-4.4615,-4.4615,-4.4615,-4.4615,-4.4615,-4.4615,-4.4615,-4.4615,-4.4615,-4.4615,-4.4615,-4.4879,-4.6112,-4.7132,-4.7937,-4.823,-4.7937,-4.7385,-4.6571,-4.5291,-4.3975,-4.2748,-4.1646,-4.0798,-4.0364,-4.0179,-4.049,-4.1639,-4.181,-4.1886,-4.2056,-4.1194,-4.0573,-4.0573,-4.0034,-3.8868,0.0,0.0,-3.8022,-3.9353,-3.8194,-4.025,-4.6342,-4.6892,-4.7388,-4.8012,-4.8214,-4.8498,-4.8923,-4.9208,-4.9773,-5.0594,-5.1304,-5.1016,-5.0074,-5.1252,-5.1548,-5.1286,-5.2672,-5.3331,-5.3501,-5.3501,-5.3501,-5.3484,-5.3298,-5.2841,-5.2283,-3.3245,-3.3499,-3.3918,-3.5265,-3.5504,-3.5504,-3.5504,-3.5504,-3.5504,-3.5504,-3.5774,-3.5953,-3.5953,-3.6207,-3.6522,-3.6881,-3.6656,-3.6447,-3.6372,-3.7389,-3.7849,-3.7514,-3.7819,-3.8185,-3.8565,-3.8998,-4.036,-4.2756,-4.3143,-4.3555,-4.3927,-4.3166,-4.2997,-4.3335,-4.3403,-4.3606,-4.3978,-4.4401,-4.4615,-4.4615,-4.4615,-4.4615,-4.4615,-4.4615,-4.4615,-4.4615,-4.4615,-4.4615,-4.4615,-4.4615,-4.4615,-4.4615,-4.4615,-4.4615,-4.4615,-4.4615,-4.4615,-4.4615,-4.4615,-4.4615,-4.4814,-4.5757,-4.671,-4.7512,-4.7818,-4.7406,-4.6842,-4.6478,-4.5327,-4.4069,-4.2996,-4.2202,-4.1545,-4.1083,-4.0996,-4.13,-4.2092,-4.2203,-4.2568,-4.3523,-4.2844,-4.2335,-4.2414,-4.1594,-4.0268,-3.832,-3.8495,0.0,-4.061,-4.1397,-4.3466,-4.7002,-4.7461,-4.7846,-4.8306,-4.8035,-4.8514,-4.9704,-4.9771,-5.0417,-5.1569,-5.1928,-5.1519,-5.056,-5.1761,-5.1888,-5.1303,-5.2875,-5.3501,-5.3501,-5.3501,-5.3501,-5.3416,-5.2723,-5.2181,-5.1708,-3.3245,-3.3484,-3.3917,-3.528,-3.5504,-3.5504,-3.5504,-3.5594,-3.5654,-3.5654,-3.6222,-3.6626,-3.6626,-3.709,-3.7449,-3.7539,-3.7075,-3.6956,-3.7375,-3.8284,-3.876,-3.8652,-3.8876,-3.9359,-4.0081,-4.0312,-4.1386,-4.3378,-4.4193,-4.4615,-4.4598,-4.391,-4.3944,-4.4581,-4.3893,-4.3961,-4.4615,-4.4615,-4.4615,-4.4615,-4.4615,-4.4615,-4.4615,-4.4615,-4.4615,-4.4615,-4.4615,-4.4615,-4.4615,-4.4615,-4.4615,-4.4615,-4.4615,-4.4615,-4.4615,-4.4615,-4.4615,-4.4615,-4.4615,-4.4682,-4.4852,-4.5355,-4.5965,-4.6548,-4.7128,-4.6751,-4.6264,-4.6264,-4.5284,-4.4216,-4.3529,-4.2895,-4.2226,-4.1474,-4.1877,-4.2235,-4.214,-4.2598,-4.319,-4.3897,-4.3376,-4.3003,-4.3172,-4.2083,-4.1588,-4.2088,-4.2137,-4.2721,-4.4071,-4.4747,-4.5655,-4.6954,-4.7747,-4.821,-4.8306,-4.7797,-4.8326,-4.9878,-4.9923,-5.0755,-5.2271,-5.2271,-5.1832,-5.1148,-5.2077,-5.1963,-5.1303,-5.2875,-5.3501,-5.3501,-5.3501,-5.3501,-5.3331,-5.1911,-5.1319,-5.1014,-3.3366,-3.3511,-3.3925,-3.5262,-3.5504,-3.5504,-3.5504,-3.5968,-3.6327,-3.6327,-3.6881,-3.727,-3.727,-3.7345,-3.7629,-3.8197,-3.8153,-3.7898,-3.7434,-3.8607,-3.9038,-3.8451,-3.9699,-4.0466,-4.0585,-4.2025,-4.295,-4.332,-4.4174,-4.4615,-4.4615,-4.4479,-4.4496,-4.4598,-4.4479,-4.4496,-4.4615,-4.4615,-4.4615,-4.4615,-4.4615,-4.4615,-4.4615,-4.4615,-4.4615,-4.4615,-4.4615,-4.4615,-4.4615,-4.4615,-4.4615,-4.4615,-4.4615,-4.4615,-4.4615,-4.4615,-4.4615,-4.4615,-4.4615,-4.4971,-4.5381,-4.5485,-4.5965,-4.643,-4.6524,-4.6088,-4.5648,-4.5648,-4.5066,-4.4347,-4.3538,-4.3291,-4.2079,-3.8528,-4.0861,-4.2293,-3.9893,-4.206,-4.4118,-4.4741,-4.384,-4.3176,-4.3217,-4.2544,-4.217,-4.2258,-4.2258,-4.286,-4.4275,-4.4456,-4.5131,-4.6468,-4.7183,-4.7777,-4.8287,-4.821,-4.8995,-5.0623,-5.0643,-5.1486,-5.302,-5.302,-5.233,-5.1174,-5.2543,-5.2421,-5.1303,-5.2875,-5.3501,-5.3501,-5.3501,-5.3501,-5.3399,-5.2469,-5.1742,-5.1099,-3.4007,-3.4091,-3.4215,-3.4846,-3.525,-3.5624,-3.5983,-3.6297,-3.6611,-3.6941,-3.7539,-3.7943,-3.7943,-3.8272,-3.8616,-3.8916,-3.8945,-3.8811,-3.8512,-3.9481,-3.9978,-3.9642,-4.0331,-4.069,-4.069,-4.2426,-4.3306,-4.3306,-4.4167,-4.4615,-4.4615,-4.4615,-4.4615,-4.4615,-4.4615,-4.4615,-4.4615,-4.4615,-4.4615,-4.4615,-4.4615,-4.4852,-4.5145,-4.4767,-4.4869,-4.5128,-4.475,-4.4615,-4.4615,-4.4615,-4.4615,-4.4615,-4.4615,-4.4615,-4.4615,-4.4615,-4.4615,-4.4615,-4.4615,-4.4786,-4.5025,-4.5025,-4.5232,-4.5511,-4.584,-4.5459,-4.5115,-4.5433,-4.5025,-4.4496,-4.4113,-4.4045,-4.3362,-4.1336,-4.2886,-4.3835,-4.2429,-4.3589,-4.4711,-4.5075,-4.4324,-4.3837,-4.3947,-4.3321,-4.2895,-4.2895,-4.2895,-4.3165,-4.3818,-4.4272,-4.4791,-4.5407,-4.6705,-4.7695,-4.8287,-4.8306,-4.915,-5.0802,-5.0802,-5.1646,-5.3185,-5.2791,-5.206,-5.1174,-5.2285,-5.2188,-5.1303,-5.2875,-5.3501,-5.3501,-5.3501,-5.3501,-5.3365,-5.2164,-5.1505,-5.1048,-3.4603,-3.4597,-3.4493,-3.4483,-3.5053,-3.5729,-3.6387,-3.6611,-3.6926,-3.7554,-3.8212,-3.8631,-3.8631,-3.9095,-3.9388,-3.9388,-3.9388,-3.9388,-3.9388,-4.0025,-4.0397,-4.0397,-4.0588,-4.0777,-4.1013,-4.252,-4.3306,-4.3306,-4.4167,-4.4615,-4.4615,-4.4615,-4.4615,-4.4615,-4.4615,-4.4615,-4.4615,-4.4615,-4.4615,-4.4615,-4.4801,-4.5077,-4.5399,-4.4993,-4.5094,-4.5365,-4.4818,-4.4615,-4.4615,-4.4615,-4.4615,-4.4615,-4.4615,-4.4615,-4.4615,-4.4615,-4.4615,-4.4615,-4.4615,-4.4615,-4.4615,-4.4615,-4.4615,-4.472,-4.5178,-4.4934,-4.472,-4.5205,-4.4934,-4.4654,-4.4786,-4.4692,-4.4354,-4.3521,-4.4463,-4.5014,-4.4266,-4.4698,-4.5205,-4.5457,-4.4811,-4.4445,-4.4603,-4.4045,-4.369,-4.369,-4.369,-4.369,-4.369,-4.4248,-4.4654,-4.4814,-4.6329,-4.7533,-4.8287,-4.8508,-4.9275,-5.0542,-5.0926,-5.1645,-5.2702,-5.2287,-5.1672,-5.0884,-5.1877,-5.1888,-5.1303,-5.2875,-5.3501,-5.3501,-5.3501,-5.3399,-5.3061,-5.1708,-5.1099,-5.0728,-3.4805,-3.4598,-3.4496,-3.4513,-3.5073,-3.5729,-3.6387,-3.6971,-3.7569,-3.8227,-3.8916,-3.9349,-3.9349,-3.9394,-3.9388,-3.9388,-3.9388,-3.9388,-3.9388,-3.9445,-3.9517,-3.9517,-4.0274,-4.108,-4.1901,-4.2816,-4.3306,-4.3306,-4.4167,-4.4615,-4.4615,-4.4615,-4.4615,-4.4615,-4.4615,-4.4615,-4.4615,-4.4615,-4.4615,-4.4666,-4.5331,-4.5229,-4.4767,-4.5382,-4.5229,-4.4682,-4.4632,-4.4615,-4.4615,-4.4615,-4.4615,-4.4615,-4.4615,-4.4615,-4.4615,-4.4615,-4.4615,-4.4615,-4.4615,-4.4615,-4.4615,-4.4615,-4.4615,-4.4598,-4.4654,-4.4626,-4.4598,-4.4654,-4.4626,-4.4759,-4.532,-4.4971,-4.3746,-4.1098,-4.3393,-4.4585,-4.2027,-4.3865,-4.5676,-4.623,-4.5286,-4.4586,-4.4598,-4.4564,-4.4513,-4.4513,-4.4513,-4.4513,-4.4513,-4.4581,-4.4869,-4.5425,-4.6112,-4.7066,-4.8287,-4.9095,-4.9585,-4.9789,-5.1228,-5.1682,-5.1276,-5.19,-5.1429,-5.0159,-5.1661,-5.1888,-5.1303,-5.2875,-5.3501,-5.3501,-5.3501,-5.3044,-5.23,-5.1505,-5.0777,-4.9955,-3.6151,-3.5927,-3.5706,-3.5203,-3.5678,-3.6462,-3.7509,-3.7868,-3.8257,-3.8931,-3.926,-3.9388,-3.9388,-3.9388,-3.9388,-3.9388,-3.9388,-3.9388,-3.9388,-3.9388,-3.9388,-3.9388,-3.9702,-4.006,-4.0378,-4.1772,-4.2489,-4.2489,-4.3902,-4.4615,-4.4615,-4.4615,-4.4615,-4.4632,-4.506,-4.501,-4.4632,-4.5077,-4.501,-4.4666,-4.5399,-4.5534,-4.5314,-4.5602,-4.5534,-4.5213,-4.4767,-4.4615,-4.4615,-4.4615,-4.4615,-4.4615,-4.4615,-4.4615,-4.4615,-4.4615,-4.4615,-4.4615,-4.4615,-4.4615,-4.4615,-4.4615,-4.4615,-4.4615,-4.4615,-4.4615,-4.4615,-4.4615,-4.4615,-4.4682,-4.4906,-4.4748,-4.4262,-4.316,-4.4717,-4.5578,-4.4144,-4.5157,-4.6014,-4.584,-4.5115,-4.4615,-4.4615,-4.4615,-4.4615,-4.4615,-4.4615,-4.4615,-4.4615,-4.4615,-4.4896,-4.5485,-4.6611,-4.7615,-4.8481,-4.8852,-4.9513,-5.0448,-5.0617,-5.1096,-5.1759,-5.1152,-5.1041,-5.1429,-5.1538,-5.1726,-5.1978,-5.3061,-5.3501,-5.3501,-5.3501,-5.301,-5.2215,-5.1488,-5.0355,-4.9077,-3.7252,-3.6847,-3.6457,-3.5911,-3.6193,-3.6933,-3.8217,-3.8397,-3.8652,-3.9334,-3.9388,-3.9388,-3.9388,-3.9388,-3.9388,-3.9388,-3.9388,-3.9388,-3.9388,-3.9388,-3.9388,-3.9388,-3.9388,-3.9388,-3.9388,-4.0826,-4.1739,-4.1997,-4.3701,-4.4545,-4.4615,-4.5089,-4.5173,-4.4976,-4.572,-4.5754,-4.5326,-4.5821,-4.5737,-4.5376,-4.6092,-4.6261,-4.6058,-4.6058,-4.5906,-4.5602,-4.484,-4.4615,-4.4615,-4.4615,-4.4615,-4.4615,-4.4615,-4.4615,-4.4615,-4.4615,-4.4615,-4.4615,-4.4615,-4.4615,-4.4615,-4.4615,-4.4615,-4.4615,-4.4615,-4.4615,-4.4615,-4.4615,-4.4615,-4.4654,-4.4841,-4.472,-4.4654,-4.4852,-4.5407,-4.5757,-4.552,-4.5681,-4.5757,-4.5537,-4.4971,-4.4615,-4.4615,-4.4615,-4.4615,-4.4615,-4.4615,-4.4615,-4.4615,-4.4615,-4.4905,-4.5522,-4.6976,-4.8038,-4.8705,-4.94,-5.0032,-5.0576,-5.0858,-5.1043,-5.1182,-5.0892,-5.1038,-5.1605,-5.1543,-5.1843,-5.2367,-5.3179,-5.3501,-5.3484,-5.323,-5.2655,-5.1877,-5.1133,-4.9773,-4.8231,-3.7928,-3.711,-3.6511,-3.6529,-3.6503,-3.6936,-3.8222,-3.8407,-3.8642,-3.932,-3.9424,-3.9424,-3.9424,-3.9424,-3.9424,-3.9424,-3.9409,-3.9388,-3.9388,-3.9388,-3.9388,-3.9388,-3.9388,-3.9388,-3.9388,-4.0239,-4.1113,-4.1997,-4.3611,-4.4484,-4.4649,-4.6109,-4.6413,-4.5737,-4.6481,-4.6802,-4.6786,-4.6802,-4.6802,-4.6853,-4.7614,-4.7462,-4.6786,-4.6786,-4.6346,-4.5602,-4.484,-4.4615,-4.4615,-4.4615,-4.4615,-4.4615,-4.4615,-4.4615,-4.4615,-4.4615,-4.4615,-4.4615,-4.4615,-4.4615,-4.4615,-4.4615,-4.4615,-4.4615,-4.4615,-4.4615,-4.4615,-4.4615,-4.4615,-4.4786,-4.5381,-4.4998,-4.4786,-4.5399,-4.4998,-4.4814,-4.5407,-4.4971,-4.4841,-4.5433,-4.4971,-4.4598,-4.4598,-4.4598,-4.4615,-4.4615,-4.4615,-4.4615,-4.4615,-4.4615,-4.4925,-4.5686,-4.7079,-4.8154,-4.89,-5.0958,-5.1284,-4.9937,-5.221,-5.1777,-4.9103,-5.1285,-5.1488,-5.0202,-5.1674,-5.23,-5.2367,-5.3179,-5.3501,-5.3416,-5.2621,-5.186,-5.1083,-5.0371,-4.902,-4.7456,-3.8825,-3.8364,-3.8131,-3.7988,-3.7511,-3.758,-3.8916,-3.9116,-3.9155,-3.9394,-3.992,-4.0309,-4.0309,-4.0309,-4.0309,-4.0309,-3.9758,-3.9388,-3.9388,-3.9388,-3.9388,-3.9388,-3.9388,-3.9388,-3.9388,-4.0239,-4.1382,-4.2783,-4.3856,-4.5,-4.6143,-4.6583,-4.6667,-4.6498,-4.7242,-4.7293,-4.6819,-4.7361,-4.7276,-4.6853,-4.7614,-4.7158,-4.6075,-4.6599,-4.6007,-4.4919,-4.4682,-4.4615,-4.4615,-4.4615,-4.4615,-4.4615,-4.4615,-4.4615,-4.4615,-4.4615,-4.4615,-4.4615,-4.4615,-4.4615,-4.4615,-4.4615,-4.4615,-4.4615,-4.4615,-4.4615,-4.4615,-4.4615,-4.4615,-4.4654,-4.4841,-4.472,-4.4654,-4.4841,-4.5062,-4.5142,-4.4906,-4.5062,-4.5294,-4.5485,-4.5346,-4.5232,-4.5232,-4.5232,-4.5052,-4.4626,-4.4615,-4.4615,-4.4615,-4.5077,-4.5466,-4.5703,-4.7578,-4.892,-4.9652,-5.0813,-5.1173,-5.0724,-5.0922,-5.1095,-5.1309,-5.0944,-5.1386,-5.2486,-5.235,-5.2621,-5.3196,-5.3939,-5.362,-5.2687,-5.3012,-5.203,-5.0388,-5.0168,-4.8629,-4.6574,-3.9881,-3.9447,-3.9063,-3.8616,-3.8107,-3.8065,-3.8886,-3.923,-3.9388,-3.9388,-3.9864,-4.0185,-4.0185,-4.0185,-4.0185,-4.0185,-3.9702,-3.9388,-3.9388,-3.9388,-3.9388,-3.9388,-3.9388,-3.9388,-3.9388,-3.9935,-4.0962,-4.2539,-4.3391,-4.4447,-4.5715,-4.6295,-4.6411,-4.6147,-4.6908,-4.7198,-4.7144,-4.7596,-4.7732,-4.7716,-4.8173,-4.7648,-4.6599,-4.6735,-4.6058,-4.4947,-4.4296,-4.4327,-4.4542,-4.4196,-4.4327,-4.4542,-4.4196,-4.4093,-4.4006,-4.3663,-4.3814,-4.4093,-4.4093,-4.4355,-4.4615,-4.4615,-4.4615,-4.4615,-4.4615,-4.4615,-4.4615,-4.4615,-4.4615,-4.4615,-4.4615,-4.4615,-4.4615,-4.4615,-4.4906,-4.5025,-4.4654,-4.4906,-4.5232,-4.5485,-4.5511,-4.5511,-4.5511,-4.5511,-4.5258,-4.4654,-4.4615,-4.4615,-4.4615,-4.5297,-4.5838,-4.6126,-4.7939,-4.9111,-4.9607,-5.0594,-5.1241,-5.1512,-5.1697,-5.1815,-5.1874,-5.1888,-5.2318,-5.3027,-5.2858,-5.3024,-5.3502,-5.3925,-5.3415,-5.2321,-5.249,-5.1562,-5.005,-4.9763,-4.82,-4.6208,-4.1039,-4.0384,-3.9556,-3.878,-3.8506,-3.8415,-3.8472,-3.9011,-3.9388,-3.9388,-3.9481,-3.9532,-3.9592,-3.9607,-3.9622,-3.9682,-3.958,-3.9448,-3.9388,-3.9388,-3.9388,-3.9388,-3.9388,-3.9388,-3.9388,-3.9388,-4.0207,-4.1802,-4.2477,-4.3278,-4.4234,-4.5581,-4.5837,-4.5243,-4.5901,-4.6662,-4.7473,-4.7473,-4.7982,-4.875,-4.875,-4.8326,-4.7595,-4.6844,-4.6161,-4.5385,-4.3764,-4.3739,-4.4355,-4.3562,-4.3814,-4.4355,-4.3562,-4.3246,-4.3017,-4.2221,-4.2552,-4.3169,-4.3169,-4.3768,-4.4384,-4.444,-4.4485,-4.4514,-4.457,-4.4615,-4.4615,-4.4615,-4.4615,-4.4615,-4.4615,-4.4615,-4.4615,-4.4615,-4.4615,-4.4615,-4.4615,-4.4615,-4.4814,-4.5433,-4.5545,-4.5571,-4.5571,-4.552,-4.5267,-4.472,-4.4626,-4.4615,-4.4615,-4.5348,-4.6109,-4.6769,-4.8163,-4.8976,-4.9107,-5.0352,-5.1343,-5.2036,-5.356,-5.3246,-5.1367,-5.3511,-5.3702,-5.235,-5.3162,-5.3471,-5.3389,-5.3389,-5.2918,-5.2134,-5.1459,-5.0691,-4.9915,-4.9255,-4.7803,-4.6189,-4.2116,-4.1324,-4.0628,-4.0391,-3.9257,-3.8593,-3.9104,-3.932,-3.9388,-3.9388,-3.999,-4.0612,-4.1131,-4.1192,-4.1407,-4.1945,-4.0882,-3.9963,-3.9418,-3.9388,-3.9388,-3.9388,-3.9388,-3.9388,-3.9388,-3.9388,-4.0455,-4.2554,-4.2729,-4.38,-4.5725,-4.6029,-4.6093,-4.5965,-4.6144,-4.6314,-4.6488,-4.6488,-4.6627,-4.6815,-4.6815,-4.647,-4.5868,-4.5,-4.475,-4.4603,-4.2896,-4.2847,-4.3562,-4.3366,-4.3443,-4.3562,-4.3366,-4.2816,-4.2252,-4.2062,-4.2125,-4.2284,-4.2284,-4.241,-4.2738,-4.3426,-4.3591,-4.3756,-4.444,-4.4615,-4.4615,-4.4615,-4.4615,-4.4615,-4.4615,-4.4615,-4.4615,-4.4615,-4.4615,-4.4615,-4.4615,-4.4615,-4.4814,-4.5433,-4.5915,-4.6192,-4.6192,-4.5783,-4.5433,-4.532,-4.4869,-4.4615,-4.4615,-4.5838,-4.6616,-4.6786,-4.8235,-4.9248,-4.9763,-5.009,-5.0608,-5.1335,-5.2295,-5.2484,-5.2028,-5.3194,-5.3221,-5.235,-5.3162,-5.3471,-5.3389,-5.345,-5.2683,-5.1424,-5.1309,-5.0442,-4.9221,-4.9069,-4.7803,-4.5961,-4.2864,-4.2419,-4.1731,-4.0526,-3.9856,-3.936,-3.8966,-3.9215,-3.9388,-3.9388,-4.0081,-4.0705,-4.1035,-4.137,-4.169,-4.2041,-4.1053,-4.0247,-3.9903,-3.9589,-3.9388,-3.9388,-3.9388,-3.9574,-3.9888,-3.9888,-4.0609,-4.2129,-4.245,-4.3368,-4.4825,-4.4825,-4.4825,-4.4825,-4.4825,-4.5085,-4.5525,-4.5525,-4.5798,-4.6208,-4.6208,-4.5617,-4.474,-4.4277,-4.3783,-4.3183,-4.1869,-4.1658,-4.2125,-4.2552,-4.2676,-4.2614,-4.2189,-4.1739,-4.1313,-4.086,-4.1046,-4.1379,-4.1379,-4.1674,-4.2093,-4.2552,-4.2676,-4.3031,-4.4327,-4.4615,-4.4615,-4.4615,-4.4615,-4.4615,-4.4615,-4.4615,-4.4615,-4.4615,-4.4615,-4.4615,-4.4615,-4.4615,-4.4814,-4.5433,-4.5783,-4.5965,-4.5965,-4.5699,-4.5399,-4.5089,-4.4786,-4.4615,-4.4615,-4.5991,-4.6786,-4.6786,-4.824,-4.9152,-4.9521,-4.9504,-5.0252,-5.1679,-5.2458,-5.2613,-5.2295,-5.3488,-5.3204,-5.1843,-5.301,-5.3062,-5.2364,-5.2757,-5.2025,-5.0628,-5.0685,-4.9983,-4.9001,-4.9001,-4.7803,-4.5996,-4.3519,-4.3405,-4.2611,-4.0467,-4.0415,-4.0197,-3.8772,-3.905,-3.9388,-3.9388,-3.9993,-4.0442,-4.0561,-4.125,-4.1669,-4.1602,-4.1055,-4.0681,-4.0576,-3.9948,-3.9694,-3.9903,-3.9709,-3.9948,-4.0711,-4.0726,-4.0995,-4.1587,-4.2126,-4.2701,-4.329,-4.329,-4.329,-4.329,-4.329,-4.3771,-4.4548,-4.4548,-4.4989,-4.571,-4.571,-4.4957,-4.3838,-4.3701,-4.2964,-4.1869,-4.0844,-4.0554,-4.0811,-4.1528,-4.1772,-4.1658,-4.0912,-4.0588,-4.0343,-3.961,-3.992,-4.0466,-4.0466,-4.1028,-4.1576,-4.1739,-4.1772,-4.2221,-4.396,-4.4384,-4.4412,-4.457,-4.4615,-4.4615,-4.4615,-4.4615,-4.4615,-4.4615,-4.4615,-4.4615,-4.4615,-4.4615,-4.4803,-4.5294,-4.5433,-4.5545,-4.5648,-4.5648,-4.5407,-4.4786,-4.4748,-4.4692,-4.4615,-4.5991,-4.6786,-4.6786,-4.824,-4.9001,-4.9001,-4.9001,-5.0056,-5.2114,-5.2607,-5.2645,-5.234,-5.3628,-5.3049,-5.1099,-5.2503,-5.2362,-5.1234,-5.1709,-5.1168,-4.9976,-4.9879,-4.9492,-4.897,-4.8829,-4.777,-4.633,-4.4423,-4.381,-4.297,-4.1885,-4.1152,-4.0366,-3.9418,-3.9328,-3.9388,-3.9388,-3.9993,-4.0621,-4.119,-4.2342,-4.2836,-4.2321,-4.2186,-4.1886,-4.128,-4.0636,-4.0771,-4.1946,-4.0876,-4.0846,-4.2111,-4.2126,-4.2171,-4.2261,-4.2351,-4.2701,-4.329,-4.329,-4.329,-4.329,-4.329,-4.3369,-4.3512,-4.3512,-4.3591,-4.3693,-4.3693,-4.3357,-4.2787,-4.2034,-4.1864,-4.1804,-4.015,-4.006,-4.0724,-4.0844,-4.0894,-4.086,-4.0758,-4.0185,-3.9538,-3.9409,-3.9481,-3.9574,-3.9574,-3.9666,-3.9935,-4.069,-4.0894,-4.133,-4.3078,-4.3472,-4.368,-4.444,-4.4615,-4.4615,-4.4615,-4.4615,-4.4615,-4.4615,-4.4615,-4.4615,-4.4615,-4.4615,-4.4626,-4.472,-4.5178,-4.5707,-4.624,-4.6288,-4.6039,-4.5407,-4.5399,-4.5169,-4.4626,-4.5991,-4.6786,-4.6786,-4.824,-4.9001,-4.9001,-4.9001,-4.9772,-5.1332,-5.0802,-5.1173,-5.2315,-5.2567,-5.1791,-5.0287,-5.115,-5.1373,-5.117,-5.0619,-5.0245,-4.9947,-4.9359,-4.9077,-4.8892,-4.808,-4.7622,-4.7273,-4.4615,-4.3919,-4.3017,-4.2157,-4.128,-4.0397,-3.9553,-3.9388,-3.9508,-3.9918,-4.0531,-4.119,-4.1901,-4.2776,-4.317,-4.294,-4.2605,-4.2276,-4.1991,-4.1347,-4.1407,-4.2366,-4.1444,-4.1564,-4.288,-4.259,-4.259,-4.2895,-4.2895,-4.3045,-4.329,-4.329,-4.329,-4.329,-4.329,-4.329,-4.329,-4.329,-4.329,-4.329,-4.329,-4.298,-4.2455,-4.1693,-4.1258,-4.097,-3.9802,-3.9646,-3.9955,-3.9955,-3.9955,-3.9955,-3.9955,-3.9702,-3.9388,-3.9388,-3.9388,-3.9388,-3.9388,-3.9388,-3.9481,-3.99,-3.9955,-4.0309,-4.1576,-4.2221,-4.297,-4.431,-4.4615,-4.4615,-4.4615,-4.4615,-4.4615,-4.4615,-4.4615,-4.4615,-4.4615,-4.4615,-4.4615,-4.4615,-4.5142,-4.5485,-4.5381,-4.5681,-4.5648,-4.5052,-4.532,-4.5232,-4.4626,-4.6322,-4.7153,-4.6815,-4.824,-4.9001,-4.9001,-4.9407,-5.0164,-5.124,-5.047,-5.0676,-5.1704,-5.1703,-5.0918,-4.9543,-5.071,-5.073,-4.9996,-5.0054,-4.9845,-4.9402,-4.9107,-4.9001,-4.8892,-4.795,-4.7589,-4.7556]},{"header":{"parameterUnit":"m.s-1","parameterCategory":1,"la1":30.6,"la2":28.766,"lo1":-90.7593,"lo2":-88.6598,"dx":0.0162,"dy":0.0183,"nx":116,"ny":114,"refTime":"2022-12-02T06:00:00:Z","depth":0,"parameterNumber":3,"parameterNumberName":"V-component_of_WINDS"},"data":[0.0,0.0,0.0,0.0,0.0,0.0,0.0,0.0,0.0,0.0,0.0,0.0,0.0,0.0,0.0,0.0,0.0,0.0,0.0,0.0,0.0,0.0,0.0,0.0,0.0,0.0,0.0,0.0,0.0,0.0,0.0,0.0,0.0,0.0,0.0,0.0,0.0,0.0,0.0,0.0,0.0,0.0,0.0,0.0,0.0,0.0,0.0,0.0,0.0,0.0,0.0,0.0,0.0,0.0,0.0,0.0,0.0,0.0,0.0,0.0,0.0,0.0,0.0,0.0,0.0,0.0,0.0,0.0,0.0,0.0,0.0,0.0,0.0,0.0,0.0,0.0,0.0,0.0,0.0,0.0,0.0,0.0,0.0,0.0,0.0,0.0,0.0,0.0,0.0,0.0,0.0,0.0,0.0,0.0,0.0,0.0,0.0,0.0,0.0,0.0,0.0,0.0,0.0,0.0,0.0,0.0,0.0,0.0,0.0,0.0,0.0,0.0,0.0,0.0,0.0,0.0,0.0,0.0,0.0,0.0,0.0,0.0,0.0,0.0,0.0,0.0,0.0,0.0,0.0,0.0,0.0,0.0,0.0,0.0,0.0,0.0,0.0,0.0,0.0,0.0,0.0,0.0,0.0,0.0,0.0,0.0,0.0,0.0,0.0,0.0,0.0,0.0,0.0,0.0,0.0,0.0,0.0,0.0,0.0,0.0,0.0,0.0,0.0,0.0,0.0,0.0,0.0,0.0,0.0,0.0,0.0,0.0,0.0,0.0,0.0,0.0,0.0,0.0,0.0,0.0,0.0,0.0,0.0,0.0,0.0,0.0,0.0,0.0,0.0,0.0,0.0,0.0,0.0,0.0,0.0,0.0,0.0,0.0,0.0,0.0,0.0,0.0,0.0,0.0,0.0,0.0,0.0,0.0,0.0,0.0,0.0,0.0,0.0,0.0,0.0,0.0,0.0,0.0,0.0,0.0,0.0,0.0,0.0,0.0,0.0,0.0,0.0,0.0,0.0,0.0,0.0,0.0,0.0,0.0,0.0,0.0,0.0,0.0,0.0,0.0,0.0,0.0,0.0,0.0,0.0,0.0,0.0,0.0,0.0,0.0,0.0,0.0,0.0,0.0,0.0,0.0,0.0,0.0,0.0,0.0,0.0,0.0,0.0,0.0,0.0,0.0,0.0,0.0,0.0,0.0,0.0,0.0,0.0,0.0,0.0,0.0,0.0,0.0,0.0,0.0,0.0,0.0,0.0,0.0,0.0,0.0,0.0,0.0,0.0,0.0,0.0,0.0,0.0,0.0,0.0,0.0,0.0,0.0,0.0,0.0,0.0,0.0,0.0,0.0,0.0,0.0,0.0,0.0,0.0,0.0,0.0,0.0,0.0,0.0,0.0,0.0,0.0,0.0,0.0,0.0,0.0,0.0,0.0,0.0,0.0,0.0,0.0,0.0,0.0,0.0,0.0,0.0,0.0,0.0,0.0,0.0,0.0,0.0,0.0,0.0,0.0,0.0,0.0,0.0,0.0,0.0,0.0,0.0,0.0,0.0,0.0,0.0,0.0,0.0,0.0,0.0,0.0,0.0,0.0,0.0,0.0,0.0,0.0,0.0,0.0,0.0,0.0,0.0,0.0,0.0,0.0,0.0,0.0,0.0,0.0,0.0,0.0,0.0,0.0,0.0,0.0,0.0,0.0,0.0,0.0,0.0,0.0,0.0,0.0,0.0,0.0,0.0,0.0,0.0,0.0,0.0,0.0,0.0,0.0,0.0,0.0,0.0,0.0,0.0,0.0,0.0,0.0,0.0,0.0,0.0,0.0,0.0,0.0,0.0,0.0,0.0,0.0,0.0,0.0,0.0,0.0,0.0,0.0,0.0,0.0,0.0,0.0,0.0,0.0,0.0,0.0,0.0,0.0,0.0,0.0,0.0,0.0,0.0,0.0,0.0,0.0,0.0,0.0,0.0,0.0,0.0,0.0,0.0,0.0,0.0,0.0,0.0,0.0,0.0,0.0,0.0,0.0,0.0,0.0,0.0,0.0,0.0,0.0,0.0,0.0,0.0,0.0,0.0,0.0,0.0,0.0,0.0,0.0,0.0,0.0,0.0,0.0,0.0,0.0,0.0,0.0,0.0,0.0,0.0,0.0,0.0,0.0,0.0,0.0,0.0,0.0,0.0,0.0,0.0,0.0,0.0,0.0,0.0,0.0,0.0,0.0,0.0,0.0,0.0,0.0,0.0,0.0,0.0,0.0,0.0,0.0,0.0,0.0,0.0,0.0,0.0,0.0,0.0,0.0,0.0,0.0,0.0,0.0,0.0,0.0,0.0,0.0,0.0,0.0,0.0,0.0,0.0,0.0,0.0,0.0,0.0,0.0,0.0,0.0,0.0,0.0,0.0,0.0,0.0,0.0,0.0,0.0,0.0,0.0,0.0,0.0,0.0,0.0,0.0,0.0,0.0,0.0,0.0,0.0,0.0,0.0,0.0,0.0,0.0,0.0,0.0,0.0,0.0,0.0,0.0,0.0,0.0,0.0,0.0,0.0,0.0,0.0,0.0,0.0,0.0,0.0,0.0,0.0,0.0,0.0,0.0,0.0,0.0,0.0,0.0,0.0,0.0,0.0,0.0,0.0,0.0,0.0,0.0,0.0,0.0,0.0,0.0,0.0,0.0,0.0,0.0,0.0,0.0,0.0,0.0,0.0,0.0,0.0,0.0,0.0,0.0,0.0,0.0,0.0,0.0,0.0,0.0,0.0,0.0,0.0,0.0,0.0,0.0,0.0,0.0,0.0,0.0,0.0,0.0,0.0,0.0,0.0,0.0,0.0,0.0,0.0,0.0,0.0,0.0,0.0,0.0,0.0,0.0,0.0,0.0,0.0,0.0,0.0,0.0,0.0,0.0,0.0,0.0,0.0,0.0,0.0,0.0,0.0,0.0,0.0,0.0,0.0,0.0,0.0,0.0,0.0,0.0,0.0,0.0,0.0,0.0,0.0,0.0,0.0,0.0,0.0,0.0,0.0,0.0,0.0,0.0,0.0,0.0,0.0,0.0,0.0,0.0,0.0,0.0,0.0,0.0,0.0,0.0,0.0,0.0,0.0,0.0,0.0,0.0,0.0,0.0,0.0,0.0,0.0,0.0,0.0,0.0,0.0,0.0,0.0,0.0,0.0,0.0,0.0,0.0,0.0,0.0,0.0,0.0,0.0,0.0,0.0,0.0,0.0,0.0,0.0,0.0,0.0,0.0,0.0,0.0,0.0,0.0,0.0,0.0,0.0,0.0,0.0,0.0,0.0,0.0,0.0,0.0,0.0,0.0,0.0,0.0,0.0,0.0,0.0,0.0,0.0,0.0,0.0,0.0,0.0,0.0,0.0,0.0,0.0,0.0,0.0,0.0,0.0,0.0,0.0,0.0,0.0,0.0,0.0,0.0,0.0,0.0,0.0,0.0,0.0,0.0,0.0,0.0,0.0,0.0,0.0,0.0,0.0,0.0,0.0,0.0,0.0,0.0,0.0,0.0,0.0,0.0,0.0,0.0,0.0,0.0,0.0,0.0,0.0,0.0,0.0,0.0,0.0,0.0,0.0,0.0,0.0,0.0,0.0,0.0,0.0,0.0,0.0,0.0,0.0,0.0,0.0,0.0,0.0,0.0,0.0,0.0,0.0,0.0,0.0,0.0,0.0,0.0,0.0,0.0,0.0,0.0,0.0,0.0,0.0,0.0,0.0,0.0,0.0,0.0,0.0,0.0,0.0,0.0,0.0,0.0,0.0,0.0,0.0,0.0,0.0,0.0,0.0,0.0,0.0,0.0,0.0,0.0,0.0,0.0,0.0,0.0,0.0,0.0,0.0,0.0,0.0,0.0,0.0,0.0,0.0,0.0,0.0,0.0,0.0,0.0,0.0,0.0,0.0,0.0,0.0,0.0,0.0,0.0,0.0,0.0,0.0,0.0,0.0,0.0,0.0,0.0,0.0,0.0,0.0,0.0,0.0,0.0,0.0,0.0,0.0,0.0,0.0,0.0,0.0,0.0,0.0,0.0,0.0,0.0,0.0,0.0,0.0,0.0,0.0,0.0,0.0,0.0,0.0,0.0,0.0,0.0,0.0,0.0,0.0,0.0,0.0,0.0,0.0,0.0,0.0,0.0,0.0,0.0,0.0,0.0,0.0,0.0,0.0,0.0,0.0,0.0,0.0,0.0,0.0,0.0,0.0,0.0,0.0,0.0,0.0,0.0,0.0,0.0,0.0,0.0,0.0,0.0,0.0,0.0,0.0,0.0,0.0,0.0,0.0,0.0,0.0,0.0,0.0,0.0,0.0,0.0,0.0,0.0,0.0,0.0,0.0,0.0,0.0,0.0,0.0,0.0,0.0,0.0,0.0,0.0,0.0,0.0,0.0,0.0,0.0,0.0,0.0,0.0,0.0,0.0,0.0,0.0,0.0,0.0,0.0,0.0,0.0,0.0,0.0,0.0,0.0,0.0,0.0,0.0,0.0,0.0,0.0,0.0,0.0,0.0,0.0,0.0,0.0,0.0,0.0,0.0,0.0,0.0,0.0,0.0,0.0,0.0,0.0,0.0,0.0,0.0,0.0,0.0,0.0,0.0,0.0,0.0,0.0,0.0,0.0,0.0,0.0,0.0,0.0,0.0,0.0,0.0,0.0,0.0,0.0,0.0,0.0,0.0,0.0,0.0,0.0,0.0,0.0,0.0,0.0,0.0,0.0,0.0,0.0,0.0,0.0,0.0,0.0,0.0,0.0,0.0,0.0,0.0,0.0,0.0,0.0,0.0,0.0,0.0,0.0,0.0,0.0,0.0,0.0,0.0,0.0,0.0,0.0,0.0,0.0,0.0,0.0,0.0,0.0,0.0,0.0,0.0,0.0,0.0,0.0,0.0,0.0,0.0,0.0,0.0,0.0,0.0,0.0,0.0,0.0,0.0,0.0,0.0,0.0,0.0,0.0,0.0,0.0,0.0,0.0,0.0,0.0,0.0,0.0,0.0,0.0,0.0,0.0,0.0,0.0,0.0,0.0,0.0,0.0,0.0,0.0,0.0,0.0,0.0,0.0,0.0,0.0,0.0,0.0,0.0,0.0,0.0,0.0,0.0,0.0,0.0,0.0,0.0,0.0,0.0,0.0,0.0,0.0,0.0,0.0,0.0,0.0,0.0,0.0,0.0,0.0,0.0,0.0,0.0,0.0,0.0,0.0,0.0,0.0,0.0,0.0,0.0,0.0,0.0,0.0,0.0,0.0,0.0,0.0,0.0,0.0,0.0,0.0,0.0,0.0,0.0,0.0,0.0,0.0,0.0,0.0,0.0,0.0,0.0,0.0,0.0,0.0,0.0,0.0,0.0,0.0,0.0,0.0,0.0,0.0,0.0,0.0,0.0,0.0,0.0,0.0,0.0,0.0,0.0,0.0,0.0,0.0,0.0,0.0,0.0,0.0,0.0,0.0,0.0,0.0,0.0,0.0,0.0,0.0,0.0,0.0,0.0,0.0,0.0,0.0,0.0,0.0,0.0,0.0,0.0,0.0,0.0,0.0,0.0,0.0,0.0,0.0,0.0,0.0,0.0,0.0,0.0,0.0,0.0,0.0,0.0,0.0,0.0,0.0,0.0,0.0,0.0,0.0,0.0,0.0,0.0,0.0,0.0,0.0,0.0,0.0,0.0,0.0,0.0,0.0,0.0,0.0,0.0,0.0,0.0,0.0,0.0,0.0,0.0,0.0,0.0,0.0,0.0,0.0,0.0,0.0,0.0,0.0,0.0,0.0,0.0,0.0,0.0,0.0,0.0,0.0,0.0,0.0,0.0,0.0,0.0,0.0,0.0,0.0,0.0,0.0,0.0,0.0,0.0,0.0,0.0,0.0,0.0,0.0,0.0,0.0,0.0,0.0,0.0,0.0,0.0,0.0,0.0,0.0,0.0,0.0,0.0,0.0,0.0,0.0,0.0,0.0,0.0,0.0,0.0,0.0,0.0,0.0,0.0,0.0,0.0,0.0,0.0,0.0,0.0,0.0,0.0,0.0,0.0,0.0,0.0,0.0,0.0,0.0,0.0,0.0,0.0,0.0,0.0,0.0,0.0,0.0,0.0,1.8064,0.0,0.0,0.0,0.0,0.0,0.0,0.0,0.0,0.0,0.0,0.0,0.0,0.0,0.0,0.0,0.0,0.0,0.0,0.0,0.0,0.0,0.0,0.0,0.0,0.2635,0.2089,0.1486,0.0673,0.0,0.0,0.0,0.0,0.0,0.0,0.0,0.0,0.0,0.3107,0.3972,0.3816,0.4169,0.4968,0.4662,0.3825,0.2554,0.0,0.0,0.0,0.0,0.0,0.0,0.0,0.0,0.0,0.0,0.0,0.0,0.0,0.0,0.0,0.0,0.0,0.0,0.0,0.0,0.0,0.0,0.0,0.0,0.0,0.0,0.0,0.0,0.0,0.0,0.0,0.0,0.0,0.0,0.0,0.0,0.0,0.0,0.0,0.0,0.0,0.0,0.0,0.0,0.0,0.0,0.0,0.0,0.0,0.0,0.0,0.0,0.0,0.0,0.0,0.0,0.0,0.0,0.0,0.0,0.0,0.0,0.0,0.0,0.0,0.0,0.0,0.0,0.0,0.0,0.0,1.985,0.0,0.0,0.0,0.0,0.0,0.0,0.0,0.0,0.0,0.0,0.0,0.0,0.0,0.0,0.0,0.0,0.0,0.0,0.0,0.0,0.0,0.3409,0.2326,0.2507,0.2462,0.1852,0.109,0.0525,0.0245,0.0129,0.0,0.0,0.0,0.0,0.1776,0.1904,0.264,0.4017,0.4216,0.48,0.5771,0.5999,0.5734,0.5074,0.4429,0.0,0.0,0.0,0.0,0.0,0.0,0.0,0.0,0.0,0.0,0.0,0.0,0.0,0.0,0.0,0.0,0.0,0.0,0.0,0.0,0.0,0.0,0.0,0.0,0.0,0.0,0.0,0.0,0.0,0.0,0.0,0.0,0.0,0.0,0.0,0.0,0.0,0.0,0.0,0.0,0.0,0.0,0.0,0.0,0.0,0.0,0.0,0.0,0.0,0.0,0.0,0.0,0.0,0.0,0.0,0.0,0.0,0.0,0.0,0.0,0.0,0.0,0.0,2.1889,2.3269,2.4661,2.5494,2.6975,2.8753,2.6265,2.5453,2.5629,2.263,0.0,0.0,0.0,0.0,0.0,0.0,0.0,0.0,0.0,0.0,0.0,0.0,0.0,0.0,0.0,0.0,0.0,0.0,0.0,0.3422,0.3087,0.2384,0.1903,0.1805,0.1685,0.1475,0.1148,0.0638,0.0,0.0,0.0,0.164,0.1798,0.2314,0.2441,0.2152,0.4391,0.5824,0.6504,0.7544,0.7974,0.7845,0.7057,0.6504,0.6121,0.0,0.0,0.0,0.0,0.0,0.0,0.0,0.0,0.0,0.0,0.0,0.0,0.0,0.0,0.0,0.0,0.0,0.0,0.0,0.0,0.0,0.0,0.0,0.0,0.0,0.0,0.0,0.0,0.0,0.0,0.0,0.0,0.0,0.0,0.0,0.0,0.0,0.0,0.0,0.0,0.0,1.8603,1.8897,0.0,0.0,0.0,0.0,0.0,0.0,0.0,0.0,0.0,0.0,0.0,0.0,0.0,1.9225,2.0264,2.1431,2.2477,2.336,2.4537,2.6274,2.8412,2.9059,3.0894,3.3566,3.3197,0.0,2.6554,2.6246,0.0,0.0,0.0,0.0,0.0,0.0,0.0,0.0,0.0,0.0,0.0,0.0,0.0,0.0,0.0,0.0,0.0,0.0,0.0,0.0,0.0,0.2772,0.2501,0.242,0.2414,0.218,0.1618,0.144,0.0,0.0,0.1268,0.1296,0.1291,0.1667,0.2047,0.2415,0.3829,0.5113,0.628,0.7318,0.8009,0.8446,0.9398,0.9249,0.8228,0.8336,0.0,0.0,0.0,0.0,0.0,0.0,0.0,0.0,0.0,0.0,0.0,0.0,0.0,0.0,0.0,0.0,0.0,0.0,0.0,0.0,0.0,0.0,0.0,0.0,0.0,0.0,0.0,0.0,0.0,0.0,0.0,0.0,0.0,0.0,0.0,0.0,0.0,0.0,0.0,1.8573,1.9927,2.0801,1.9435,1.7658,0.0,0.0,0.0,0.0,0.0,0.0,0.0,0.0,0.0,1.9404,2.0769,2.1957,2.2961,2.4163,2.4805,2.4886,2.6161,2.7967,3.0206,3.1293,3.3206,3.5657,3.5968,3.4631,3.2065,3.0275,2.8504,2.6753,0.0,0.0,0.0,0.0,2.3807,2.4594,0.0,0.0,0.0,0.0,0.0,0.0,0.0,0.0,0.0,0.0,0.0,0.0,0.3177,0.3122,0.305,0.2911,0.2873,0.2729,0.2437,0.2235,0.2164,0.2249,0.1579,0.123,0.1283,0.1249,0.169,0.267,0.3361,0.4519,0.6077,0.716,0.8207,0.9242,1.1205,1.1365,1.0152,1.0585,0.9545,0.7361,0.0,0.0,0.0,0.0,0.0,0.0,0.0,0.0,0.0,0.0,0.0,0.0,0.0,0.0,0.0,0.0,0.0,0.0,0.0,0.0,0.0,0.0,0.0,0.0,0.0,0.0,0.0,0.0,0.0,0.0,0.0,0.0,0.0,0.0,0.0,0.0,0.0,2.044,2.1718,2.2725,2.2168,2.0535,0.0,0.0,0.0,0.0,0.0,0.0,1.8654,1.923,2.04,2.2284,2.3254,2.4154,2.5008,2.6103,2.6449,2.6072,2.737,2.9219,3.1499,3.2727,3.4661,3.7,3.7159,3.7084,3.663,3.3898,3.2182,3.1004,2.8453,2.713,2.6672,2.7282,2.7652,2.8154,0.0,0.0,0.0,0.0,0.0,0.0,0.0,0.0,0.0,0.0,0.0,0.3647,0.3329,0.3182,0.3046,0.2903,0.2793,0.3094,0.4028,0.29,0.2247,0.2386,0.2164,0.2125,0.232,0.1656,0.1546,0.2041,0.3339,0.4725,0.6231,0.7922,0.9587,1.1189,1.2139,1.2277,1.1797,1.2002,1.1912,1.1287,0.7473,0.0,0.0,0.0,0.0,0.0,0.0,0.0,0.0,0.0,0.0,0.0,0.0,0.0,0.0,0.0,0.0,0.0,0.0,0.0,0.0,0.0,0.0,0.0,0.0,0.0,0.0,0.0,0.0,0.0,0.0,0.0,0.0,0.0,0.0,0.0,0.0,0.0,0.0,2.5403,2.5589,0.0,0.0,0.0,0.0,1.9777,1.9296,1.9866,2.1963,2.2564,2.3391,2.4587,2.4714,2.5003,2.5548,2.6194,2.6747,2.7241,2.8322,3.0205,3.2721,3.3326,3.5304,3.8252,3.7244,3.7174,3.7653,3.667,3.4872,3.272,3.1834,3.0188,2.8381,2.9085,2.9971,3.1006,0.0,0.0,0.0,0.7797,0.7463,0.7138,0.6934,0.6024,0.519,0.4704,0.4296,0.3921,0.3537,0.3678,0.3795,0.3751,0.4207,0.4466,0.4324,0.3971,0.3721,0.3683,0.2539,0.1654,0.1132,0.0853,0.1002,0.1536,0.2633,0.3716,0.4821,0.7182,0.8865,1.0022,1.1995,1.3033,1.3409,1.373,1.3713,1.3238,1.0759,0.8026,0.0,0.0,0.0,0.0,0.0,0.0,0.0,0.0,0.0,0.0,0.0,0.0,0.0,0.0,0.0,0.0,0.0,0.0,0.0,0.0,0.0,0.0,0.0,0.0,0.0,0.0,0.0,0.0,0.0,0.0,0.0,0.0,0.0,0.0,0.0,0.0,0.0,2.6851,2.6981,0.0,2.34,2.2701,2.2336,2.222,2.268,2.3242,2.3866,2.4431,2.4908,2.531,2.6025,2.649,2.6678,2.7243,2.7795,2.8348,2.87,3.0071,3.231,3.2939,3.4365,3.6395,3.6423,3.6564,3.6757,3.6453,3.5577,3.4385,3.3688,3.2677,3.1644,3.192,3.2253,3.2601,0.0,0.0,0.0,0.7962,0.7606,0.7203,0.6945,0.6098,0.528,0.4643,0.4604,0.4398,0.3805,0.4276,0.4554,0.4321,0.5046,0.5334,0.4958,0.4745,0.4639,0.4634,0.2902,0.1442,0.0418,0.0515,0.067,0.0873,0.211,0.3143,0.4071,0.6739,0.8736,1.0121,1.2104,1.3606,1.461,1.4878,1.4908,1.4636,1.294,1.0803,0.8411,0.0,0.0,0.0,0.0,0.0,0.0,0.0,0.0,0.0,0.0,0.0,0.0,0.0,0.0,0.0,0.0,0.0,0.0,0.0,0.0,0.0,0.0,0.0,0.0,0.0,0.0,0.0,0.0,0.0,0.0,0.0,0.0,0.0,0.0,2.527,2.6991,2.7155,2.7835,2.7136,2.423,2.4464,2.4564,2.4021,2.4448,2.4765,2.48,2.5136,2.5514,2.5896,2.6658,2.7271,2.7833,2.8398,2.895,2.9465,2.9828,3.0931,3.2645,3.3291,3.4418,3.5898,3.5965,3.5967,3.594,3.5776,3.537,3.4794,3.4522,3.3971,3.3337,3.3632,3.3664,3.3536,0.0,0.0,0.8095,0.8095,0.7759,0.7358,0.6953,0.611,0.5313,0.4764,0.5159,0.5114,0.4115,0.4888,0.5226,0.4546,0.5105,0.5642,0.5951,0.5174,0.4768,0.4973,0.3172,0.161,0.0422,0.0719,0.0572,0.0,0.1811,0.3139,0.4056,0.6731,0.9305,1.169,1.261,1.3876,1.5352,1.5381,1.5509,1.5546,1.3912,1.3382,1.3152,0.0,0.0,0.0,0.0,0.0,0.0,0.0,0.0,0.0,0.0,0.0,0.0,0.0,0.0,0.0,0.0,0.0,0.0,0.0,0.0,0.0,0.0,0.0,0.0,0.0,0.0,0.0,0.0,0.0,0.0,0.0,0.0,0.0,2.5272,2.6762,2.7303,2.6459,2.8223,2.8142,2.4599,2.4984,2.5349,2.515,2.4464,2.4304,2.4815,2.4838,2.5346,2.6422,2.6557,2.7313,2.89,2.9515,3.0118,3.067,3.1712,3.2759,3.3806,3.4413,3.5518,3.6947,3.5913,3.5476,3.543,3.4908,3.4412,3.3991,3.4507,3.4034,3.3222,3.4121,3.4103,3.3727,0.7966,0.8054,0.8095,0.8095,0.7759,0.7304,0.6696,0.6149,0.5481,0.4596,0.4901,0.4905,0.4091,0.4541,0.4805,0.4525,0.503,0.5342,0.5339,0.4795,0.3836,0.2403,0.1843,0.1084,0.0129,0.0196,0.0166,0.0,0.1811,0.3139,0.4056,0.6731,0.8997,1.0874,1.2335,1.3584,1.4569,1.5138,1.5429,1.5424,1.4984,1.4424,1.3713,0.0,0.0,0.0,0.0,0.0,0.0,0.0,0.0,0.0,0.0,0.0,0.0,0.0,0.0,0.0,0.0,0.0,0.0,0.0,0.0,0.0,0.0,0.0,0.0,0.0,0.0,0.0,0.0,0.0,0.0,0.0,2.1553,2.3823,2.5822,2.7128,2.7847,2.7701,2.7792,2.7327,2.5938,2.5922,2.6068,2.6266,2.5719,2.5561,2.6,2.5631,2.5464,2.5695,2.7357,2.843,2.8827,3.0245,3.1223,3.1775,3.2077,3.2584,3.3297,3.3857,3.4361,3.4775,3.4862,3.4908,3.4921,3.474,3.4625,3.4474,3.4667,3.4262,3.3664,3.3551,3.3102,3.2686,0.8054,0.8171,0.8234,0.8234,0.7902,0.7375,0.6608,0.616,0.569,0.5102,0.5528,0.5687,0.5161,0.5602,0.5669,0.4987,0.5575,0.5628,0.4767,0.4121,0.2978,0.1204,0.1132,0.095,0.0538,0.0538,0.0538,0.0538,0.2344,0.3307,0.3533,0.6567,0.8715,1.0046,1.1905,1.3203,1.3999,1.4821,1.5146,1.5166,1.5342,1.5056,1.4471,1.3516,1.2614,1.178,1.1099,1.0885,1.0974,1.1085,0.0,0.0,0.0,0.0,0.0,0.0,0.0,0.0,0.0,0.0,0.0,0.0,0.0,0.0,0.0,0.0,0.0,0.0,0.0,0.0,0.0,0.0,0.0,0.0,2.2911,2.4421,2.6075,2.7309,2.7911,2.7458,2.727,2.701,2.6507,2.6016,2.5881,2.6215,2.5512,2.5217,2.543,2.5293,2.5263,2.5416,2.7413,2.8794,2.945,3.0971,3.2014,3.2579,3.2579,3.2867,3.3432,3.3759,3.4161,3.4613,3.4881,3.5019,3.5044,3.5316,3.5278,0.0,0.0,0.0,0.0,0.0,3.3558,3.3282,0.8171,0.8306,0.8428,0.8374,0.8019,0.7467,0.6592,0.6148,0.591,0.5903,0.65,0.6846,0.6626,0.7182,0.7004,0.5594,0.6262,0.6021,0.4204,0.3206,0.2165,0.0951,0.0929,0.1051,0.1306,0.1407,0.1474,0.1474,0.3178,0.3647,0.3076,0.6437,0.8409,0.9259,1.1436,1.2775,1.345,1.4308,1.4729,1.4824,1.5148,1.5323,1.5293,1.415,1.3721,1.3574,1.2436,1.1903,1.1737,1.154,0.0,0.0,0.0,0.0,0.0,0.0,0.0,0.0,0.0,0.0,0.0,0.0,0.0,0.0,0.0,0.0,0.0,0.0,0.0,0.0,0.0,0.0,0.0,0.0,2.3714,2.4443,2.5652,2.6839,2.716,2.6046,2.6464,2.6629,2.6099,2.5391,2.5126,2.5471,2.4578,2.4039,2.4169,2.4386,0.0,0.0,0.0,2.8735,3.026,3.1644,3.2566,3.3124,3.3144,3.342,3.3909,3.4035,3.4613,3.5495,3.5558,3.5596,3.5621,3.6157,3.6069,3.5545,3.5102,3.5119,3.5445,3.4956,3.4731,3.465,0.8585,0.861,0.8548,0.8211,0.7778,0.7211,0.6374,0.6095,0.596,0.5912,0.6257,0.653,0.6593,0.6723,0.6406,0.5418,0.5746,0.5277,0.3595,0.2211,0.1299,0.0923,0.1094,0.1259,0.1307,0.2043,0.2444,0.2444,0.348,0.4276,0.483,0.7,0.8302,0.8977,1.1353,1.2336,1.2307,1.337,1.4214,1.4786,1.4529,1.4815,1.5381,1.5137,1.5039,1.501,1.4756,1.4647,1.4655,1.4979,1.4145,1.3023,1.3281,1.2057,0.0,0.0,0.0,0.0,0.0,0.0,0.0,0.0,0.0,0.0,0.0,0.0,0.0,0.0,0.0,0.0,0.0,0.0,0.0,2.1252,2.2283,2.2943,2.2863,2.3349,2.3675,2.3427,2.4118,2.4253,2.338,2.3829,2.4412,2.4907,2.4357,2.4314,2.511,2.4381,2.4321,2.5112,2.7414,2.8959,2.958,3.1807,3.2968,3.3124,0.0,0.0,3.3935,3.4781,3.5295,3.552,3.6006,3.6207,3.6207,3.6367,3.6342,3.6241,3.6128,3.5843,3.5483,3.537,3.5056,3.4713,0.8699,0.861,0.845,0.8158,0.773,0.717,0.6326,0.6256,0.6379,0.6577,0.6943,0.7416,0.7981,0.7691,0.712,0.6328,0.5203,0.4039,0.2837,0.1645,0.1029,0.1091,0.1222,0.1708,0.2644,0.3111,0.3347,0.3347,0.4251,0.4683,0.4704,0.6939,0.8153,0.8506,1.0946,1.1963,1.1839,1.2694,1.3485,1.4126,1.3774,1.4082,1.4796,1.5215,1.541,1.541,1.541,1.541,1.5449,1.5664,1.5166,1.4502,1.4679,1.3444,1.1804,0.0,0.0,0.0,0.0,0.0,0.0,0.0,0.0,0.0,0.0,0.0,0.0,0.0,0.0,1.8524,1.9428,0.0,2.1136,2.1958,2.225,2.2284,2.2033,2.1955,2.2035,2.2321,2.3102,2.3694,2.3742,2.3913,2.4215,2.4748,2.4219,2.4099,2.4577,2.4499,2.4675,2.5106,2.7117,2.8578,2.9407,3.1235,3.2605,3.3483,3.3771,3.4186,3.4738,3.5245,3.5646,3.5968,3.6292,3.6405,3.6405,3.6405,3.6405,3.6405,3.6405,3.6031,3.5495,3.5495,3.532,3.5094,0.8592,0.8419,0.822,0.8013,0.7607,0.7047,0.6259,0.6297,0.6561,0.7008,0.7582,0.8246,0.9058,0.8585,0.7858,0.6943,0.4637,0.2942,0.2303,0.1419,0.1042,0.1304,0.1474,0.2342,0.3982,0.4184,0.4284,0.4284,0.5024,0.5087,0.4577,0.6907,0.8066,0.826,1.0632,1.1611,1.1475,1.2033,1.2654,1.3279,1.2986,1.3358,1.4182,1.4874,1.5215,1.5293,1.5293,1.5342,1.541,1.541,1.5497,1.5584,1.5439,1.4582,1.3504,1.297,1.23,0.0,0.0,0.0,0.0,0.0,0.0,0.0,0.0,1.897,1.8656,2.142,2.1381,2.116,2.2062,2.1957,2.2043,2.3043,2.2346,2.1659,2.1458,2.1273,2.1273,2.1517,2.2508,2.3508,2.444,2.4113,2.4011,2.4436,2.4047,2.3828,2.3906,2.4648,2.5155,2.5195,2.675,2.8085,2.9039,3.0496,3.1999,3.3575,3.3909,3.4575,3.5495,3.5608,3.5943,3.6405,3.6405,3.6405,3.6405,3.6405,3.6468,3.6556,3.6455,3.6157,3.5809,3.5696,3.5658,3.5658,0.8205,0.8008,0.7803,0.7606,0.7044,0.6461,0.6007,0.5808,0.5838,0.6182,0.7162,0.7815,0.7805,0.7882,0.734,0.5822,0.4015,0.2821,0.2495,0.1592,0.1137,0.1304,0.2108,0.3011,0.3982,0.4821,0.5259,0.5259,0.5359,0.5749,0.642,0.7502,0.8265,0.8788,1.0805,1.1233,1.0496,1.1169,1.1877,1.2595,1.2201,1.2868,1.4114,1.4211,1.4484,1.4882,1.4882,1.5098,1.541,1.541,1.5835,1.6265,1.5613,1.5707,1.5966,1.5259,1.5211,1.5452,1.5675,1.6859,1.8487,2.0414,2.0537,2.1408,0.0,2.527,2.3949,2.5259,2.5097,2.4501,2.3876,2.2719,2.2069,2.2689,2.1638,2.043,1.9462,2.0412,2.087,1.9959,2.1502,2.2633,2.276,2.3028,2.3207,2.3299,2.3624,2.3955,2.4326,2.4805,2.5254,2.5596,2.6914,2.7683,2.7825,3.0033,3.1586,3.2316,3.3868,3.4906,3.552,3.6044,3.6355,3.6405,3.6405,3.6405,3.6405,3.6405,3.6694,3.7048,3.6606,3.6669,3.6948,3.6445,3.6317,3.6317,0.7796,0.7494,0.7247,0.716,0.6921,0.6545,0.5991,0.5889,0.5925,0.6029,0.6567,0.7,0.7165,0.6849,0.6072,0.4746,0.3702,0.2841,0.2146,0.1976,0.1947,0.1993,0.2873,0.3751,0.4634,0.5029,0.5226,0.5226,0.5865,0.6282,0.6561,0.8067,0.8884,0.9143,1.0515,1.0908,1.0541,1.0474,1.1078,1.2043,1.1497,1.2121,1.3437,1.3656,1.4278,1.5029,1.513,1.5264,0.0,1.6195,1.6657,1.6867,1.6726,1.6129,1.5633,1.6271,1.6155,1.6564,1.9927,2.1492,2.2546,2.4129,2.4374,2.4891,2.7407,2.662,2.5746,2.7095,2.629,2.5025,2.3948,2.2723,2.1867,2.184,2.1117,2.0283,1.9344,2.0363,2.0696,1.9307,2.0517,2.1745,2.2425,2.2847,2.3198,2.3496,2.3916,2.4336,2.4775,2.5215,2.5547,2.5684,2.6197,2.6849,2.7589,2.8813,3.0499,3.2587,3.3532,3.4699,3.6031,3.6304,3.6405,3.6405,3.6405,3.6405,3.643,3.6757,3.6973,3.7161,3.6923,3.6973,3.7123,3.6619,3.6405,3.6499,0.7394,0.7101,0.6891,0.6833,0.6816,0.6608,0.5991,0.592,0.5895,0.5798,0.6109,0.6381,0.653,0.5855,0.4961,0.3906,0.3575,0.3044,0.2098,0.2423,0.2673,0.2726,0.3375,0.4133,0.4978,0.5019,0.5042,0.5042,0.5951,0.6477,0.6679,0.8202,0.9121,0.9555,1.0352,1.0601,1.0393,1.0087,1.0553,1.1491,1.099,1.1642,1.2959,1.3402,1.3987,1.4641,1.4944,1.5279,1.5642,1.6217,1.6526,1.671,1.6689,1.5906,1.529,1.699,1.7336,1.8172,2.2697,2.446,2.5363,2.6842,2.7572,2.8043,2.8402,2.7807,2.7286,2.7677,2.6637,2.5199,2.3779,2.264,2.1796,2.1476,2.0943,2.034,1.9562,2.057,2.091,1.9537,2.0272,2.1193,2.2097,2.2408,2.2761,2.32,2.3941,2.446,2.4498,2.5286,2.5693,2.5693,2.5693,2.6159,2.7078,2.78,2.9631,3.2383,3.3126,3.4532,3.6405,3.6405,3.6405,3.6405,3.6405,3.6493,3.6669,3.7023,3.7274,3.74,3.7249,3.7186,3.7159,3.6959,3.6896,3.6977,0.7009,0.6903,0.6841,0.6642,0.6608,0.6448,0.5975,0.5681,0.5452,0.5249,0.5916,0.6206,0.5693,0.5042,0.4277,0.3403,0.3608,0.3477,0.2711,0.2935,0.3152,0.3285,0.348,0.3942,0.4707,0.485,0.4894,0.4894,0.5398,0.6207,0.7294,0.7748,0.8718,1.0083,1.0516,1.0351,0.9746,1.0146,1.0495,1.0838,1.0813,1.1642,1.2978,1.3563,1.3504,1.3161,1.3965,1.4995,1.5813,1.4746,1.4868,1.5336,1.4627,1.4834,1.5764,1.7629,1.9473,2.1285,2.281,2.4381,2.6044,2.7951,2.9761,3.0917,3.0357,3.0194,2.9446,2.6886,2.6294,2.5675,2.3673,2.2548,2.1916,2.1971,2.1221,2.035,1.9684,2.0907,2.1627,2.093,2.1093,2.1319,2.1319,2.1328,2.1518,2.1851,2.3426,2.403,2.3118,2.4744,2.5693,2.5693,2.5693,2.5742,2.5781,2.7375,2.915,3.1067,3.2732,3.4532,3.6405,3.6405,3.6405,3.6405,3.6405,3.6719,3.7161,3.7174,3.75,3.7927,3.7387,3.7186,3.7243,3.784,3.8062,3.8062,0.789,0.7645,0.7481,0.7409,0.7062,0.6693,0.6415,0.5868,0.5418,0.5162,0.5053,0.0,0.0,0.0,0.0,0.0,0.3764,0.3486,0.2758,0.3528,0.3718,0.3075,0.377,0.426,0.4372,0.4419,0.4446,0.4446,0.565,0.6512,0.6994,0.8197,0.9155,0.9842,0.974,0.9575,0.9359,0.913,0.9724,1.0747,1.0269,1.1205,1.3091,1.4818,1.443,1.3184,0.0,1.4704,1.4387,1.4778,1.5073,1.5365,1.6027,1.5874,1.5876,1.7935,2.0041,2.2304,2.5056,2.6397,2.7485,2.9257,2.9773,2.9724,2.9127,2.8294,2.725,2.5868,2.5003,2.4075,2.2645,2.1851,2.1361,2.1092,2.1036,2.0732,1.9951,2.1282,2.1698,2.0171,2.0048,2.0124,2.0124,2.0124,2.0343,2.0972,2.2382,2.3275,2.3457,2.4895,2.5693,2.5693,2.5693,2.5693,2.5693,2.6586,2.815,3.0487,3.3443,3.5385,3.6405,3.6405,3.6405,3.6405,3.6405,3.6719,3.7211,3.7575,3.7839,3.799,3.7801,3.8225,3.8973,3.8806,4.0042,4.1627,0.8486,0.8366,0.8235,0.7982,0.7561,0.0,0.0,0.0,0.0,0.0,0.0,0.0,0.0,0.0,0.0,0.0,0.0,0.3507,0.3052,0.3886,0.4188,0.3708,0.4299,0.4598,0.4521,0.4268,0.422,0.4378,0.5712,0.6567,0.6921,0.8296,0.9118,0.9519,0.9297,0.9211,0.9184,0.8844,0.9554,1.0865,1.0157,1.0954,1.2742,1.451,1.3861,0.0,1.3541,1.3181,1.2213,1.3388,1.3985,1.4432,1.5527,1.6236,1.6987,1.8671,2.0811,2.3351,2.6695,2.7543,2.7916,2.9663,2.9501,2.866,2.7783,2.6927,2.5936,2.4677,2.3745,2.2731,2.1441,2.0935,2.0689,2.0594,2.0571,2.0624,2.0866,2.1438,2.1584,2.0855,2.0395,1.9988,1.9542,1.9497,1.9794,2.056,2.183,2.2901,2.3647,2.4971,2.5693,2.5693,2.5693,2.5693,2.5693,2.6172,2.7873,3.0768,3.3985,3.583,3.6405,3.6405,3.6405,3.6405,3.6405,3.6784,3.75,3.7864,3.8128,3.8316,3.8316,3.8964,3.9925,4.002,4.1529,4.3502,0.8862,0.9045,0.9052,0.0,0.0,0.0,0.0,0.0,0.0,0.0,0.0,0.0,0.0,0.0,0.0,0.0,0.0,0.0,0.363,0.4013,0.4517,0.5105,0.5007,0.502,0.5158,0.4432,0.4284,0.4719,0.5589,0.6379,0.7086,0.7937,0.8631,0.9144,0.9144,0.9144,0.9144,0.9131,0.9833,1.0923,1.0326,1.078,1.1901,1.2845,1.1893,1.0202,1.1277,1.067,0.9578,1.082,1.1926,1.2926,1.3633,1.6157,1.9015,1.9936,2.192,2.4531,2.7683,2.7824,2.7509,2.9317,2.8936,2.7783,2.648,2.6097,2.5409,2.328,2.2435,2.162,2.0058,1.9805,1.9955,2.0301,1.9857,2.0131,2.209,2.1435,2.1332,2.2911,2.2031,2.0845,1.9716,1.9542,1.9832,2.0591,2.1868,2.2901,2.3619,2.4962,2.5693,2.5693,2.5693,2.5693,2.5693,2.6291,2.8268,3.1679,3.4229,3.5805,3.6405,3.6405,3.6405,3.6405,3.6405,3.6985,3.8002,3.8002,3.8354,3.8919,3.8919,3.9372,4.0193,4.1324,4.2634,4.3791,0.0,0.0,0.0,0.0,0.0,0.0,0.0,0.0,0.0,0.0,0.0,0.0,0.0,0.0,0.0,0.0,0.0,0.0,0.413,0.464,0.5096,0.5463,0.5487,0.561,0.5837,0.5264,0.5038,0.5142,0.5814,0.6355,0.6755,0.7421,0.7903,0.8238,0.8238,0.8238,0.8225,0.8016,0.8535,0.9415,0.881,0.9368,1.074,1.2404,1.1579,0.9762,1.1714,1.1023,0.9431,1.1145,1.4029,1.712,1.8391,1.9609,2.0879,2.249,2.4216,2.6062,2.8267,2.9149,2.9417,2.9303,2.756,2.5584,2.4638,2.3195,2.1781,2.0868,2.0081,1.923,1.8213,1.8532,1.8613,1.7647,1.8828,2.009,2.0679,2.0996,2.1636,2.294,2.2031,2.1159,2.089,2.0034,2.01,2.1514,2.2254,2.2774,2.3165,2.48,2.5693,2.5693,2.5693,2.5693,2.5693,2.7647,2.9478,3.121,3.3718,3.5429,3.6405,3.6405,3.6405,3.6405,3.6405,3.6985,3.8002,3.8002,3.8354,3.8919,3.8919,4.0181,4.2033,4.2325,4.4093,4.634,0.0,0.0,0.0,0.0,0.0,0.0,0.0,0.0,0.0,0.0,0.0,0.0,0.0,0.0,0.0,0.0,0.0,0.0,0.0,0.5418,0.5729,0.602,0.5962,0.5916,0.5917,0.542,0.5355,0.5734,0.5897,0.6401,0.7224,0.725,0.7404,0.7645,0.773,0.7663,0.751,0.7528,0.7981,0.0,0.0,0.8608,0.964,1.1009,1.0263,0.8714,1.0575,1.1493,1.2216,1.4766,1.7342,1.9668,2.0955,2.1726,2.2503,2.421,2.5379,2.6608,2.8866,2.9494,2.936,2.8765,2.726,2.5359,2.3005,2.1349,1.9844,1.8249,1.7355,1.6645,1.6074,1.7115,1.7705,1.6576,1.7974,1.9324,1.9669,2.0157,2.0944,2.2173,2.1712,2.1293,2.1293,2.0711,2.0795,2.1897,2.2387,2.2966,2.3858,2.5044,2.5693,2.5693,2.5693,2.5693,2.5693,2.7626,2.9385,3.1019,3.299,3.4759,3.6405,3.6405,3.6405,3.6405,3.6405,3.6895,3.7663,3.7902,3.8354,3.8944,3.9132,4.0785,4.3039,4.3039,4.486,4.7207,0.0,0.0,0.0,0.0,0.0,0.0,0.0,0.0,0.0,0.6108,0.6248,0.6305,0.6147,0.6168,0.0,0.0,0.0,0.0,0.0,0.0,0.6379,0.6688,0.6426,0.6127,0.5859,0.5406,0.5536,0.6289,0.5995,0.6507,0.7728,0.7199,0.7054,0.7231,0.7409,0.7296,0.7001,0.7348,0.7735,0.8102,0.7916,0.8106,0.8539,0.0,0.8635,0.771,0.9198,1.217,1.5927,1.9367,2.0862,2.1481,2.261,2.3369,2.41,2.5424,2.5963,2.6664,2.9082,2.9076,2.828,2.7946,2.7356,2.5792,2.158,2.0082,1.8697,1.5574,1.4563,1.4158,1.3876,1.5535,1.6732,1.6136,1.7077,1.8127,1.8704,1.9196,1.9943,2.1159,2.1436,2.1525,2.1525,2.1525,2.1743,2.2181,2.262,2.3504,2.5039,2.5488,2.5693,2.5693,2.5693,2.5693,2.5693,2.6945,2.8651,3.0778,3.223,3.4035,3.6156,3.631,3.6405,3.6405,3.6405,3.6719,3.7224,3.7776,3.8354,3.8931,3.9484,4.1169,4.3266,4.3266,4.4734,4.6624,0.0,0.0,0.0,0.0,0.0,0.0,0.0,0.0,0.0,0.0,0.7981,0.7423,0.0,0.0,0.0,0.0,0.0,0.0,0.0,0.0,0.0,0.7257,0.6849,0.6641,0.6698,0.6239,0.6071,0.6207,0.6475,0.6543,0.6431,0.6651,0.6781,0.6797,0.6844,0.6848,0.6841,0.69,0.6805,0.6616,0.6954,0.7135,0.7277,0.7825,0.0,0.0,1.0599,1.3365,1.6489,1.9968,2.2354,2.4164,2.5891,2.6283,2.6218,2.6692,2.6877,2.7043,2.7684,2.7773,2.757,2.7193,2.6186,2.4309,2.0591,1.8748,1.6815,1.3237,1.2487,1.2426,1.236,1.3579,1.4444,1.4065,1.5389,1.6642,1.7152,1.8538,1.9943,2.1159,2.2173,2.2775,2.2775,2.2775,2.2992,2.3435,2.385,2.4367,2.5049,2.5488,2.5693,2.5693,2.5693,2.5693,2.5693,2.6945,2.8184,2.9387,3.1746,3.3564,3.4775,3.5918,3.6405,3.6405,3.6405,0.0,3.7224,3.7776,3.8354,3.8931,3.9484,4.0605,4.1936,4.1936,4.2882,4.4046,0.0,0.0,0.0,0.0,0.0,0.0,0.0,0.7023,0.8111,1.0069,1.1279,1.148,1.0166,0.9333,0.8824,0.0,0.0,0.0,0.0,0.0,0.0,0.74,0.6913,0.6563,0.6379,0.6156,0.6136,0.6353,0.0,0.6765,0.7092,0.711,0.7082,0.7008,0.7128,0.698,0.6649,0.6632,0.642,0.606,0.6287,0.6506,0.6735,0.7215,0.0,0.0,1.1682,1.4094,1.6571,1.9643,2.2079,2.4182,2.623,2.6738,2.6522,2.6227,2.5908,2.5938,2.7052,2.7199,2.7031,2.6994,2.6758,2.5094,1.9678,1.7723,1.5823,1.1519,1.0398,1.0193,1.027,1.1974,1.3105,1.2281,1.4246,1.5836,1.5618,1.785,1.9716,2.0305,2.1436,2.2403,2.3047,2.2536,2.2713,2.4017,2.4307,2.4609,2.5086,2.5488,2.5693,2.5693,2.5693,2.5693,2.5693,2.6294,2.7434,2.9042,3.0971,3.2779,3.4434,3.5763,3.6405,3.6405,3.6405,3.6556,3.687,3.7663,3.8165,3.8504,3.9358,4.0453,4.1604,4.1604,4.221,4.2946,0.0,0.0,0.0,0.0,0.0,0.0,0.0,0.7529,0.8845,1.1343,1.4537,1.5633,1.32,1.1778,1.0675,0.0,0.0,0.0,0.0,0.0,0.0,0.0,0.0,0.0,0.591,0.0,0.0,0.6247,0.6374,0.0,0.0,0.0,0.0,0.0,0.7457,0.723,0.6744,0.666,0.6397,0.0,0.0,0.6351,0.6669,0.0,0.0,0.0,0.0,1.4171,1.6058,1.8993,2.1002,2.2619,2.458,2.5563,2.5886,2.5211,2.4637,2.4575,2.6262,2.6436,2.6238,2.6608,2.6962,2.5491,1.8836,1.6932,1.5148,1.0185,0.8836,0.8618,0.8848,1.0606,1.1869,1.1373,1.3346,1.4969,1.4897,1.7517,1.9542,1.9844,2.0711,2.1756,2.3003,2.2031,2.2178,2.4254,2.459,2.4853,2.5195,2.5547,2.5693,2.5693,2.5693,2.5693,2.5693,2.5693,2.6684,2.8616,3.0246,3.2034,3.4019,3.5655,3.6405,3.6405,3.6405,3.6405,3.6493,3.755,3.8002,3.8115,3.9258,4.0313,4.1156,4.1089,4.136,4.1734,0.0,0.0,0.0,0.0,0.0,0.0,0.0,0.7981,1.0281,1.3737,1.6461,1.7892,1.728,1.6255,1.4414,0.0,0.0,0.0,0.0,0.0,0.0,0.0,0.0,0.0,0.0,0.0,0.0,0.5413,0.6136,0.0,0.0,0.0,0.0,0.0,0.0,0.7309,0.7569,0.7204,0.0,0.0,0.0,0.0,0.0,0.0,0.0,0.0,0.0,1.3129,1.4656,1.8307,1.9443,1.9494,2.0622,2.2546,2.4416,2.4444,2.4049,2.3756,2.4611,2.4779,2.4805,2.5258,2.5037,2.3344,1.7993,1.6449,1.4606,0.9175,0.8381,0.8853,0.9408,0.9513,1.0176,1.2205,1.2593,1.3428,1.5797,1.787,1.9616,2.098,2.1248,2.1756,2.3003,2.2031,2.2178,2.4254,2.5118,2.5586,2.5625,2.5664,2.5693,2.5693,2.5693,2.5693,2.5693,2.5693,2.6211,2.7206,2.9769,3.1536,3.2593,3.5198,3.6405,3.6405,3.6405,3.6405,0.0,3.755,3.8002,3.8115,3.9258,3.9788,3.9827,3.9323,3.9196,3.9094,0.0,0.0,0.0,0.0,0.0,0.0,0.7267,0.8121,1.0316,1.4231,1.8216,2.0661,2.0523,1.9803,1.7137,1.1692,0.0,0.0,0.0,0.0,0.0,0.0,0.0,0.0,0.0,0.0,0.5293,0.5293,0.6312,0.0,0.0,0.0,0.0,0.0,0.0,0.8215,0.8333,0.7929,0.0,0.0,0.0,0.0,0.0,0.0,0.0,0.0,0.0,0.0,1.3269,1.6177,1.7287,1.7526,1.7924,1.9256,2.0867,2.2019,2.2668,2.3244,2.4265,2.4515,2.4518,2.4639,2.4161,2.2461,1.7763,1.5717,1.3623,0.9278,0.8,0.7823,0.8261,0.8367,0.9013,1.0856,1.1478,1.234,1.394,1.6038,1.7919,1.9273,1.9738,2.0784,2.2887,2.2031,2.2178,2.4254,2.5187,2.5693,2.5693,2.5693,2.5693,2.5693,2.5693,2.5693,2.5693,2.5693,2.6122,2.7012,2.8904,3.0702,3.2381,3.4313,3.5619,3.6405,3.6405,3.6405,0.0,3.755,3.8002,3.8115,3.9258,3.9484,3.917,3.9007,3.8492,3.7789,0.0,0.0,0.0,0.0,0.0,0.8391,0.8044,0.8707,1.0633,1.457,1.8943,2.184,2.2189,2.1263,1.852,1.3357,1.08,0.0,0.0,0.0,0.0,0.0,0.0,0.0,0.0,0.0,0.534,0.542,0.634,0.6856,0.0,0.0,0.8659,0.8803,0.0,0.0,0.0,0.0,0.0,0.0,0.0,0.0,0.0,0.0,0.0,0.0,0.0,0.0,0.0,0.0,0.0,1.5881,1.5881,1.6542,1.7781,2.0253,2.1548,2.2486,2.3861,2.4016,2.3766,2.3655,2.2844,2.1027,1.718,1.5002,1.282,0.941,0.7938,0.7306,0.7475,0.7642,0.8278,0.986,1.0603,1.1634,1.3341,1.5032,1.6625,1.812,1.836,1.9333,2.1685,2.1778,2.2446,2.4273,2.5187,2.5693,2.5693,2.5693,2.5693,2.5693,2.5693,2.5693,2.5693,2.5693,2.6122,2.7012,2.8366,3.0167,3.2331,3.3773,3.5126,3.6405,3.6405,3.6405,0.0,3.755,3.8002,3.8103,3.9069,3.922,3.8881,3.8542,3.7864,3.7161,0.0,0.0,0.0,0.0,0.0,0.0,0.9106,0.9917,1.1701,1.5046,1.8313,2.0775,2.1968,2.008,1.8295,1.7218,1.2586,0.0,0.0,0.0,0.0,0.0,0.0,0.0,0.0,0.0,0.5434,0.5694,0.6099,0.6503,0.6926,0.7737,0.8354,0.8803,0.0,0.0,0.0,0.0,0.0,0.0,0.0,0.0,0.0,0.0,0.0,0.0,0.0,0.0,0.0,0.0,0.0,0.0,0.0,1.4668,1.5715,1.9738,2.0922,2.1301,2.313,2.2882,2.2107,2.2138,2.0734,1.8638,1.6015,1.4331,1.2433,0.9342,0.8275,0.7799,0.7541,0.7491,0.8074,0.9826,1.0127,1.136,1.4954,1.549,1.6271,1.8369,1.7541,1.7427,1.8971,2.1248,2.3074,2.4322,2.5187,2.5693,2.5693,2.5693,2.5693,2.5693,2.5693,2.5693,2.5693,2.5693,2.6122,2.7012,2.8366,3.0167,3.2331,3.3773,3.5126,3.6405,3.6405,3.6405,0.0,3.755,3.8002,3.8065,3.8655,3.8881,3.8781,3.7613,3.7199,3.7111,0.0,0.0,0.0,0.0,0.0,0.0,0.0,0.9699,1.1389,1.4599,1.6621,1.8669,2.1014,1.8738,1.7127,1.7321,1.316,0.0,0.0,0.0,0.0,0.0,0.0,0.0,0.0,0.6011,0.5818,0.6313,0.6902,0.7595,0.8402,0.8342,0.8802,0.9658,0.9076,0.9279,0.0,0.0,0.0,0.0,0.0,0.0,0.0,0.0,0.0,0.0,0.0,0.0,0.0,0.0,0.0,0.0,0.0,0.0,0.0,1.6651,1.8729,2.0399,2.0976,2.0943,2.0514,1.9607,1.823,1.6652,1.4903,1.3412,1.1706,0.9211,0.8275,0.7828,0.7541,0.7323,0.7876,1.0067,1.0247,1.0924,1.331,1.4188,1.5101,1.6594,1.7886,1.8839,1.9315,2.1077,2.2788,2.4302,2.4951,2.541,2.5674,2.5693,2.5693,2.5693,2.5693,2.5693,2.5693,2.5693,2.6122,2.7021,2.745,2.9285,3.2331,3.2744,3.4203,3.6405,3.6405,3.6619,3.6973,3.7713,3.8002,3.8065,3.8642,3.8391,3.7676,3.7312,3.6996,3.6644,0.0,0.0,0.0,0.0,0.0,0.0,0.0,0.9977,1.1271,1.399,1.514,1.6795,1.9714,1.7302,1.6,1.7283,1.3892,0.0,0.0,0.0,0.0,0.0,0.0,0.0,0.7487,0.6462,0.6417,0.7405,0.7601,0.8222,0.9214,0.9387,0.9612,0.9873,0.979,0.9977,0.0,0.0,0.0,0.0,0.0,0.0,0.9148,0.0,0.0,0.0,0.0,0.0,0.0,0.0,0.0,0.0,0.0,0.0,0.0,0.0,1.6676,1.8231,1.8825,1.8966,1.8597,1.7085,1.5899,1.4749,1.3399,1.2276,1.1062,0.9359,0.8419,0.7854,0.768,0.7393,0.7749,0.9487,0.986,1.0528,1.2221,1.3226,1.4199,1.5439,1.7388,1.883,1.929,2.0954,2.2658,2.4293,2.4814,2.5264,2.5664,2.5693,2.5693,2.5693,2.5693,2.5693,2.5693,2.5693,2.6122,2.7012,2.7012,2.8595,3.1531,3.1531,3.3044,3.5667,3.5667,3.6228,0.0,3.7776,3.8002,3.804,3.8404,3.799,3.7161,3.6948,3.6707,3.6405,0.0,0.0,0.0,0.0,0.0,0.0,0.0,1.0655,1.1327,1.3249,1.3823,1.5106,1.792,1.5692,1.4823,1.6878,0.0,0.0,0.0,0.0,0.0,0.0,0.0,0.0,0.8348,0.7115,0.7216,0.8739,0.8297,0.8593,0.9568,1.0741,1.0672,0.9676,1.0802,1.0963,0.0,0.0,0.0,0.0,1.0083,0.9805,0.0,0.0,0.0,0.0,0.0,0.0,0.0,0.0,0.0,0.0,0.0,0.0,0.0,0.0,0.0,0.0,0.0,1.6872,1.6426,1.4599,1.3738,1.2995,1.162,1.1077,0.0,0.9641,0.8655,0.7955,0.7947,0.7708,0.7732,0.8469,0.9273,1.0318,1.1792,1.2829,1.3864,1.5034,1.6472,1.7868,1.9126,2.0922,2.2658,2.4293,2.4814,2.5264,2.5664,2.5693,2.5693,2.5693,2.5693,2.5693,2.5693,2.5713,2.6152,2.7012,2.7041,2.8184,3.0317,3.0317,3.1735,0.0,3.4337,3.5344,3.7019,3.7579,3.7841,3.7841,3.7841,3.754,3.7061,3.6593,3.6405,3.6405,0.0,0.0,0.0,0.0,0.0,0.0,0.0,0.0,0.0,0.0,1.264,1.3134,1.4343,1.3569,1.3167,0.0,0.0,0.0,0.0,0.0,0.0,0.0,0.0,0.0,0.8756,0.8398,0.85,0.9077,0.9734,1.0399,1.11,1.1639,1.1533,1.0884,1.1221,1.1013,0.0,0.0,0.0,0.0,1.0059,0.988,0.0,0.0,0.0,0.0,1.0123,1.0134,0.0,0.0,0.0,0.0,0.0,0.0,0.0,0.0,1.3377,1.3604,1.314,0.0,1.3926,1.2165,1.1883,1.1763,0.0,1.0923,1.0943,0.9234,0.8683,0.8477,0.8308,0.7851,0.8127,1.006,1.0548,1.1202,1.2685,1.4646,1.6125,1.663,1.8015,1.9447,2.0668,2.1536,2.2658,2.4293,2.4814,2.5264,2.5664,2.5693,2.5693,2.5693,2.5693,2.5693,2.5693,2.6074,2.6494,2.7021,2.7353,2.8485,3.0317,3.0317,3.1224,3.2844,3.392,3.4487,3.4693,3.586,3.6338,3.6338,3.6338,3.6431,3.6581,3.6455,3.6405,3.6405,0.0,0.0,0.0,0.0,0.0,0.0,0.0,0.0,0.0,0.0,0.0,1.2295,1.254,1.2576,0.0,0.0,0.0,0.0,0.0,0.0,0.0,0.0,0.0,0.9114,0.9178,0.8809,0.8952,0.9653,1.0184,1.1122,1.2477,1.2767,1.2731,1.2325,1.1619,1.1231,0.0,0.0,0.0,0.0,0.9995,0.0,0.0,0.0,0.0,0.0,1.0421,1.015,0.0,1.0646,1.0677,1.0619,0.0,0.0,0.0,0.0,1.2553,1.243,1.161,1.2478,1.3174,1.1246,1.1326,1.1573,1.0337,1.0548,1.0717,0.9649,0.9239,0.899,0.876,0.897,0.9422,1.0073,1.1682,1.3279,1.4363,1.5347,1.6118,1.6522,1.8279,1.9761,2.0395,2.1698,2.3055,2.4319,2.4639,2.5049,2.5654,2.5693,2.5693,2.5693,2.5693,2.5693,2.5693,2.6172,2.6602,2.7021,2.7461,2.8291,2.9355,2.9355,3.011,3.1429,3.2202,3.3016,3.3862,3.4607,3.5005,3.5213,3.5954,3.5777,3.5238,3.6365,3.5976,3.4978,0.0,0.0,0.0,0.0,0.0,0.0,0.0,0.0,0.0,0.0,0.0,0.0,0.0,0.0,0.0,0.0,0.0,0.0,0.0,0.0,0.0,0.0,0.9906,0.9517,0.9788,0.8983,0.9127,1.0287,1.0364,1.1443,1.3489,1.3978,1.4092,1.3799,1.2262,1.167,1.1792,0.0,0.0,0.0,1.0031,0.0,0.0,0.0,0.0,0.0,0.0,0.0,0.0,1.0907,1.1052,1.0857,1.1915,0.0,0.0,0.0,0.0,0.0,1.1385,1.2535,1.3298,1.1008,1.1316,1.1789,1.0267,1.0127,1.0293,1.0263,0.9964,0.9709,0.9711,1.0532,1.0958,1.0142,1.2826,1.528,1.5936,1.5893,1.5885,1.6178,1.8509,2.0042,2.0042,2.1963,2.35,2.4268,2.4443,2.4844,2.5547,2.5654,2.5693,2.5693,2.5693,2.5693,2.5693,2.623,2.666,2.7021,2.7519,2.7949,2.8291,2.8291,2.89,3.0016,3.0214,0.0,3.3175,3.3387,3.3717,3.4203,3.55,3.5031,3.39,3.6133,3.5406,3.3617,0.0,0.0,0.0,0.0,0.0,0.0,0.0,0.0,0.0,0.0,0.0,0.0,0.0,0.0,0.0,0.0,0.0,0.0,0.0,0.0,0.0,1.0482,0.9777,0.9932,1.1086,0.988,0.973,1.072,1.1376,1.2265,1.337,1.4929,1.5465,1.5069,1.3859,1.2624,1.1455,1.1256,0.0,1.0078,1.0487,0.0,0.0,0.0,0.0,0.0,0.0,0.0,0.0,0.9731,0.9924,1.017,1.0905,0.0,0.0,0.0,0.0,0.0,1.2456,1.3318,1.3348,1.04,1.0944,1.173,0.9983,0.9955,1.0263,1.015,1.0374,1.0994,1.233,1.1858,1.1798,1.3357,1.4305,1.5064,1.5692,1.7851,1.9085,1.8259,2.0773,2.2545,2.2545,2.3245,2.375,2.3877,2.456,2.5077,2.5166,2.5527,2.5693,2.5693,2.5693,2.5693,2.5693,2.6523,2.6953,2.7021,2.7822,2.8232,2.8291,2.8291,2.8388,2.8644,0.0,3.0269,3.0309,3.1485,3.2163,3.2575,3.2795,3.3204,3.3787,3.5404,3.5464,3.4863,0.0,0.0,0.0,0.0,0.0,0.0,0.0,0.0,0.0,0.0,0.0,0.0,0.0,0.0,0.0,0.0,0.0,0.0,0.0,0.0,1.0769,1.1191,1.0498,1.0402,1.1013,1.1024,1.1555,1.2644,1.307,1.4293,1.6222,1.6611,1.6603,1.6112,1.3884,1.2326,1.1362,1.0793,1.0233,0.9723,0.0,0.0,0.0,0.0,0.0,0.0,0.0,0.0,0.0,0.0,1.0113,1.0415,1.1148,0.0,0.0,0.0,0.0,0.0,1.1462,1.2441,1.3124,1.17,1.3009,1.433,1.3205,1.302,1.2973,1.2702,1.2805,1.3146,1.3735,1.4246,1.5274,1.7393,1.6362,1.5857,1.7458,1.8583,1.9084,1.8767,2.073,2.212,2.212,2.2903,2.3535,2.3769,2.4365,2.4814,2.5106,2.5488,2.5693,2.5693,2.5693,2.5693,2.5693,2.6582,2.7012,2.7021,2.7881,2.8291,2.8291,2.8291,2.8291,2.8344,0.0,2.9345,2.9626,3.0264,3.0934,3.156,3.2369,3.2458,3.2229,3.3212,3.446,3.5697,0.0,0.0,0.0,0.0,0.0,0.0,0.0,0.0,0.0,0.0,0.0,0.0,0.0,0.0,0.0,0.0,0.0,0.0,0.0,0.0,1.0654,1.1411,1.1304,1.1437,1.1923,1.2377,1.3357,1.4896,1.4923,1.6217,1.8685,1.8511,1.7798,1.6544,1.3842,1.2133,1.1215,1.0481,0.9995,0.9658,0.0,0.0,0.0,0.0,0.0,0.0,0.0,0.0,0.0,0.0,0.0,0.0,0.0,0.0,0.0,1.2225,1.1645,1.1166,1.1191,1.2034,1.3003,1.3404,1.4736,1.5909,1.5817,1.5357,1.499,1.5068,1.5166,1.5284,1.5364,1.6703,1.8228,1.958,1.7931,1.7163,1.9194,1.9333,1.9247,1.9299,2.074,2.1702,2.1702,2.2536,2.3227,2.3613,2.4033,2.4453,2.4893,2.5342,2.5586,2.5684,2.5693,2.5693,2.5693,2.6582,2.7012,2.7021,2.7881,2.8291,2.8291,2.8291,2.8291,2.8291,2.8291,2.8779,2.9626,2.9626,3.0088,3.1054,3.253,3.2742,3.2282,3.2477,3.4277,3.6426,0.0,0.0,0.0,0.0,0.0,0.0,0.0,0.0,0.0,0.0,0.0,0.0,0.0,0.0,0.0,0.0,0.0,0.0,0.0,0.0,1.007,1.0123,1.176,1.358,1.5576,1.4046,1.4478,1.6989,1.6616,1.7173,1.8643,2.038,1.9341,1.5901,1.4556,1.2811,1.0847,1.0777,1.0544,1.0281,1.0665,0.0,0.0,0.0,0.0,0.0,0.0,0.0,0.0,0.0,0.0,0.0,0.0,0.0,1.2413,1.2801,1.2309,1.1965,1.3436,1.3379,1.3262,1.4834,1.4473,1.4026,1.5187,1.4505,1.4092,1.5684,1.6299,1.6931,1.8071,1.863,1.8597,1.7681,1.823,1.8972,1.9521,2.0793,2.1427,2.08,2.2061,2.296,2.296,2.3047,2.311,2.314,2.3584,2.4014,2.4443,2.4873,2.5303,2.5674,2.5693,2.5693,2.5693,2.6582,2.7012,2.7021,2.7881,2.8291,2.8291,2.8291,2.8291,2.8291,2.8291,2.8779,2.9626,2.9626,3.0088,3.1054,3.253,3.4395,3.625,3.5697,3.619,3.7048,0.0,0.0,0.0,0.0,0.0,0.0,0.0,0.0,0.0,0.0,0.0,0.0,0.0,0.0,0.0,0.0,0.0,0.0,0.0,0.9384,0.989,1.131,1.2438,1.3878,1.5652,1.629,1.7599,1.9707,2.0082,2.0279,2.0278,1.9711,1.8137,1.5716,1.4123,1.2428,1.0747,1.0828,1.0758,1.0569,1.0213,1.0273,0.0,0.0,0.0,0.0,0.0,0.0,0.0,0.0,1.1497,1.1601,1.1925,1.2379,1.2718,1.2309,1.1716,1.1334,1.1949,1.2686,1.3486,1.4367,1.4863,1.5439,1.6728,1.7061,1.7363,1.8271,1.8594,1.8634,1.8434,1.872,1.8877,1.843,1.8914,1.9664,2.0488,2.1569,2.2198,2.1907,2.2611,2.3091,2.3091,2.3091,2.3091,2.3091,2.3545,2.3975,2.4394,2.4834,2.5273,2.5674,2.5693,2.5693,2.5693,2.6582,2.7012,2.7021,2.7881,2.8291,2.8291,2.8291,2.8291,2.8291,2.8291,2.8779,2.9626,2.9626,3.0399,3.1881,3.3349,3.4837,3.6129,3.5888,3.6208,3.6732,0.0,0.0,0.0,0.0,0.0,0.0,0.0,0.0,0.0,0.0,0.0,0.0,0.0,0.0,0.0,0.0,0.0,0.0,0.9421,0.9253,0.9822,1.1285,1.2602,1.3943,1.5295,1.7642,1.9492,2.0781,2.2105,2.1903,2.0194,1.8925,1.7471,1.5889,1.4135,1.2776,1.1829,1.1543,1.1313,1.1073,1.0283,1.0186,0.0,0.0,0.0,0.0,0.0,0.0,0.0,0.0,1.2246,1.2234,1.2407,1.2553,1.2592,1.22,1.2134,1.2145,1.1952,1.2934,1.4073,1.4419,1.5107,1.6105,1.7646,1.8467,1.9121,1.9951,2.0117,1.9803,1.8706,1.9051,1.9402,1.9076,1.9613,2.0433,2.1294,2.206,2.2568,2.2652,2.2916,2.3091,2.3091,2.3091,2.3091,2.3091,2.3418,2.3828,2.4385,2.4697,2.5127,2.5674,2.5693,2.5693,2.5693,2.6455,2.6816,2.6826,2.7549,2.8027,2.8291,2.8291,2.8291,2.8344,2.8751,2.9114,2.9476,3.0318,3.1829,3.3693,3.4519,3.5532,3.6466,3.6309,3.6395,3.6719,0.0,0.0,0.0,0.0,0.0,0.0,0.0,0.0,0.0,0.0,0.0,0.0,0.0,0.0,0.0,0.0,0.0,0.0,0.9436,0.9761,0.984,0.9522,1.206,1.3942,1.4944,1.7854,1.955,1.9902,2.2162,2.1432,1.7901,1.8354,1.7833,1.6412,1.4833,1.4194,1.4208,1.3022,1.2276,1.1847,1.1244,1.1,1.0943,0.0,0.0,0.0,0.0,0.0,0.0,0.0,1.264,1.2062,1.3446,1.2901,1.1861,1.2645,1.3882,1.4839,1.4248,1.4522,1.5081,1.5334,1.5117,1.5391,1.7529,1.7983,1.8506,2.0215,2.0605,2.0284,1.9204,1.9883,2.0245,1.9155,2.0252,2.1356,2.1826,2.2246,2.2676,2.3042,2.3091,2.3091,2.3091,2.3091,2.3091,2.3091,2.3091,2.3471,2.4365,2.4414,2.4777,2.5664,2.5693,2.5693,2.5693,2.6172,2.6387,2.6396,2.6816,2.7461,2.8281,2.8281,2.8291,2.8398,2.9713,2.9758,2.9124,3.1886,3.4486,3.6633,3.607,3.6692,3.7952,3.74,3.7199,3.7199,0.0,0.0,0.0,0.0,0.0,0.0,0.0,0.0,0.0,0.0,0.0,0.0,0.0,0.0,0.0,0.0,0.0,0.0,0.9008,0.8864,0.9223,1.0154,1.168,1.2742,1.3239,1.4889,1.7164,2.005,2.0334,1.9265,1.6946,1.793,1.7087,1.4816,1.6312,1.5664,1.3437,1.3217,1.2603,1.1698,1.1145,1.0962,1.1012,0.0,0.0,0.0,0.0,0.0,0.0,0.0,0.0,0.0,1.2506,1.2782,1.2965,1.1816,1.2497,1.3345,1.2173,1.3785,1.5632,1.4698,1.6434,1.8486,1.8828,1.8322,1.8101,1.9229,2.0079,2.0284,1.9204,1.9883,2.0245,1.9155,2.0498,2.1738,2.1865,2.25,2.2955,2.3081,2.3091,2.3091,2.3091,2.3091,2.3091,2.3091,2.3091,2.3471,2.4365,2.4414,2.4777,2.5664,2.5693,2.5693,2.5693,2.6172,2.6387,2.6396,2.6816,2.7305,2.7851,2.7851,2.8018,2.8398,2.9713,3.0328,3.0594,3.3287,3.5333,3.6713,3.6748,3.7543,3.8542,3.7977,3.7764,3.7814,0.0,0.0,0.0,0.0,0.0,0.0,0.0,0.0,0.0,0.0,1.3328,1.2989,0.0,0.0,0.0,0.0,0.0,0.0,0.8844,0.8885,0.9215,0.9841,1.096,1.2098,1.3194,1.4324,1.5662,1.7271,1.7585,1.6994,1.5637,1.6923,1.7072,1.6301,1.8102,1.7739,1.5738,1.5185,1.3915,1.2241,1.2054,1.1654,1.1264,0.0,0.0,0.0,0.0,0.0,0.0,0.0,0.0,0.0,1.2012,1.2196,1.2589,1.2094,1.3179,1.4428,1.3878,1.5586,1.7389,1.6829,1.793,1.9158,1.9202,1.9023,1.9002,1.9536,2.0167,2.0401,1.9756,2.0157,2.0401,1.9717,2.0886,2.1885,2.1885,2.2607,2.3091,2.3091,2.3091,2.3091,2.3091,2.3091,2.3091,2.3091,2.3091,2.3471,2.4365,2.4414,2.4777,2.5664,2.5693,2.5693,2.5693,2.5996,2.6133,2.6133,2.6387,2.6826,2.7412,2.7588,2.8196,2.9154,3.0514,3.19,3.3237,3.4316,3.5757,3.7195,3.7219,3.7877,3.8856,3.8216,3.8153,3.8404,0.0,0.0,0.0,0.0,0.0,0.0,0.0,0.0,0.0,1.3592,1.3427,1.3132,0.0,0.0,0.0,1.0956,1.0581,0.9957,0.8926,0.9525,0.968,0.9127,1.0377,1.2115,1.4316,1.5165,1.4699,1.2897,1.441,1.4738,1.4004,1.5697,1.7542,1.9448,1.987,1.9877,1.9484,1.7678,1.5399,1.3003,1.3334,1.2699,1.1636,1.2677,0.0,0.0,0.0,0.0,0.0,0.0,0.0,0.0,1.1748,1.1339,1.1325,1.2728,1.4844,1.6845,1.7387,1.8443,1.9583,2.0195,1.9277,1.8395,1.9022,1.9883,2.0566,2.0479,2.0518,2.0605,2.0605,2.0605,2.0605,2.0605,2.1319,2.1836,2.1875,2.2578,2.3052,2.3091,2.3091,2.3091,2.3091,2.3091,2.3091,2.3091,2.3091,2.3471,2.4365,2.4414,2.4777,2.5664,2.5693,2.5693,2.5693,2.5693,2.5693,2.5693,2.5693,2.6132,2.7021,2.7422,2.8659,3.0566,3.1938,3.3995,3.631,3.5078,3.5954,3.7952,3.74,3.7914,3.8881,3.8304,3.8454,3.8994,0.0,0.0,0.0,0.0,0.0,0.0,0.0,0.0,1.3592,1.3592,1.3469,1.3183,1.2658,1.2244,0.0,1.0979,1.0581,1.0084,0.9329,0.9817,1.0257,1.0537,1.2362,1.3816,1.4748,1.3755,1.2881,1.2138,1.2953,1.2956,1.2225,1.566,1.7577,1.8256,1.9843,1.9578,1.7756,1.5284,1.339,1.2108,1.2382,1.2195,1.188,1.3086,1.3343,0.0,0.0,0.0,0.0,0.0,0.0,0.0,1.0816,1.0964,1.1315,1.0585,1.272,1.5141,1.4238,1.6387,1.8812,1.8596,1.9297,2.0069,2.0236,2.044,2.0362,1.952,2.0001,2.0605,2.0605,2.0605,2.0605,2.0605,2.1025,2.1494,2.1836,2.2324,2.2773,2.3052,2.3091,2.3091,2.3091,2.3091,2.3091,2.3091,2.3091,2.3471,2.4365,2.4414,2.4777,2.5664,2.5693,2.5693,2.5693,2.5693,2.5693,2.5693,2.5693,2.6132,2.7021,2.7109,2.8901,3.1938,3.3353,3.4872,3.6358,3.6108,3.6757,3.7952,3.74,3.814,3.9446,3.8894,3.9044,3.9521,0.0,0.0,0.0,0.0,0.0,0.0,0.0,0.0,1.3459,1.3459,1.3404,1.3158,1.2658,1.2183,0.0,0.0,1.0581,1.0122,0.9436,0.9808,1.0304,1.0876,1.2712,1.3736,1.376,1.2897,1.2145,1.1522,1.1502,1.1634,1.1956,1.4621,1.6616,1.8038,1.9037,1.8686,1.7118,1.5051,1.3445,1.2352,1.2467,1.2453,1.2436,1.3347,1.3483,1.3163,1.2943,0.0,0.0,0.0,0.0,0.0,0.0,0.0,1.0228,1.0299,1.1654,1.3287,1.399,1.6034,1.8184,1.9023,1.994,2.0605,2.0605,2.0605,2.044,1.9883,2.0196,2.0605,2.0605,2.0429,2.0254,2.0254,2.0449,2.0752,2.1191,2.1807,2.2373,2.275,2.2974,2.3091,2.3091,2.2916,2.2877,2.3081,2.2906,2.3301,2.4355,2.4414,2.4777,2.5664,2.5693,2.5693,2.5693,2.5693,2.5693,2.5693,2.5693,2.6468,2.7995,2.9062,3.091,3.3353,3.4763,3.5763,3.6405,3.6405,3.701,3.7977,3.7688,3.8442,3.9659,3.9371,3.9446,3.9697,0.0,0.0,0.0,0.0,0.0,0.0,0.0,0.0,0.0,1.3167,1.3133,1.2949,1.2572,1.203,1.1509,0.0,0.0,0.0,0.962,0.9864,1.0342,1.1041,1.2405,1.298,1.2644,1.2395,1.1919,1.1212,1.0552,1.1065,1.2679,1.372,1.5703,1.838,1.7922,1.7462,1.6854,1.506,1.3645,1.2583,1.2653,1.2618,1.2634,1.3235,1.3254,1.2908,1.2526,1.2383,1.2162,1.0693,0.0,0.0,0.0,0.0,0.8956,1.026,1.0896,1.1721,1.4124,1.5927,1.7649,1.9803,2.044,2.0605,2.0605,2.0605,2.0586,2.0507,2.0488,2.0488,2.0488,2.0098,1.9805,1.9805,1.9805,1.9961,2.0391,2.1221,2.1904,2.2256,2.275,2.3062,2.2994,2.2783,2.2721,2.3062,2.2769,2.3144,2.4355,2.4414,2.4777,2.5664,2.5693,2.5693,2.5693,2.5693,2.5693,2.5693,2.5762,2.7018,2.9291,3.1263,3.3025,3.4483,3.5823,3.6405,3.6405,3.6405,3.701,3.8002,3.8002,3.8705,3.9697,3.9697,3.9697,3.9697,0.0,0.0,0.0,0.0,0.0,0.0,0.0,0.0,0.0,0.0,1.2431,1.2254,1.2261,1.1921,1.1585,1.1262,1.1205,1.0926,1.0309,0.0,0.0,1.2145,1.2406,1.2689,1.3099,1.2196,1.1712,1.1711,1.1021,1.2018,1.4539,1.4653,1.6312,1.9067,1.6853,1.6111,1.6268,1.2956,1.1439,1.1281,1.1641,1.1566,1.1331,1.2173,1.2272,1.1975,1.192,1.1884,1.1726,1.0579,1.0196,0.0,0.0,0.0,0.8655,0.8411,0.9709,1.1233,1.1395,1.4096,1.7223,1.8836,1.9923,2.0605,2.0605,2.0605,2.0498,2.0078,2.0,2.0,2.0,1.9658,1.9375,1.9375,1.9375,1.9512,1.9941,2.0722,2.1298,2.1356,2.2389,2.2955,2.2627,2.2838,2.3033,2.3091,2.3042,2.3413,2.4365,2.4414,2.4777,2.5664,2.5693,2.5693,2.5693,2.5693,2.5693,2.5693,2.6123,2.7629,3.0081,3.1267,3.2753,3.4483,3.5823,3.6405,3.6405,3.6405,3.701,3.8002,3.8002,3.8705,3.9697,3.9697,3.9697,3.9697,0.0,0.0,0.0,0.0,0.0,0.0,0.0,0.0,0.0,0.0,0.0,1.1828,1.1698,1.1439,1.1205,1.1094,1.1083,1.0952,1.0703,1.1042,1.1397,1.1704,1.2011,1.2226,1.2303,1.1512,1.1314,1.174,1.1113,1.253,1.5834,1.5403,1.6493,1.8746,1.619,1.5355,1.5625,1.2381,1.1299,1.1737,1.1116,1.1507,1.238,1.1797,1.1918,1.2283,1.126,1.0712,1.0301,0.9255,0.8913,0.8731,0.7703,0.0,0.0,0.0,0.8085,0.9244,1.1097,1.3331,1.5784,1.836,1.9362,1.9844,2.044,2.0605,2.0478,2.0,1.9727,1.9561,1.9561,1.9209,1.8926,1.8926,1.873,1.8711,1.9104,1.9904,2.0586,2.083,2.1797,2.2461,2.251,2.2471,2.2627,2.3062,2.2877,2.3218,2.4355,2.4414,2.4777,2.5664,2.5693,2.5693,2.5693,2.5693,2.5693,2.5693,2.5937,2.75,3.0204,3.0971,3.2645,3.5094,3.5984,3.6405,3.6405,3.6405,3.701,3.8002,3.8002,3.8705,3.9697,3.9697,3.9697,3.9697,0.0,0.0,0.0,0.0,0.0,0.0,0.0,0.0,0.0,0.0,0.0,1.1328,1.121,0.0,0.0,0.0,1.1001,1.1001,1.1001,1.1311,1.1343,1.1005,1.1372,1.1453,1.1163,1.0734,1.0887,1.168,1.1212,1.3059,1.6996,1.6291,1.7296,1.9541,1.6646,1.545,1.5487,1.2759,1.2023,1.2577,1.1429,1.188,1.3144,1.2167,1.2228,1.2652,1.1078,1.0091,0.9383,0.8271,0.7899,0.7787,0.7196,0.69,0.0,0.0,0.0,0.7223,1.027,1.1988,1.3745,1.7258,1.8386,1.8985,2.0285,2.0517,2.0273,1.9844,1.9414,1.9092,1.8984,1.8691,1.8442,1.8442,1.8213,1.8081,1.8403,1.9219,1.9873,2.0243,2.1113,2.1885,2.2314,2.2168,2.2344,2.3042,2.2808,2.3135,2.4199,2.4355,2.4766,2.5537,2.5625,2.5693,2.5693,2.5693,2.5693,2.5693,2.5693,2.7205,3.0014,3.069,3.2571,3.5332,3.6056,3.6405,3.6405,3.6405,3.6923,3.7801,3.7801,3.8404,3.9283,3.9433,3.9484,3.9509,0.0,0.0,0.0,0.0,0.0,0.0,0.0,0.0,0.0,0.0,0.0,1.0579,1.0897,1.0617,1.0664,1.1227,1.1287,1.1287,1.1287,1.1064,1.078,1.0461,1.0463,0.0,0.9993,0.9956,1.0482,1.161,1.157,1.3799,1.8094,1.7558,1.9283,2.2695,1.8799,1.6792,1.6221,1.4156,1.3338,1.34,1.3014,1.2627,1.2383,1.3506,1.3424,1.2583,1.1668,1.0739,0.9763,0.8378,0.7899,0.7787,0.7196,0.6647,0.6236,0.0,0.0,0.0,0.7621,0.9153,1.1096,1.4849,1.6732,1.82,2.0168,2.0244,1.9824,1.9404,1.8975,1.851,1.8144,1.8057,1.8047,1.8047,1.8027,1.8018,1.8037,1.8779,1.9326,1.9346,2.0488,2.1405,2.1875,2.2256,2.2656,2.3062,2.3071,2.3276,2.3799,2.4199,2.4629,2.5135,2.5518,2.5693,2.5693,2.5693,2.5693,2.5693,2.5693,2.6993,2.9474,3.0532,3.2383,3.4781,3.594,3.6405,3.6405,3.6405,3.6757,3.7224,3.7224,3.7575,3.8165,3.8718,3.8957,3.8981,0.0,0.0,0.0,0.0,0.0,0.0,0.0,0.0,0.0,0.0,0.0,0.0,0.0,1.0347,1.0567,1.1013,1.1404,1.1471,1.1071,1.1313,1.1161,1.0433,1.0619,1.0459,0.9918,0.9905,1.027,1.1021,1.1412,1.3136,1.6103,1.6584,1.7953,1.9885,1.8118,1.7618,1.7811,1.3983,1.2581,1.2913,1.2919,1.3298,1.3863,1.3709,1.3743,1.3592,1.1554,1.0022,0.8905,0.8378,0.7823,0.0,0.7063,0.6627,0.6122,0.5739,0.5746,0.6084,0.7053,0.8262,0.9903,1.2649,1.486,1.6794,1.8524,1.9434,1.9795,1.9375,1.8459,1.7748,1.7949,1.8008,1.8008,1.8008,1.8008,1.8008,1.8008,1.8506,1.8975,1.9248,1.9941,2.0781,2.1787,2.2021,2.2402,2.3042,2.3091,2.3286,2.3769,2.3935,2.4336,2.5096,2.5225,2.5449,2.5684,2.5693,2.5693,2.5693,2.5693,2.661,2.8305,3.0141,3.1935,3.363,3.5587,3.6405,3.6405,3.6405,3.6732,3.7186,3.7186,3.7525,3.8078,3.8655,3.8919,3.9007,0.0,0.0,0.0,0.0,0.0,0.0,0.0,0.0,0.0,0.9556,0.0,0.0,0.0,0.0,1.0372,1.0703,1.1196,1.1324,1.0932,1.1358,1.1262,1.0433,1.0727,1.0582,0.9918,0.9905,1.0156,1.0694,1.1096,1.2529,1.4928,1.5618,1.6773,1.8177,1.7074,1.7396,1.8462,1.4874,1.3349,1.3367,1.3836,1.4159,1.4428,1.4932,1.4719,1.3978,1.2753,1.0994,0.9322,0.0,0.0,0.0,0.7726,0.6814,0.5739,0.4938,0.5193,0.5796,0.6047,0.7007,0.8536,1.1059,1.2726,1.4457,1.7326,1.828,1.8545,1.859,1.773,1.7113,1.7445,1.7535,1.7647,1.794,1.8008,1.8008,1.8008,1.8217,1.8607,1.9219,1.9531,2.0273,2.1738,2.1885,2.2236,2.3033,2.3091,0.0,2.3555,2.3711,2.4189,2.5086,2.5116,2.5283,2.5684,2.5693,2.5693,2.5693,2.5693,2.639,2.7657,2.9785,3.1537,3.3004,3.5155,3.6194,3.6405,3.6405,3.6619,3.6958,3.6958,3.7136,3.755,3.8304,3.858,3.868,0.0,0.0,0.0,0.0,0.0,0.0,0.0,0.0,0.8825,0.8836,0.0,0.0,0.0,0.0,0.0,1.0438,1.0758,1.0912,1.0861,1.1113,1.0992,1.0382,1.0676,1.0556,0.9918,0.9905,1.0143,1.0643,1.0669,1.209,1.4771,1.4808,1.6012,1.8077,1.5943,1.6092,1.7875,1.6729,1.5669,1.4828,1.5739,1.5116,1.3965,1.7268,1.6453,0.0,1.5355,1.3819,0.0,1.1969,0.0,0.0,0.9105,0.7154,0.5092,0.3903,0.417,0.4781,0.0,0.0,0.0,1.0006,1.0361,1.132,1.6508,1.6713,1.6048,1.6944,1.6766,1.6487,1.6558,1.6567,1.6853,1.7794,1.7974,1.8008,1.8008,1.8008,1.832,1.917,1.9277,1.9971,2.1699,2.1875,2.2236,2.3033,2.3091,2.3091,2.3091,2.3555,2.417,2.5047,2.5106,2.5273,2.5664,2.5684,2.5742,2.5781,2.5742,2.639,2.7647,2.936,3.1122,3.2933,3.4678,3.5809,3.6405,3.6405,3.6405,3.6405,3.6405,3.6405,3.6543,3.76,3.8002,3.8165,0.0,0.0,0.0,0.0,0.0,0.9296,0.9296,0.9296,0.9403,0.0,0.0,0.0,1.0073,1.0594,1.1269,1.2128,1.1764,1.1102,1.0237,1.028,1.0094,0.9482,0.9778,0.994,0.9906,0.9905,0.978,0.9541,0.9931,1.0708,1.1874,1.2718,1.3884,1.525,1.5079,1.4866,1.4526,1.3102,1.2914,1.3605,1.4058,1.4867,0.0,0.0,0.0,0.0,0.0,1.4782,1.2802,0.0,1.1281,0.9011,0.0,0.6478,0.5799,0.5032,0.5286,0.5695,0.5193,0.0,0.0,0.0,0.0,0.0,1.2202,1.3048,1.3676,1.4965,1.4347,1.3963,1.533,1.5587,1.5904,1.6819,1.7579,1.8008,1.8008,1.8008,1.8213,1.8715,1.9092,1.9853,2.1279,2.1699,2.2236,0.0,2.3091,2.3091,2.3091,2.3555,2.3896,2.4141,2.4793,2.5127,2.5254,2.5528,2.6149,2.7078,2.6159,2.639,2.7647,2.8482,2.9844,3.1626,3.341,3.502,3.6405,3.6405,3.6405,3.6405,3.6405,3.6405,3.6543,3.76,3.8002,3.8165,0.0,0.0,0.9453,0.9483,0.9669,0.9839,0.9839,0.9839,0.9843,0.0,0.0,0.0,1.0319,1.1631,1.2432,1.2355,1.1527,1.0687,0.9943,0.9855,0.9511,0.8797,0.9519,0.9922,0.9893,1.0119,0.9968,0.9441,0.9968,1.0299,1.0424,1.1568,1.2268,1.2556,1.2716,1.227,1.1357,1.0165,1.0762,1.2581,1.3769,0.0,0.0,1.7379,1.7768,0.0,0.0,0.0,1.3966,1.451,1.2295,0.0,0.0,0.6868,0.6075,0.5484,0.5732,0.6068,0.5454,0.5739,0.631,0.6798,0.0,0.0,1.0843,1.1552,1.2117,0.0,1.3525,1.3271,1.4375,1.4914,1.5517,1.6463,1.7389,1.8008,1.8008,1.8008,1.8164,1.8549,1.9023,1.9805,2.1073,2.1631,2.2236,2.3033,2.3091,2.3091,2.3091,2.3379,2.3603,2.3779,2.4443,2.4883,2.5116,2.6016,2.6849,2.7589,2.7352,2.7352,2.7647,2.8468,2.961,3.1078,3.2688,3.4516,3.6405,3.6405,3.6405,3.6405,3.6405,3.6405,3.6543,3.76,3.8002,3.8165,0.0,0.0,0.9614,0.9718,1.0081,1.04,1.0508,1.0528,1.041,0.0,1.0059,1.0449,1.1386,1.3014,1.354,1.2271,1.0988,1.0199,1.0005,0.9707,0.9221,0.851,0.9615,1.021,1.0094,1.0557,1.0456,0.9767,1.0339,1.0363,0.9898,1.1002,1.1081,1.0295,0.9867,0.9288,0.863,0.7995,0.9143,1.1631,1.4007,1.4628,0.0,0.0,1.8267,1.6727,1.8982,1.7616,1.4873,1.5962,1.359,0.0,0.0,0.0,0.0,0.5702,0.5974,0.635,0.5708,0.5914,0.6478,0.7243,0.6607,0.0,1.0847,1.1009,1.0839,0.0,1.312,1.3149,1.3225,1.4077,1.5007,1.5856,1.696,1.7774,1.7954,1.8008,1.8144,1.849,1.8994,1.9766,2.0927,2.1572,2.2217,2.2964,2.3062,2.3091,2.3091,2.3091,2.3276,2.3711,2.417,2.4646,2.5216,2.682,2.772,2.7992,2.8947,2.8819,2.7814,2.8773,2.9758,3.0826,3.2136,3.4037,3.6168,3.6168,3.6263,3.6405,3.6405,3.6405,3.6543,3.76,3.8002,3.8165,1.0534,1.0332,1.0234,1.0526,1.0685,1.1025,1.1716,1.1966,1.2229,1.2675,1.3018,1.3887,1.5596,1.4575,1.4261,1.5441,1.3333,1.1544,1.0606,0.9692,0.9311,0.9579,0.9438,0.9957,1.1238,1.1362,1.0599,0.8936,0.9747,0.976,0.9043,0.9975,1.0201,0.982,0.9526,0.8835,0.7879,0.7378,0.8379,1.0467,1.2186,0.0,1.4501,1.6704,1.7923,1.8493,1.9006,1.814,1.6348,1.374,1.1964,1.0555,0.0,0.0,0.0,0.7134,0.7448,0.811,0.729,0.6968,0.6894,0.7046,0.676,0.0,0.7543,0.7731,0.8048,0.0,0.9439,0.966,1.0361,1.1248,1.1949,1.2126,1.4236,1.6351,1.7794,1.8008,1.8037,1.8125,1.8818,1.9521,2.0117,2.1211,2.21,2.2598,2.2906,2.3091,2.3091,2.3091,2.314,2.3218,2.3968,2.494,2.6038,2.7076,2.8598,3.0496,2.9772,2.9269,2.9039,2.8272,2.8455,2.9475,3.0778,3.267,3.4775,3.4775,3.5427,3.6405,3.6405,3.6405,3.6543,3.76,3.8002,3.8165,1.0572,1.0583,1.0734,1.1125,1.1753,1.25,1.3369,1.3576,1.3766,1.4106,1.4874,1.5493,1.5737,1.5064,1.4796,1.5254,1.3314,1.1787,1.1197,1.0106,0.9516,0.9543,0.9542,0.9956,1.0825,1.1109,1.0426,0.8747,0.9456,0.9207,0.8112,0.893,0.9779,1.0578,0.8721,0.8366,0.9032,0.7142,0.719,0.8715,1.1224,0.0,1.4793,1.7127,1.8395,1.8997,1.8997,1.7829,1.5887,1.3243,1.1752,0.0,0.9983,0.9579,0.9232,0.0,0.8223,0.8611,0.7732,0.7383,0.7315,0.7622,0.7141,0.0,0.0,0.7659,0.7746,0.8837,0.8911,0.8898,0.9192,1.0146,1.0844,1.0674,1.3261,1.5373,1.5638,1.7025,1.8052,1.8301,1.8666,1.9297,2.0156,2.0879,2.1582,2.2451,2.2857,2.3091,2.3091,2.3091,2.3091,2.3091,2.4576,2.5643,2.6307,2.8371,2.9988,3.1178,3.0586,3.0,2.9361,2.8132,2.813,2.9042,2.972,3.169,3.4385,3.4385,3.5174,3.631,3.5667,3.5415,3.5598,3.7343,3.8002,3.8165,1.0353,1.0626,1.1017,1.1411,1.2451,1.3545,1.4404,1.4641,1.4812,1.5069,1.604,1.637,1.5524,1.5781,1.5763,1.5171,1.3789,1.2753,1.2262,1.1289,1.058,1.0307,1.0299,1.0575,1.1171,1.103,1.0274,0.8885,0.922,0.8641,0.722,0.7987,0.9192,1.0591,0.821,0.8105,0.9587,0.7362,0.0,0.7859,0.0,1.2668,1.4145,1.7168,1.8419,1.8503,1.8691,1.7451,1.541,1.3532,1.2201,1.1303,1.0929,1.0327,0.0,0.0,0.0,0.0,0.0,0.0,0.0,0.0,0.0,0.7475,0.0,0.0,0.0,0.0,0.0,0.0,0.0,0.0,0.0,0.0,0.0,0.0,0.0,1.5127,0.0,1.7681,1.8325,1.9043,1.9793,1.994,2.0664,2.2383,2.2441,2.2574,2.3062,2.3091,2.3091,2.3091,2.4923,2.6038,2.6307,2.9351,3.0855,3.0855,3.1089,3.0451,2.9004,2.8134,2.8021,2.8616,2.8998,3.0993,3.397,3.3723,3.4569,3.5918,3.5126,3.4775,3.5041,3.7071,3.7914,3.8153,1.0353,1.0626,1.0909,1.0963,1.1736,1.2642,1.3516,1.4099,1.4878,1.6066,1.6518,1.7219,1.8606,1.8197,1.8075,1.8741,1.7971,1.6641,1.4645,1.3959,1.3815,1.4219,1.2427,1.2556,1.4995,1.2497,1.0517,0.9158,0.8798,0.7905,0.6531,0.7389,0.7667,0.7492,0.8883,0.8426,0.6708,0.0,0.9326,0.0,1.0496,1.0531,0.0,1.4497,1.627,1.6812,1.7645,1.7549,1.6685,0.0,1.2924,1.2315,0.0,1.0842,1.1236,0.9312,0.0,0.0,0.0,0.0,0.0,0.0,0.8884,0.8971,0.0,0.0,0.7792,0.7386,0.0,0.0,0.0,0.0,0.0,0.0,0.0,0.0,1.0132,1.1991,1.3622,1.4517,1.7353,1.8672,1.7272,1.7519,1.9072,2.2275,2.0781,2.0723,2.2974,2.3091,2.3091,2.3091,2.41,2.5164,2.6307,2.8507,2.959,2.9636,3.0676,3.0,2.7835,2.8046,2.7795,2.7327,2.895,3.0748,3.2443,3.1276,3.2292,3.4727,3.5763,3.6156,3.6231,3.7,3.7588,3.8103,1.0626,1.1018,1.1337,1.1265,1.2036,1.2933,1.3727,1.5147,1.6056,1.5846,1.6561,1.7419,1.8237,1.7271,1.7191,1.8682,0.0,1.6861,0.0,0.0,1.4244,1.3539,1.2321,1.221,1.3409,1.14,0.9829,0.8798,0.7774,0.6853,0.6066,0.6426,0.737,0.8792,0.9474,0.9735,0.9667,0.0,0.9669,0.0,0.0,0.0,0.0,1.4985,1.7282,1.8321,1.8711,1.8496,1.7753,0.0,1.4781,0.0,0.0,0.0,0.0,1.1547,0.0,0.0,0.0,0.0,0.0,0.0,0.0,0.0,0.7739,0.0,0.7306,0.0,0.0,0.0,0.0,0.0,0.0,0.0,0.7348,0.0,0.0,0.0,1.2632,0.0,0.0,0.0,1.6208,1.6947,0.0,2.1512,2.0234,2.041,2.2955,2.3091,2.3091,2.3091,2.4655,2.5778,2.6307,2.836,2.9407,2.9407,2.9223,2.8588,2.76,2.727,2.7093,2.7041,2.8061,2.9949,3.218,3.0865,3.2381,3.5463,3.4399,3.4508,3.5284,3.5856,3.685,3.809,1.0775,1.1145,1.1387,1.1207,1.1995,1.2855,1.3478,1.5059,1.5928,1.5322,1.6182,1.7086,1.7661,1.701,0.0,0.0,1.8365,1.7686,0.0,0.0,1.5311,1.4991,1.3132,1.2627,1.3751,1.1227,0.9605,0.9024,0.7371,0.6473,0.6294,0.6201,0.7306,0.9385,0.9956,1.062,1.1292,0.0,1.0917,1.0038,1.1576,1.2592,1.355,1.6501,1.8634,2.0029,1.9952,1.9576,1.8912,1.7342,1.6677,0.0,1.6246,0.0,1.3671,0.0,0.0,0.0,1.0702,0.0,0.0,0.0,0.0,0.0,0.0,0.0,0.0,0.0,0.0,0.0,0.0,0.0,0.0,0.0,0.0,0.7069,0.0,0.8616,0.0,0.0,0.0,0.0,0.0,0.0,0.0,0.0,0.0,1.9498,2.276,2.3033,2.3091,2.3091,2.4757,2.5654,2.5778,2.7739,2.8585,2.8402,2.7861,2.741,2.7051,2.6735,2.6728,2.7041,2.7598,2.957,3.218,3.0473,3.218,3.5559,3.2431,3.2292,3.393,3.4883,3.6169,3.7605,1.0675,1.0762,1.0731,1.04,1.1128,1.1861,1.2204,1.2705,1.3482,0.0,0.0,0.0,0.0,0.0,0.0,0.0,0.0,2.0563,1.9349,0.0,1.8156,2.1074,1.6028,1.4919,1.8683,1.3262,1.0363,1.0341,0.8076,0.7174,0.7545,0.7213,0.7215,0.7597,1.0325,1.0569,0.9152,1.2946,1.4244,1.381,1.4996,1.7014,1.9239,0.0,1.9634,2.1095,2.0802,0.0,0.0,1.8709,1.8146,0.0,0.0,0.0,0.0,0.0,0.0,0.0,0.0,0.0,0.0,0.9392,0.0,0.0,0.0,0.0,0.8188,0.0,0.0,0.0,0.0,0.0,0.0,0.0,0.0,0.0,0.0,0.0,0.0,0.0,0.0,0.0,0.0,0.0,0.0,0.0,0.0,0.0,2.2243,2.2877,2.3091,2.3091,2.3619,2.4049,2.446,2.6126,2.6598,2.583,2.703,2.6935,2.581,2.6611,2.7002,2.706,2.79,2.9797,3.2079,2.946,3.0783,3.408,3.0026,3.0068,3.26,3.451,3.5556,3.6336,1.0781,1.134,1.1737,1.1303,1.1525,1.1859,1.2164,1.2808,0.0,0.0,0.0,0.0,0.0,1.8022,1.8545,0.0,0.0,1.9661,1.898,1.8344,0.0,0.0,0.0,1.5999,0.0,1.3865,1.168,1.0928,0.8959,0.8061,0.8194,0.8037,0.7755,0.7521,1.0446,1.1464,0.0,0.0,0.0,0.0,0.0,1.5915,1.8168,0.0,2.0592,2.2035,2.1916,2.2054,0.0,2.0709,2.0235,2.0125,1.9901,1.8878,1.7834,1.776,1.6548,1.4908,0.0,0.0,1.2681,1.0742,0.0,0.0,0.0,0.0,0.0,0.0,0.0,0.0,0.0,0.0,0.0,0.0,0.0,0.0,0.0,0.0,0.0,0.0,0.0,0.0,0.0,0.0,0.0,0.0,0.0,0.0,2.1258,2.25,2.3091,2.3091,2.3564,2.3984,2.4414,2.5255,2.5702,2.5693,2.6159,2.611,2.5713,2.6621,2.7012,2.7112,2.8865,3.0618,3.223,3.1327,3.2292,3.4178,3.1836,3.0979,3.1227,3.3158,3.4785,3.618,1.1648,1.1982,1.2307,1.2,1.2324,1.269,1.2861,0.0,0.0,0.0,1.6108,0.0,1.8308,0.0,1.8241,0.0,1.9524,1.9121,1.8693,1.85,0.0,1.9442,1.8005,0.0,0.0,1.5606,1.3729,1.2805,1.0539,0.9408,0.9347,0.8991,0.8595,0.8253,1.051,1.1864,1.2582,1.4418,1.5368,0.0,0.0,1.679,0.0,0.0,2.0531,2.1629,0.0,2.2867,2.3003,2.2217,2.1916,2.1884,2.192,2.0992,1.9801,1.9437,1.8037,1.6339,1.5271,1.4454,0.0,1.298,1.1977,0.0,0.9498,0.0,0.9359,0.0,0.0,0.0,0.0,0.0,0.0,0.0,0.0,0.0,0.0,0.5558,0.0,0.0,0.0,0.0,0.0,0.0,0.0,0.0,0.0,0.0,0.0,2.1733,2.2567,2.3091,2.3408,2.3838,2.4414,2.4697,2.5137,2.5693,2.5693,2.5693,2.5771,2.7103,2.7693,2.7834,3.0072,3.1785,3.3005,3.2493,3.2844,3.3563,3.2632,3.1173,2.9931,3.3041,3.549,3.7309,1.3078,1.272,1.2463,1.2438,1.3313,0.0,0.0,0.0,1.5947,0.0,1.6628,1.7372,1.9137,1.858,1.8566,1.9833,1.956,1.9113,1.8697,1.8368,0.0,0.0,1.9574,1.9549,2.1662,0.0,0.0,0.0,1.2689,1.1119,1.0958,1.0057,0.9592,0.9553,1.053,0.0,1.3253,1.5248,1.7479,1.9619,1.8976,1.9465,2.0507,1.9844,1.9704,2.0136,2.2323,2.3091,2.3091,2.3091,2.3091,2.3091,2.3091,2.3091,2.2862,2.1658,2.044,1.931,1.8498,1.6443,1.4817,1.5769,1.4183,0.0,0.0,0.0,1.0909,0.0,0.0,0.0,0.0,0.0,0.0,0.0,0.0,0.0,0.0,0.0,0.0,0.0,0.0,0.0,0.0,0.0,0.0,0.0,0.0,0.0,0.0,0.0,2.137,2.2853,2.2906,2.3322,2.421,2.4275,2.4769,2.5586,2.5684,2.5693,2.5762,2.7906,2.8943,2.9144,3.1367,3.3105,3.4288,3.3044,3.2431,3.2292,3.2381,3.0897,2.9273,3.4125,3.7526,3.953,1.2708,1.3158,1.3514,0.0,1.2942,1.3416,0.0,0.0,0.0,0.0,1.704,1.7523,1.9676,1.9349,1.9387,2.0495,1.9777,0.0,0.0,0.0,0.0,2.1769,2.1198,2.1124,2.1686,1.9489,0.0,1.6948,0.0,1.2208,1.2129,1.0772,0.9896,0.9543,1.0342,1.2187,1.4771,1.5821,1.787,2.0256,1.8374,1.8205,1.9272,0.0,2.0612,2.0513,2.2428,2.3091,2.3091,2.3091,2.3091,2.3091,2.3091,2.3091,2.2862,2.1658,2.044,1.943,1.9239,1.7379,1.5595,1.6088,1.4721,1.3077,0.0,0.0,0.0,0.0,0.0,0.0,0.0,0.0,0.0,0.0,0.0,0.0,0.0,0.0,0.0,0.6754,0.0,0.0,0.0,0.0,0.0,0.0,0.0,0.0,0.0,0.0,0.0,2.0344,2.0404,2.0813,2.1566,2.2548,2.3443,2.4245,2.5226,2.5693,2.5713,2.6962,2.8076,2.9144,3.1367,3.3105,3.4434,3.5102,3.4142,3.2381,3.3464,3.3916,3.4074,3.4377,3.6729,3.9645,1.3509,1.4549,1.5198,1.4136,0.0,0.0,1.6254,1.5416,0.0,1.7824,1.8058,0.0,1.9332,1.9754,2.016,2.0684,2.0018,0.0,1.9329,0.0,0.0,2.0812,2.1482,2.2026,2.2476,2.1206,0.0,1.8129,0.0,1.3313,1.188,1.0809,1.0137,0.9872,1.0674,1.2316,1.4658,1.6911,1.8638,1.9784,1.9228,1.9418,0.0,2.1221,2.1702,2.2053,2.3225,2.3574,2.3428,2.3428,2.35,2.3656,2.3656,2.3656,2.3413,2.2199,2.1412,2.072,2.0154,1.8563,1.7215,1.7941,1.6439,1.4646,1.4158,1.3684,1.3192,0.0,1.2478,1.2563,0.0,0.0,0.0,0.0,0.0,0.0,0.0,0.0,0.0,0.0,0.0,0.0,0.0,0.0,0.0,0.0,0.0,0.0,0.0,0.0,0.0,1.9422,1.9228,1.9613,2.0609,2.1067,2.2129,2.3692,2.4461,2.5128,2.5762,2.7817,2.9141,3.0008,3.2843,3.4545,3.5319,3.6108,3.48,3.2303,3.2068,3.3364,3.5114,3.3792,3.6016,3.9697,1.4664,1.6053,0.0,0.0,0.0,0.0,0.0,1.7557,0.0,1.8914,0.0,1.9746,1.9222,2.0141,2.0791,2.078,0.0,1.9738,1.8987,2.0078,2.0477,1.9871,2.1459,2.2886,2.3889,2.313,2.1599,0.0,0.0,1.4172,1.1019,1.0525,1.0273,1.0254,1.1115,0.0,0.0,1.806,1.9493,1.9372,2.0743,2.169,2.2254,2.2254,2.2939,2.3916,2.4287,2.415,2.3799,2.3857,2.4111,2.4414,2.4414,2.4414,2.4173,2.313,2.2699,2.2369,2.1384,1.9902,1.8984,2.0136,1.8383,1.6341,1.633,1.5303,1.4242,1.3939,1.328,1.3427,0.0,0.0,0.0,0.0,0.0,0.0,0.0,0.0,0.0,0.0,0.0,0.0,0.0,0.0,0.0,0.0,0.0,0.0,0.0,0.0,0.0,1.8913,1.8528,1.8847,1.9942,1.9764,2.0788,2.3035,2.3489,2.4304,2.5557,2.9134,3.0826,3.1171,3.464,3.6263,3.6405,3.6405,3.4836,3.2172,3.0084,3.1293,3.4052,3.309,3.5611,3.9413,1.4288,1.5527,0.0,0.0,0.0,1.8681,1.9284,1.9885,2.0677,2.1835,2.1452,2.1371,2.2073,2.1219,2.0923,2.1684,2.1268,0.0,0.0,0.0,0.0,2.2714,2.3872,2.4955,2.6016,2.4543,2.2682,0.0,0.0,1.3837,1.1161,1.0563,1.0088,0.9767,1.0635,0.0,1.6782,1.7926,0.0,2.2265,2.1592,2.2184,2.3464,2.3464,2.3813,2.4316,2.4385,2.415,2.3838,2.4189,2.4355,2.4414,2.4414,2.4414,2.4368,2.4137,2.3364,2.2746,2.3551,2.1289,1.8984,2.0232,1.8596,1.6623,1.6653,1.6048,1.5511,1.5411,1.513,1.462,1.392,0.0,0.0,0.0,0.0,0.0,0.0,0.0,0.0,0.0,0.0,0.0,0.0,0.0,0.0,0.0,0.0,0.0,0.0,0.0,0.0,0.0,1.6612,0.0,0.0,0.0,1.9402,1.9603,2.2374,2.384,2.4174,2.7707,2.9954,3.1123,3.3668,3.5379,3.6405,3.6405,3.5004,3.2786,3.171,3.1902,3.2914,3.4296,3.6082,3.7914,1.5463,0.0,1.7647,0.0,0.0,0.0,0.0,2.2842,2.3526,2.257,2.2166,2.1918,2.1832,2.1736,2.1744,2.1947,2.1718,2.1572,2.1572,2.2301,2.296,2.3503,2.4524,2.5574,2.6602,2.5789,2.3568,1.996,0.0,1.486,1.036,1.0073,0.9815,0.968,0.0,1.3994,0.0,0.0,0.0,2.2142,2.2473,2.3207,2.4141,2.4365,2.458,2.4785,2.5019,2.4824,2.4482,2.4687,2.4912,2.505,2.505,2.505,2.505,2.505,2.466,2.4019,2.3211,2.1673,2.0045,1.925,1.7986,1.6934,1.6934,1.66,1.6199,1.5844,1.5838,1.5357,1.3693,1.2301,0.0,0.0,0.0,0.0,0.0,0.0,0.0,0.0,0.0,0.0,0.0,0.0,0.0,0.0,0.0,0.0,0.0,0.0,0.0,0.0,0.0,0.0,1.6506,0.0,1.8174,1.9207,2.1536,2.3026,2.3818,2.7371,2.972,3.1123,3.3426,3.5174,3.6335,3.515,3.373,3.219,3.1333,3.1258,3.1741,3.2685,3.3968,3.5431,1.6626,1.8177,0.0,0.0,2.1716,0.0,2.3609,2.5448,2.594,2.3455,2.2971,2.2503,2.1611,2.2147,2.2351,2.1938,2.1963,2.2021,2.2021,2.3115,2.3868,2.4111,2.5228,2.6294,2.7264,2.705,2.4661,0.0,0.0,0.0,1.0293,0.9923,1.0001,0.0,0.0,0.0,0.0,0.0,2.0947,2.1853,2.3242,2.4102,2.459,2.4941,2.5127,2.5254,2.5605,2.5508,2.5215,2.5215,2.5449,2.5693,2.5693,2.5693,2.5693,2.5693,2.5693,2.5226,2.3126,2.2156,2.1194,1.9013,1.7863,1.7293,1.7293,1.7065,1.6667,1.6206,1.6199,1.5732,1.3926,1.29,0.0,0.0,0.0,0.0,0.0,0.0,0.0,0.0,0.0,0.0,0.0,0.0,0.0,0.0,0.0,0.0,1.2559,0.0,0.0,0.0,0.0,1.5591,1.6449,0.0,1.7374,1.9023,2.0817,2.2257,2.3402,2.7261,2.9573,3.0689,3.2964,3.4628,3.5502,3.3424,3.222,3.1652,3.0605,3.0478,3.0889,3.0889,3.1815,3.3462,0.0,0.0,0.0,0.0,0.0,0.0,2.5285,2.6841,2.7519,2.6267,2.4896,2.4007,2.3902,2.2749,2.196,2.1885,2.2236,2.2451,2.2451,2.3873,2.5124,2.6173,2.7261,2.8373,2.9462,2.8491,2.6285,0.0,0.0,1.6462,0.0,1.0957,1.127,0.0,0.0,0.0,0.0,1.9844,2.1357,2.3564,2.3721,2.4277,2.5057,2.5096,2.5322,2.5635,2.5674,2.5664,2.5625,2.5625,2.5654,2.5693,2.5693,2.5693,2.5693,2.5693,2.5693,2.5635,2.5382,2.3534,2.1651,2.1397,1.9443,1.7542,1.7542,1.7373,1.7146,1.7085,1.6677,1.5732,1.3926,1.4572,1.4499,0.0,0.0,0.0,0.0,0.0,1.2225,0.0,0.0,0.0,0.0,0.0,0.0,0.0,0.9299,0.0,0.0,0.0,0.0,1.3786,1.4306,1.4402,1.3933,1.6293,1.7286,1.6988,2.0183,2.1752,2.2072,2.6834,2.9091,2.9292,3.1517,3.2791,3.322,3.177,3.1578,3.2034,3.0724,3.0478,3.0889,3.0889,3.1815,3.335,0.0,0.0,0.0,0.0,0.0,0.0,0.0,2.767,2.7946,2.7507,2.5838,2.4775,2.5027,2.3381,2.2363,2.2617,2.275,2.2847,2.2847,2.4703,2.6016,2.6472,2.8159,2.9326,2.9792,2.8676,2.6494,0.0,0.0,0.0,0.0,1.2549,1.3232,0.0,0.0,1.8301,2.0019,2.1582,2.2842,2.3838,2.4346,2.4812,2.5145,2.5371,2.5586,2.5693,2.5693,2.5693,2.5693,2.5693,2.5693,2.5693,2.5693,2.5693,2.5693,2.5693,2.5693,2.5528,2.4716,2.3126,2.1499,2.0641,1.9013,1.7582,1.7582,1.7548,1.7414,1.7239,1.673,1.6005,1.5072,1.4672,1.4379,1.4073,0.0,0.0,0.0,0.0,0.0,0.0,0.0,0.0,0.0,0.0,0.0,0.0,0.0,0.0,0.0,0.0,0.0,1.2011,0.0,1.5186,1.3902,1.6371,1.7873,1.8491,2.0659,2.2106,2.2994,2.6292,2.8512,2.9884,3.1559,3.2112,3.1761,3.1465,3.1206,3.098,3.0728,3.0723,3.0889,3.0889,3.1276,3.1988,2.3016,0.0,2.6427,0.0,2.6863,2.6581,2.8335,2.8599,2.8599,2.8599,2.704,2.5972,2.6086,2.4644,2.3681,2.3607,2.3887,2.3973,2.3637,2.5714,2.6964,2.6964,2.8791,0.0,2.9792,2.8676,2.6792,2.4158,2.1199,0.0,1.5381,1.5087,1.5768,0.0,1.9451,2.0639,2.1172,2.3008,2.3935,2.4219,2.4871,2.5194,2.5293,2.5567,2.5693,2.5693,2.5693,2.5693,2.5693,2.5693,2.5693,2.5693,2.5693,2.5693,2.5693,2.5693,2.5693,2.5479,2.4559,2.3335,2.1954,2.0538,1.9213,1.8094,1.7687,1.7582,1.7652,1.776,1.7334,1.6884,1.6573,1.5876,1.5405,1.5656,0.0,0.0,0.0,1.5867,0.0,0.0,1.4396,1.3794,1.3613,1.1463,0.0,0.0,0.0,0.0,0.0,0.0,0.0,0.0,0.0,0.0,1.4238,1.6454,1.8251,1.9627,2.1041,2.2467,2.3931,2.6177,2.8097,2.9755,3.0721,3.0915,3.0617,3.0871,3.0761,3.043,3.0762,3.0889,3.0889,3.0889,3.0889,3.1112,2.3107,2.5512,2.7814,2.8545,2.8785,2.9076,2.9679,2.9779,2.9779,2.9779,2.8794,2.787,2.7331,2.6777,2.6005,2.4872,2.5808,2.5975,2.483,2.6849,2.8084,0.0,0.0,2.9792,2.9792,2.8676,2.755,2.6468,0.0,0.0,1.9785,1.8812,1.887,1.9901,2.1062,2.2396,2.374,2.3779,2.4277,2.5096,2.5106,2.5332,2.5684,2.5693,2.5693,2.5693,2.5693,2.5693,2.5693,2.5693,2.5693,2.5693,2.5693,2.5693,2.5693,2.5693,2.5693,2.5693,2.5684,2.4716,2.3335,2.2005,2.0641,1.922,1.7891,1.7582,1.7907,1.8963,1.8781,1.8453,1.827,1.8885,1.8576,1.595,0.0,0.0,0.0,1.5959,0.0,1.3858,1.1568,1.1056,1.338,1.0689,0.0,0.0,0.0,0.0,0.0,0.0,0.0,1.3533,1.4179,0.0,1.4486,1.656,1.8251,1.9627,2.1041,2.2604,2.4389,2.6659,2.7943,2.8344,2.8344,2.8824,2.9616,2.9626,3.0145,3.0889,3.0889,3.0889,3.0889,3.0889,3.0889,3.1112,2.6352,2.7484,2.8464,2.8773,2.9214,2.9578,2.9767,2.9792,2.9792,2.9792,2.9482,2.9174,2.9001,2.7492,2.6348,0.0,2.6307,2.6348,0.0,2.7319,2.8096,2.8096,2.9197,2.9792,2.9792,2.7959,2.6842,2.6524,0.0,0.0,0.0,2.0195,2.0667,2.2129,2.2792,2.3355,2.3828,2.4414,2.4861,2.5145,2.54,2.5605,2.5693,2.5693,2.5693,2.5693,2.5693,2.5693,2.5693,2.5693,2.5693,2.5693,2.5693,2.5693,2.5693,2.5693,2.5693,2.5693,2.5693,2.4716,2.3384,2.2055,2.0641,1.9272,1.7891,1.7582,1.7907,1.8963,1.883,1.8698,1.9391,1.9505,1.9216,1.8378,1.8938,0.0,1.7242,0.0,1.6731,1.5287,1.519,1.5565,0.0,1.4372,0.0,0.0,0.0,0.0,0.0,0.0,0.0,0.0,1.4535,0.0,1.4225,1.6447,1.8753,2.1041,2.1761,2.3712,2.6607,2.6268,2.6943,2.831,2.8594,2.9043,2.959,2.9883,3.0351,3.0889,3.0889,3.0889,3.0889,3.0889,3.0889,3.0947,2.7895,2.8284,2.8545,2.885,2.9402,2.9792,2.9792,2.9792,2.9792,2.9792,2.9792,2.9792,2.9792,2.8593,0.0,2.7128,2.7504,2.7545,2.7128,2.8108,2.8727,2.8727,2.9417,2.9792,2.9792,2.7637,0.0,2.6752,2.3811,2.2389,2.2422,2.2418,2.2844,2.3623,2.4167,2.4361,2.4307,2.4891,2.5213,2.5342,2.5577,2.5693,2.5693,2.5693,2.5693,2.5693,2.5693,2.5693,2.5693,2.5693,2.5693,2.5693,2.5693,2.5693,2.5693,2.5693,2.5693,2.5693,2.5693,2.5079,2.3998,2.2156,2.1041,1.9878,1.8048,1.7582,1.8091,1.9765,1.9651,1.9596,2.0793,2.0942,2.0719,2.026,2.0584,2.0268,1.8596,0.0,1.7537,0.0,0.0,0.0,0.0,1.6244,1.5732,0.0,0.0,0.0,0.0,0.0,0.0,1.2973,1.551,1.6365,1.5244,1.6815,1.8961,2.1702,2.274,2.4524,2.6831,2.605,2.6306,2.753,2.8503,2.917,2.96,3.0019,3.0469,3.0889,3.0889,3.0889,3.0869,3.0693,3.0635,3.0605,2.7885,2.8113,2.8298,0.0,2.944,0.0,2.9792,2.9792,2.9792,2.9792,2.9792,2.9792,2.9792,2.9792,2.939,2.8355,0.0,0.0,0.0,2.9258,2.988,2.9854,2.988,2.9905,2.9905,2.7824,2.6861,2.7088,2.5288,2.4434,2.4453,2.5074,2.4995,2.4441,2.5084,2.5289,2.5116,2.5145,2.5361,2.5693,2.5693,2.5693,2.5693,2.5693,2.5693,2.5693,2.5693,2.5693,2.5693,2.5693,2.5693,2.5693,2.5693,2.5693,2.5693,2.5693,2.5693,2.5693,2.5693,2.5693,2.5069,2.2366,2.155,2.0735,1.8192,1.7687,1.8499,2.1135,2.109,2.1035,2.2463,2.2955,2.2759,2.1623,2.2359,2.2271,1.9861,1.9497,1.8071,1.4198,0.0,0.0,1.5786,1.686,1.7639,0.0,0.0,0.0,0.0,0.0,1.3487,1.6295,1.6918,1.7213,1.7233,1.7501,1.8982,2.1632,2.3566,2.4765,2.5281,2.5648,2.5873,2.6182,2.8022,2.9079,2.96,3.0059,3.0498,3.0889,3.0889,3.0889,3.084,3.04,3.0225,3.0137,0.0,0.0,2.8411,2.9415,2.9704,2.9792,2.9792,2.9792,2.9792,2.9792,2.9792,2.9792,2.9792,2.9792,2.9877,2.9988,3.0248,3.0113,2.9429,3.0426,3.0834,3.0432,3.0796,3.1009,3.1009,2.9694,2.8357,2.6958,2.5239,2.459,2.4949,2.474,2.4536,2.4424,2.4927,2.5145,2.5135,2.5439,2.5596,2.5693,2.5693,2.5693,2.5693,2.5693,2.5693,2.5693,2.5693,2.5693,2.5693,2.5693,2.5693,2.5693,2.5693,2.5693,2.5693,2.5693,2.5693,2.5693,2.5693,2.5693,2.5069,2.2366,2.0128,1.8401,1.7733,1.8401,1.9627,2.1347,2.209,2.2709,2.3757,2.3803,2.3436,2.2779,2.2906,2.2271,1.9861,1.9497,1.843,1.562,1.7221,1.8543,1.8543,1.9634,1.9911,0.0,0.0,1.6978,1.605,1.5529,1.5804,1.6924,1.7125,1.7306,1.7475,1.7549,1.8738,2.0956,2.1332,2.2421,2.4132,2.3111,2.3925,2.6136,2.7251,2.8427,2.9685,3.041,3.0791,3.0889,3.0889,3.0889,3.0879,3.0771,3.0508,3.0185,2.7896,2.8109,2.8461,2.9591,2.9792,2.9792,2.9792,2.9792,2.9792,2.9792,3.0018,3.0168,3.0168,3.0382,3.0645,3.0947,3.0758,3.0583,3.052,3.0548,3.0445,3.0176,3.042,3.0306,2.9726,2.9187,2.7999,2.6072,2.535,2.5146,2.5361,2.4922,2.4824,2.5019,2.5059,2.5176,2.5391,2.5635,2.5693,2.5693,2.5693,2.5693,2.5693,2.5693,2.5693,2.5693,2.5693,2.5693,2.5693,2.5693,2.5693,2.5693,2.5693,2.5693,2.5693,2.5693,2.5693,2.5693,2.5693,2.5693,2.5226,2.3126,2.1041,1.9317,1.8655,1.9576,2.0794,2.155,2.2414,2.337,2.4512,2.4365,2.3745,2.2773,2.2608,2.1671,1.9072,1.868,1.8234,1.7089,1.8629,2.0079,2.0859,2.1826,2.1864,2.0536,1.9826,0.0,1.8081,1.8377,1.8115,1.7224,1.7333,1.7474,1.7582,1.8199,1.9233,2.0715,2.0552,2.1336,2.2758,2.1975,2.287,2.5139,2.6659,2.8173,2.9695,3.0527,3.0889,3.0889,3.0889,3.0889,3.084,3.0439,3.0127,2.9853,2.7896,2.8158,2.8523,2.9603,2.9792,2.9792,2.9792,2.9867,2.9917,2.9917,3.0394,3.0733,3.0733,3.1122,3.1424,3.1499,3.111,3.1009,3.1361,3.0589,3.0079,2.9995,2.9898,2.9324,2.8261,2.7965,2.707,2.5488,2.5643,2.5693,2.5684,2.5352,2.5371,2.5674,2.5342,2.5381,2.5693,2.5693,2.5693,2.5693,2.5693,2.5693,2.5693,2.5693,2.5693,2.5693,2.5693,2.5693,2.5693,2.5693,2.5693,2.5693,2.5693,2.5693,2.5693,2.5693,2.5693,2.5693,2.5693,2.5538,2.5118,2.3989,2.2667,2.1397,2.0187,2.0998,2.2005,2.2005,2.2763,2.3758,2.4879,2.4766,2.389,2.2052,2.1916,2.1,1.7942,1.7863,1.8167,1.8351,1.9597,2.1032,2.2474,2.3387,2.347,2.2437,2.2346,2.1944,2.1021,2.1283,2.0387,1.7965,1.7911,1.7786,1.7582,1.8708,1.9648,2.0342,2.0233,2.0571,2.1252,2.1252,2.2202,2.3919,2.6036,2.7994,2.9695,3.0527,3.0889,3.0889,3.0889,3.0889,3.0791,2.9971,2.9629,2.9453,2.7873,2.8369,2.8847,2.9654,2.9792,2.9792,2.9792,3.0181,3.0482,3.0482,3.0947,3.1273,3.1273,3.1336,3.1574,3.2051,3.2014,3.18,3.1411,3.2109,3.2324,3.1838,3.1226,3.0841,3.0652,2.8681,2.7494,2.7201,2.6215,2.5693,2.5693,2.5615,2.5625,2.5684,2.5615,2.5625,2.5693,2.5693,2.5693,2.5693,2.5693,2.5693,2.5693,2.5693,2.5693,2.5693,2.5693,2.5693,2.5693,2.5693,2.5693,2.5693,2.5693,2.5693,2.5693,2.5693,2.5693,2.5693,2.5693,2.4864,2.3939,2.3741,2.2667,2.1651,2.1448,2.2416,2.3384,2.3384,2.4405,2.5218,2.5137,2.5057,2.399,2.0974,2.1498,2.0971,1.7088,1.8617,1.9758,1.8761,2.0735,2.2297,2.2557,2.3643,2.4224,2.4031,2.4031,2.3636,2.2681,2.2713,2.2195,2.1054,1.9907,1.876,1.7635,1.7786,1.8197,1.8864,1.8809,1.9122,1.9758,1.9758,2.1209,2.3863,2.4991,2.6998,2.9695,3.0527,3.0889,3.0889,3.0889,3.0889,3.083,3.0293,2.9873,2.9502,2.693,2.804,2.8837,2.9239,2.9578,2.9892,3.0193,3.0457,3.0721,3.0997,3.1499,3.1838,3.1838,3.2114,3.2403,3.2654,3.2679,3.2566,3.2315,3.2185,3.1942,3.1674,3.1368,3.1223,3.1223,2.8819,2.7589,2.7589,2.6342,2.5693,2.5693,2.5693,2.5693,2.5693,2.5693,2.5693,2.5693,2.5693,2.5693,2.5693,2.5693,2.583,2.6064,2.5781,2.584,2.6055,2.5771,2.5693,2.5693,2.5693,2.5693,2.5693,2.5693,2.5693,2.5693,2.5693,2.5693,2.5693,2.5693,2.5274,2.4766,2.4766,2.4304,2.3692,2.2918,2.3791,2.4559,2.384,2.4766,2.5625,2.5469,2.543,2.4658,2.2269,2.1793,2.0791,1.801,1.8727,1.9673,2.001,2.1798,2.3308,2.4172,2.4572,2.4766,2.4766,2.4766,2.4609,2.4164,2.4351,2.4256,2.389,2.11,1.8968,1.7635,1.7582,1.7889,1.849,1.849,1.8798,1.9424,2.0199,2.1764,2.3863,2.5572,2.753,2.9695,3.0527,3.0889,3.0889,3.0889,3.0889,3.081,3.0117,2.9736,2.9473,2.491,2.697,2.8687,2.9063,2.9478,2.998,3.0532,3.0721,3.0984,3.1512,3.2064,3.2416,3.2416,3.2805,3.3124,3.3124,3.3124,3.3124,3.3124,3.2196,3.1633,3.1633,3.1356,3.1078,3.0765,2.868,2.7589,2.7589,2.6342,2.5693,2.5693,2.5693,2.5693,2.5693,2.5693,2.5693,2.5693,2.5693,2.5693,2.5693,2.5801,2.6025,2.6211,2.5977,2.6035,2.6191,2.581,2.5693,2.5693,2.5693,2.5693,2.5693,2.5693,2.5693,2.5693,2.5693,2.5693,2.5693,2.5693,2.5693,2.5693,2.5693,2.5693,2.543,2.4402,2.4971,2.543,2.4353,2.4971,2.5586,2.5274,2.5479,2.4967,2.2777,2.2047,2.0991,1.8733,1.9262,2.0245,2.1197,2.2832,2.432,2.5557,2.543,2.5225,2.5225,2.5225,2.5225,2.5225,2.5547,2.5586,2.5226,2.1912,1.9265,1.7635,1.7655,1.8117,1.9023,1.9167,1.9696,2.0429,2.1725,2.3006,2.4475,2.6432,2.8173,2.9695,3.0527,3.0889,3.0889,3.0889,3.083,3.0635,2.9853,2.9502,2.9362,2.1329,2.485,2.85,2.9542,2.9757,2.998,3.0532,3.1022,3.1524,3.2077,3.2654,3.3018,3.3018,3.3056,3.3124,3.3124,3.3124,3.3124,3.3124,3.3025,3.2939,3.2939,3.1821,3.0676,2.9544,2.8272,2.7589,2.7589,2.6342,2.5693,2.5693,2.5693,2.5693,2.5693,2.5693,2.5693,2.5693,2.5693,2.5693,2.5723,2.6172,2.6113,2.5781,2.6201,2.6113,2.5732,2.5703,2.5693,2.5693,2.5693,2.5693,2.5693,2.5693,2.5693,2.5693,2.5693,2.5693,2.5693,2.5693,2.5693,2.5693,2.5693,2.5693,2.5684,2.5586,2.5635,2.5684,2.5586,2.5635,2.5323,2.4097,2.4864,2.4374,2.0435,2.1872,2.2108,1.8056,2.0864,2.2898,2.1803,2.3952,2.5548,2.5684,2.5664,2.5635,2.5635,2.5635,2.5635,2.5635,2.5674,2.5128,2.3899,2.2366,2.0282,1.7635,1.7869,1.8848,2.056,2.1219,2.2204,2.3503,2.4064,2.4875,2.5972,2.6893,2.8173,2.9695,3.0527,3.0889,3.0889,3.0889,3.0625,3.0195,2.9736,2.9316,2.906,2.5667,2.7258,2.8465,2.9604,3.007,3.0595,3.1474,3.1775,3.2102,3.2667,3.2943,3.3124,3.3124,3.3124,3.3124,3.3124,3.3124,3.3124,3.3124,3.3124,3.3124,3.3124,3.2655,3.2152,3.1689,2.9727,2.8727,2.8727,2.6706,2.5693,2.5693,2.5693,2.5693,2.5703,2.6016,2.5986,2.5703,2.6025,2.5986,2.5723,2.6211,2.6289,2.6162,2.6328,2.6289,2.6103,2.5781,2.5693,2.5693,2.5693,2.5693,2.5693,2.5693,2.5693,2.5693,2.5693,2.5693,2.5693,2.5693,2.5693,2.5693,2.5693,2.5693,2.5693,2.5693,2.5693,2.5693,2.5693,2.5693,2.5538,2.502,2.5382,2.517,2.3617,2.2846,2.2168,2.1411,2.1963,2.2567,2.2918,2.4559,2.5693,2.5693,2.5693,2.5693,2.5693,2.5693,2.5693,2.5693,2.5693,2.5079,2.3741,2.2545,2.1075,1.9158,2.0423,2.1017,2.0961,2.2206,2.3286,2.4273,2.5087,2.6007,2.6915,2.8202,2.9191,3.001,3.0635,3.0889,3.0889,3.0889,3.0605,3.0146,2.9726,2.9884,3.0222,2.688,2.821,2.887,2.9669,3.0369,3.1128,3.1997,3.2148,3.2361,3.3006,3.3124,3.3124,3.3124,3.3124,3.3124,3.3124,3.3124,3.3124,3.3124,3.3124,3.3124,3.3124,3.3124,3.3124,3.3124,3.1045,2.9772,2.9407,2.744,2.6239,2.5693,2.5966,2.6015,2.5967,2.6396,2.6416,2.6103,2.6455,2.6406,2.6132,2.6611,2.6709,2.6592,2.6592,2.6504,2.6328,2.5889,2.5693,2.5693,2.5693,2.5693,2.5693,2.5693,2.5693,2.5693,2.5693,2.5693,2.5693,2.5693,2.5693,2.5693,2.5693,2.5693,2.5693,2.5693,2.5693,2.5693,2.5693,2.5693,2.5586,2.5177,2.543,2.5586,2.5118,2.389,2.3126,2.3633,2.3276,2.3126,2.3642,2.4864,2.5693,2.5693,2.5693,2.5693,2.5693,2.5693,2.5693,2.5693,2.5693,2.5342,2.4588,2.3485,2.2592,2.1748,2.1672,2.169,2.186,2.3244,2.4552,2.5728,2.6846,2.7568,2.7874,2.9236,2.9932,3.0234,3.0703,3.0889,3.0879,3.0732,3.04,2.9951,2.9521,2.9981,3.08,2.3185,2.6777,2.9831,2.9779,3.0698,3.1546,3.193,3.2014,3.2281,3.2993,3.3081,3.3081,3.3081,3.3081,3.3081,3.3081,3.3068,3.3124,3.3124,3.3124,3.3124,3.3124,3.3124,3.3124,3.3124,3.1865,3.0631,2.9407,2.8593,2.7327,2.5713,2.6621,2.6797,2.6406,2.6836,2.7021,2.7012,2.7021,2.7021,2.7051,2.749,2.7402,2.7012,2.7012,2.6758,2.6328,2.5889,2.5693,2.5693,2.5693,2.5693,2.5693,2.5693,2.5693,2.5693,2.5693,2.5693,2.5693,2.5693,2.5693,2.5693,2.5693,2.5693,2.5693,2.5693,2.5693,2.5693,2.5693,2.5693,2.5274,2.3939,2.4815,2.5274,2.3949,2.4815,2.5226,2.389,2.4864,2.5177,2.384,2.4864,2.5684,2.5684,2.5684,2.5693,2.5693,2.5693,2.5693,2.5693,2.5693,2.5937,2.6377,2.5363,2.5001,2.5388,2.1107,2.046,2.3419,2.4554,2.624,2.835,2.9609,2.9726,2.8984,2.9834,3.0195,3.0234,3.0703,3.0889,3.084,3.0381,2.9941,2.9567,2.9082,2.9527,3.0525,2.919,3.1206,3.1643,3.0082,3.0922,3.2025,3.2654,3.2749,3.2855,3.3056,3.2326,3.1777,3.1777,3.1777,3.1777,3.1777,3.2556,3.3124,3.3124,3.3124,3.3124,3.3124,3.3124,3.3124,3.3124,3.1865,3.0761,2.9818,2.8753,2.7643,2.6641,2.6894,2.6943,2.6846,2.7275,2.7305,2.7031,2.7344,2.7295,2.7051,2.749,2.7226,2.6602,2.6904,2.6562,2.5869,2.5732,2.5693,2.5693,2.5693,2.5693,2.5693,2.5693,2.5693,2.5693,2.5693,2.5693,2.5693,2.5693,2.5693,2.5693,2.5693,2.5693,2.5693,2.5693,2.5693,2.5693,2.5693,2.5693,2.5586,2.5177,2.543,2.5586,2.5177,2.4658,2.451,2.502,2.4658,2.4146,2.3741,2.4048,2.4304,2.4304,2.4304,2.4716,2.5635,2.5693,2.5693,2.5693,2.6025,2.625,2.6387,2.5631,2.4792,2.3883,2.2823,2.2784,2.372,2.5112,2.6457,2.7642,2.8749,2.9668,3.0303,3.0225,3.0381,3.0635,2.9592,2.9646,3.0266,2.9008,2.8767,2.9092,2.8965,3.0093,3.1785,2.9242,3.173,3.2416,3.017,3.1274,3.251,3.2629,3.2918,3.3124,3.3124,3.2426,3.1965,3.1965,3.1965,3.1965,3.1965,3.2655,3.3124,3.3124,3.3124,3.3124,3.3124,3.3124,3.3124,3.3124,3.2339,3.1574,3.0835,3.0242,2.9489,2.8566,2.8928,2.9001,2.8906,2.9311,2.9065,2.8327,2.8599,2.8257,2.7549,2.7812,2.751,2.6904,2.6982,2.6592,2.6016,2.6354,2.611,2.5781,2.6294,2.611,2.5781,2.6294,2.6428,2.6572,2.702,2.6849,2.6428,2.6428,2.6062,2.5693,2.5693,2.5693,2.5693,2.5693,2.5693,2.5693,2.5693,2.5693,2.5693,2.5693,2.5693,2.5693,2.5693,2.502,2.4766,2.5586,2.502,2.4304,2.3741,2.3692,2.3692,2.3692,2.3692,2.4254,2.5586,2.5693,2.5693,2.5693,2.6152,2.6465,2.6631,2.5826,2.5362,2.5208,2.4268,2.3487,2.2934,2.4175,2.5552,2.7076,2.8173,2.9374,3.0615,3.0518,3.0229,2.9657,2.8673,2.8551,2.8927,2.7836,2.7996,2.8896,2.873,3.0192,3.228,2.5396,2.9679,3.2463,3.0435,3.1742,3.2882,3.221,3.2662,3.3124,3.3124,3.2982,3.2952,3.3002,3.3014,3.3027,3.3077,3.3138,3.3174,3.3124,3.3124,3.3124,3.3124,3.3124,3.3124,3.3124,3.3124,3.2778,3.2148,3.252,3.2171,3.1117,3.1916,3.2096,3.1753,3.214,3.1622,3.0463,3.0463,2.9765,2.8644,2.8644,2.8325,2.7757,2.7456,2.692,2.6468,2.7413,2.6935,2.6062,2.722,2.6849,2.6062,2.722,2.7683,2.8002,2.9085,2.8634,2.7767,2.7767,2.6887,2.6014,2.5917,2.5878,2.583,2.5732,2.5693,2.5693,2.5693,2.5693,2.5693,2.5693,2.5693,2.5693,2.5693,2.5693,2.5693,2.5693,2.5693,2.5226,2.384,2.3583,2.3534,2.3534,2.3633,2.4196,2.543,2.5635,2.5693,2.5693,2.6182,2.6621,2.7002,2.615,2.6454,2.8067,2.538,2.3263,2.182,2.2528,2.4126,2.6527,2.7782,2.9006,3.0225,3.0693,2.9792,2.8015,2.8015,2.7694,2.7212,2.6859,2.7594,2.8818,2.8437,3.0016,3.2342,2.562,2.9681,3.2973,3.2489,3.2794,3.3035,3.2885,3.2993,3.3124,3.3124,3.2239,3.1801,3.228,3.2328,3.2497,3.2919,3.3402,3.3533,3.3149,3.3124,3.3124,3.3124,3.3124,3.3124,3.3124,3.3124,3.2906,3.2579,3.264,3.2484,3.2017,3.223,3.2275,3.2185,3.2236,3.2129,3.1876,3.1876,3.1673,3.1429,3.1429,3.0322,2.8801,2.9714,2.8303,2.6142,2.8258,2.8226,2.722,2.7494,2.741,2.722,2.7494,2.8272,2.9039,2.9315,2.9223,2.8993,2.8993,2.8808,2.8355,2.74,2.7173,2.6945,2.5917,2.5693,2.5693,2.5693,2.5693,2.5693,2.5693,2.5693,2.5693,2.5693,2.5693,2.5693,2.5693,2.5693,2.5226,2.384,2.2767,2.2156,2.2156,2.3076,2.384,2.4097,2.5128,2.5693,2.5693,2.6465,2.6914,2.7012,2.7429,2.7299,2.6599,2.5936,2.482,2.3327,2.3763,2.4335,2.5026,2.7031,2.8746,3.0225,3.0693,2.9792,2.8015,2.7898,2.7425,2.6841,2.6639,2.7316,2.8418,2.833,3.0016,3.2632,2.5628,2.8411,3.088,3.1308,3.1845,3.2302,3.2624,3.2905,3.3124,3.3124,3.2747,3.2596,3.2934,3.3203,3.346,3.3741,3.3841,3.3771,3.3483,3.3219,3.3124,3.3124,3.3124,3.3206,3.347,3.347,3.355,3.3662,3.3918,3.4112,3.424,3.424,3.424,3.424,3.424,3.3897,3.3304,3.3304,3.2894,3.228,3.228,3.1351,2.9965,3.0645,2.9463,2.7709,2.959,2.9852,2.9223,2.8634,2.8448,2.8541,2.9131,2.9772,3.0361,3.1,3.0721,3.0271,3.0271,2.9863,2.9269,2.8634,2.8448,2.7945,2.611,2.5693,2.5693,2.5693,2.5693,2.5693,2.5693,2.5693,2.5693,2.5693,2.5693,2.5693,2.5693,2.5693,2.5226,2.384,2.3076,2.2667,2.2667,2.3285,2.3949,2.4609,2.5274,2.5693,2.5693,2.6553,2.7012,2.7012,2.7851,2.795,2.7168,2.7159,2.609,2.403,2.4392,2.5025,2.586,2.74,2.8737,2.9932,3.0605,2.9564,2.7404,2.7537,2.7083,2.6425,2.6315,2.7138,2.8291,2.8291,3.0016,3.2582,2.5635,2.6991,2.8405,2.9334,3.0455,3.1476,3.2247,3.2767,3.3124,3.3124,3.3558,3.3935,3.4035,3.4613,3.4964,3.4831,3.4449,3.4135,3.4048,3.352,3.3307,3.3483,3.3319,3.352,3.4161,3.4173,3.4399,3.4818,3.527,3.583,3.6405,3.6405,3.6405,3.6405,3.6405,3.5763,3.4727,3.4727,3.4056,3.2982,3.2982,3.229,3.1269,3.146,3.0646,2.959,3.0989,3.14,3.1033,3.0033,2.9727,2.9852,3.0899,3.1356,3.1733,3.2797,3.2326,3.1545,3.1545,3.0777,3.0,2.9772,2.9727,2.9085,2.661,2.6014,2.5965,2.5732,2.5693,2.5693,2.5693,2.5693,2.5693,2.5693,2.5693,2.5693,2.5693,2.5693,2.5284,2.4146,2.384,2.3583,2.3384,2.3384,2.389,2.5274,2.5382,2.5479,2.5693,2.6553,2.7012,2.7012,2.7851,2.8291,2.8291,2.8291,2.7249,2.5207,2.5445,2.6033,2.6813,2.7768,2.8654,2.9502,3.0312,2.9174,2.6742,2.7349,2.6992,2.6155,2.6381,2.7222,2.8344,2.8548,3.0068,3.214,2.5712,2.6781,2.8038,2.9192,3.0382,3.1609,3.2784,3.3074,3.3124,3.3124,3.3558,3.4085,3.4562,3.5529,3.5943,3.5433,3.532,3.5069,3.4638,3.4098,3.4211,3.5119,3.4299,3.4274,3.5257,3.527,3.5307,3.5382,3.5458,3.583,3.6405,3.6405,3.6405,3.6405,3.6405,3.631,3.6108,3.6108,3.6013,3.5858,3.5858,3.4565,3.2757,3.3811,3.2196,2.9681,3.2008,3.2152,3.1178,3.0989,3.0956,3.1,3.1134,3.1965,3.2884,3.3068,3.2982,3.284,3.284,3.2698,3.2339,3.1223,3.0956,3.0305,2.7908,2.7363,2.703,2.5917,2.5693,2.5693,2.5693,2.5693,2.5693,2.5693,2.5693,2.5693,2.5693,2.5693,2.5635,2.543,2.4402,2.3226,2.2055,2.1954,2.2517,2.389,2.3949,2.4461,2.5635,2.6553,2.7012,2.7012,2.7851,2.8291,2.8291,2.8291,2.8519,2.8895,2.8523,2.7066,2.4743,2.6496,2.7901,2.9033,2.9531,2.8623,2.6779,2.8131,2.7636,2.6209,2.7501,2.8121,2.8441,2.9608,3.0266,3.0773,2.5693,2.6716,2.8002,2.9177,3.0406,3.1633,3.2896,3.3124,3.3224,3.3495,3.401,3.4562,3.5082,3.5893,3.6304,3.6031,3.5671,3.5395,3.5157,3.4618,3.4668,3.547,3.4776,3.4876,3.5981,3.5658,3.5658,3.5994,3.5994,3.6119,3.6405,3.6405,3.6405,3.6405,3.6405,3.6405,3.6405,3.6405,3.6405,3.6405,3.6405,3.5587,3.4379,3.4599,3.356,3.201,3.281,3.2754,3.2283,3.2283,3.2283,3.2283,3.2283,3.2655,3.3124,3.3124,3.3124,3.3124,3.3124,3.3124,3.2982,3.2382,3.2283,3.1777,3.0,2.9085,2.8038,2.61,2.5693,2.5693,2.5693,2.5693,2.5693,2.5693,2.5693,2.5693,2.5693,2.5693,2.5693,2.5693,2.451,2.3741,2.3939,2.3276,2.3384,2.4716,2.4097,2.4304,2.5635,2.5809,2.6205,2.6961,2.7851,2.8291,2.8291,2.8525,2.8382,2.7893,2.8555,2.8308,2.7275,2.8145,2.8516,2.8603,2.9277,2.8848,2.7642,2.8536,2.8273,2.7384,2.8067,2.8291,2.8441,2.9817,3.0317,3.0369]}]]